Date StartTime U_cm/s V_cm/s W_cm/s Ustd_cm/s Vstd_cm/s Wstd_cm/s Uvar_(cm/s)^2 Vvar_(cm/s)^2 Wvar_(cm/s)^2 KE_(m/s)^2 TurbulentKE_(m/s)^2 HorizWindSpeed_cm/s FrictionSpeec_cm/s DragCoef SpeedOfSound_m/s SonicTemperature_C Pressure_mb 
10/12/2013  00:00:00      -85.857      -68.728       -2.921       65.623       42.309       27.046     4306.352     1790.019      731.464        0.946        0.341      109.977       32.696        0.088      339.199       12.367      860.707
10/12/2013  00:01:00     -104.509      -79.906        4.193       53.698       59.333       33.945     2883.422     3520.388     1152.257        1.244        0.378      131.556       38.166        0.084      339.152       12.288      860.714
10/12/2013  00:02:00     -136.114      -56.089        3.892       66.865       36.301       29.607     4470.868     1317.730      876.586        1.418        0.333      147.217       31.890        0.047      339.136       12.261      860.723
10/12/2013  00:03:00     -152.397      -40.495        1.318       71.247       54.274       32.825     5076.067     2945.661     1077.490        1.698        0.455      157.686       36.747        0.054      339.023       12.072      860.716
10/12/2013  00:04:00     -120.065      -38.534        3.856       66.962       48.152       26.136     4483.869     2318.656      683.078        1.170        0.374      126.097       26.718        0.045      338.974       11.990      860.716
10/12/2013  00:05:00      -77.365      -16.476       -2.646       45.126       48.402       20.107     2036.379     2342.766      404.308        0.552        0.239       79.099       18.173        0.053      338.901       11.867      860.714
10/12/2013  00:06:00     -127.232       47.015      -11.302       45.949       38.195       18.405     2111.329     1458.889      338.728        1.122        0.195      135.640       14.952        0.012      338.929       11.915      860.711
10/12/2013  00:07:00      -76.703       80.436      -18.475       27.905       32.341       17.523      778.663     1045.953      307.044        0.741        0.107      111.146       10.268        0.009      338.875       11.825      860.709
10/12/2013  00:08:00      -20.292      108.772      -15.481       36.998       39.992       18.990     1368.830     1599.393      360.622        0.791        0.166      110.648       16.916        0.023      338.979       11.999      860.701
10/12/2013  00:09:00       -6.099       75.520      -13.372       29.722       36.563       14.267      883.404     1336.870      203.548        0.417        0.121       75.766       11.790        0.024      338.825       11.738      860.703
10/12/2013  00:10:00        2.018      129.560      -18.718       28.352       23.044       11.380      803.817      531.004      129.509        0.930        0.073      129.576        3.895        0.001      338.952       11.952      860.718
10/12/2013  00:11:00       37.035      136.684      -18.368       31.050       31.757       28.327      964.119     1008.525      802.444        1.158        0.139      141.613       24.870        0.031      338.736       11.591      860.721
10/12/2013  00:12:00       11.420      108.279      -17.563       23.693       29.905       13.984      561.376      894.338      195.545        0.691        0.083      108.880       14.677        0.018      338.794       11.686      860.731
10/12/2013  00:13:00      -12.381       97.700      -14.930       14.295       18.819       11.440      204.353      354.153      130.879        0.531        0.034       98.481        8.524        0.007      338.878       11.828      860.739
10/12/2013  00:14:00      -17.936      103.941      -12.957       17.463       15.511        9.672      304.941      240.599       93.556        0.597        0.032      105.477        8.643        0.007      338.886       11.842      860.744
10/12/2013  00:15:00      -12.898       52.248       -4.485       31.459       34.273       15.162      989.686     1174.651      229.899        0.265        0.120       53.816       16.408        0.093      338.950       11.949      860.746
10/12/2013  00:16:00       23.111        4.947        3.634        9.451       10.589        8.362       89.328      112.120       69.922        0.042        0.014       23.635        4.513        0.036      338.708       11.542      860.758
10/12/2013  00:17:00       31.443        8.691        7.236        7.135        6.635        8.780       50.913       44.024       77.089        0.064        0.009       32.622        4.190        0.016      338.601       11.363      860.758
10/12/2013  00:18:00       28.353       14.343       13.228       18.700       11.738       12.720      349.676      137.791      161.792        0.092        0.032       31.774       12.164        0.147      338.536       11.254      860.760
10/12/2013  00:19:00       21.323       18.840       15.745       15.991       10.866       13.784      255.707      118.078      189.988        0.081        0.028       28.454        9.286        0.106      338.428       11.072      860.756
10/12/2013  00:20:00       39.896       10.069       18.442       20.806       23.754       17.324      432.886      564.276      300.127        0.166        0.065       41.147       18.160        0.195      338.506       11.203      860.749
10/12/2013  00:21:00       35.746       79.166       61.370       19.471       27.127       20.353      379.119      735.882      414.250        0.642        0.076       86.862       11.782        0.018      338.535       11.252      860.753
10/12/2013  00:22:00        3.966       71.410       76.123       18.491       26.103       17.216      341.908      681.369      296.379        0.611        0.066       71.520       16.496        0.053      338.524       11.233      860.748
10/12/2013  00:23:00       17.234       44.009       62.921       30.601       30.426       20.156      936.433      925.721      406.265        0.423        0.113       47.263       19.215        0.165      338.509       11.209      860.738
10/12/2013  00:24:00        7.003      -19.821       39.076       22.878       54.326       26.847      523.416     2951.356      720.745        0.308        0.210       21.022       34.511        2.695      338.624       11.402      860.726
10/12/2013  00:25:00       48.465      -87.634       -1.827       23.428       40.123       23.248      548.880     1609.843      540.455        0.637        0.135      100.143        7.609        0.006      338.630       11.412      860.725
10/12/2013  00:26:00       61.523      -73.105      -15.385       33.024       40.223       31.297     1090.583     1617.903      979.527        0.653        0.184       95.548       21.889        0.052      338.530       11.244      860.721
10/12/2013  00:27:00       79.830      -86.272      -12.573       36.683       40.631       29.168     1345.658     1650.917      850.743        0.891        0.192      117.540       26.557        0.051      338.550       11.279      860.719
10/12/2013  00:28:00       92.533      -83.101      -17.535       19.882       26.102       15.410      395.293      681.304      237.472        0.854        0.066      124.371       12.376        0.010      338.576       11.322      860.718
10/12/2013  00:29:00       76.712      -68.693        0.335       33.828       36.914       24.195     1144.314     1362.615      585.419        0.685        0.155      102.973       25.354        0.061      338.578       11.324      860.726
10/12/2013  00:30:00       75.709      -87.280       -9.565       25.161       24.056       17.096      633.090      578.710      292.267        0.747        0.075      115.541       14.751        0.016      338.684       11.501      860.734
10/12/2013  00:31:00       83.050      -73.986       -4.566       27.399       25.867       14.655      750.679      669.105      214.755        0.701        0.082      111.226       12.992        0.014      338.687       11.508      860.726
10/12/2013  00:32:00       53.601      -43.038       12.169       34.536       44.455       28.164     1192.740     1976.216      793.211        0.442        0.198       68.741       30.880        0.202      338.560       11.294      860.729
10/12/2013  00:33:00       67.288      -56.572       -1.619       38.315       32.414       20.266     1468.023     1050.685      410.698        0.533        0.146       87.910       24.169        0.076      338.568       11.308      860.728
10/12/2013  00:34:00       22.235      -15.825       16.500       23.839       30.252       22.171      568.289      915.192      491.566        0.150        0.099       27.291       15.518        0.323      338.432       11.079      860.722
10/12/2013  00:35:00      -12.635      -21.881       -5.835       13.204       22.049       13.631      174.350      486.177      185.812        0.076        0.042       25.267        9.728        0.148      338.419       11.058      860.739
10/12/2013  00:36:00      -38.034       -1.661       -1.232       18.627       11.204        7.363      346.947      125.525       54.209        0.099        0.026       38.070        4.466        0.014      338.408       11.038      860.743
10/12/2013  00:37:00      -56.758       -3.562       -7.566        7.030        6.929        5.140       49.415       48.013       26.418        0.171        0.006       56.869        3.439        0.004      338.317       10.886      860.742
10/12/2013  00:38:00      -38.528       17.355       -7.633       10.190       16.559        7.636      103.836      274.217       58.310        0.114        0.022       42.256        4.184        0.010      338.229       10.737      860.745
10/12/2013  00:39:00        3.505       28.690        3.197       16.737        6.705       10.078      280.127       44.960      101.560        0.064        0.021       28.903       11.540        0.159      338.406       11.036      860.751
10/12/2013  00:40:00       43.311       41.421        7.894        8.474       12.535        9.569       71.807      157.115       91.561        0.199        0.016       59.929        6.892        0.013      338.470       11.143      860.734
10/12/2013  00:41:00       37.247       29.757       -2.081       14.135       17.039       10.771      199.803      290.334      116.019        0.144        0.030       47.674        9.248        0.038      338.411       11.044      860.733
10/12/2013  00:42:00       10.388       12.722       15.131       17.652       19.171       24.552      311.607      367.510      602.791        0.089        0.064       16.424       19.203        1.367      338.088       10.502      860.742
10/12/2013  00:43:00        1.771       11.037       20.615       13.190       18.179       14.254      173.969      330.478      203.179        0.063        0.035       11.179       12.626        1.276      337.963       10.293      860.743
10/12/2013  00:44:00      -16.207       -2.255        3.515       14.107       12.725        9.446      199.015      161.932       89.231        0.037        0.023       16.363        4.593        0.079      337.979       10.318      860.733
10/12/2013  00:45:00      -43.779        2.557       -4.113       10.811        8.947        5.485      116.884       80.044       30.088        0.108        0.011       43.854        3.972        0.008      338.013       10.376      860.739
10/12/2013  00:46:00      -50.164        2.687       -7.001        6.320        5.541        4.722       39.944       30.699       22.299        0.133        0.005       50.236        3.511        0.005      338.066       10.466      860.726
10/12/2013  00:47:00      -37.363        6.737        0.194        7.460        6.689        4.429       55.654       44.749       19.618        0.078        0.006       37.965        4.191        0.012      338.167       10.635      860.716
10/12/2013  00:48:00      -36.205      -23.996       -8.786        7.446       10.742        5.725       55.444      115.386       32.777        0.108        0.010       43.436        6.206        0.020      338.250       10.773      860.718
10/12/2013  00:49:00      -67.450      -27.825      -11.063       20.736       12.919        7.729      429.971      166.909       59.742        0.305        0.033       72.964        6.051        0.007      338.038       10.417      860.725
10/12/2013  00:50:00      -86.220      -16.569      -13.008       22.094       10.574        7.587      488.144      111.808       57.566        0.427        0.033       87.798        4.639        0.003      337.895       10.177      860.720
10/12/2013  00:51:00      -49.015      -26.143       -8.102        6.360        5.459        4.449       40.447       29.803       19.794        0.162        0.005       55.551        2.766        0.002      338.288       10.836      860.703
10/12/2013  00:52:00      -95.224      -35.921       -9.032       23.798       12.829        7.400      566.350      164.584       54.758        0.561        0.039      101.774        6.739        0.004      337.960       10.288      860.696
10/12/2013  00:53:00     -107.988      -14.472      -15.009       19.993       14.322        9.103      399.731      205.121       82.865        0.639        0.034      108.954        3.961        0.001      337.717        9.879      860.682
10/12/2013  00:54:00      -84.815      -23.115      -13.642        8.714       17.639        5.866       75.940      311.131       34.411        0.417        0.021       87.909        5.035        0.003      337.979       10.319      860.672
10/12/2013  00:55:00      -55.022      -56.310       -3.376       32.918       33.733       18.276     1083.622     1137.895      334.018        0.438        0.128       78.729       13.559        0.030      337.830       10.069      860.669
10/12/2013  00:56:00      -79.591      -88.343        4.590       43.024       29.047       22.162     1851.056      843.743      491.145        0.867        0.159      118.908       18.573        0.024      337.861       10.122      860.676
10/12/2013  00:57:00      -74.590      -63.323       -3.964       43.886       31.554       22.737     1926.025      995.626      516.984        0.651        0.172       97.844       24.088        0.061      337.949       10.268      860.684
10/12/2013  00:58:00     -107.912      -40.503       -9.312       19.637       16.410       13.990      385.626      269.282      195.715        0.711        0.043      115.263        5.371        0.002      337.925       10.229      860.677
10/12/2013  00:59:00     -128.399      -59.707       -7.031       20.443       17.693       12.481      417.907      313.026      155.774        1.049        0.044      141.602        6.312        0.002      337.894       10.177      860.674
10/12/2013  01:00:00      -49.503      -30.445        9.482       45.911       27.130       21.676     2107.781      736.024      469.864        0.339        0.166       58.116       15.909        0.075      337.827       10.063      860.681
10/12/2013  01:01:00      -95.409      -18.036       -1.435       29.607       23.830       17.363      876.558      567.890      301.485        0.559        0.087       97.099       16.942        0.030      337.761        9.953      860.674
10/12/2013  01:02:00     -109.013       25.393      -11.538       38.788       34.474       20.037     1504.471     1188.480      401.478        0.788        0.155      111.931       10.823        0.009      337.450        9.434      860.668
10/12/2013  01:03:00     -104.390      -37.229       -6.248       31.064       40.972       17.882      964.972     1678.726      319.781        0.764        0.148      110.829        9.554        0.007      337.219        9.046      860.676
10/12/2013  01:04:00     -133.680        2.777       -9.464       36.790       47.854       21.234     1353.498     2290.037      450.878        1.103        0.205      133.709       12.416        0.009      337.133        8.901      860.696
10/12/2013  01:05:00     -102.181       -2.332       -8.055       58.674       33.258       17.357     3442.638     1106.115      301.273        0.768        0.243      102.207       22.819        0.050      337.156        8.941      860.697
10/12/2013  01:06:00     -105.692      -42.529       -2.660       39.388       29.788       19.756     1551.386      887.334      390.300        0.791        0.141      113.927       16.872        0.022      337.073        8.799      860.713
10/12/2013  01:07:00      -71.164      -16.212        3.184       61.861       27.135       22.661     3826.776      736.299      513.514        0.521        0.254       72.987       29.461        0.163      337.025        8.719      860.726
10/12/2013  01:08:00      -90.921      -25.013       -2.068       37.441       32.322       26.705     1401.849     1044.730      713.177        0.603        0.158       94.299       20.924        0.049      336.920        8.545      860.729
10/12/2013  01:09:00      -97.739       -9.690        1.577       35.649       24.456       18.730     1270.830      598.087      350.828        0.593        0.111       98.218       19.371        0.039      336.940        8.579      860.730
10/12/2013  01:10:00     -104.598       -6.156       -9.738       19.649       18.790       11.701      386.069      353.079      136.919        0.597        0.044      104.779        4.310        0.002      337.045        8.752      860.726
10/12/2013  01:11:00     -109.108      -11.319       -6.378       24.316       21.348       17.849      591.268      455.720      318.604        0.672        0.068      109.693       14.394        0.017      337.030        8.727      860.711
10/12/2013  01:12:00     -100.346       -3.189       -7.482       40.061       30.446       22.246     1604.899      926.972      494.867        0.658        0.151      100.397       23.627        0.055      336.994        8.668      860.707
10/12/2013  01:13:00     -131.280       -5.960       -1.546       40.983       31.831       20.984     1679.600     1013.197      440.308        1.020        0.157      131.415       20.688        0.025      337.034        8.734      860.713
10/12/2013  01:14:00      -81.852      -21.467        1.110       31.890       29.495       19.762     1016.958      869.960      390.549        0.472        0.114       84.620       17.021        0.040      336.971        8.629      860.706
10/12/2013  01:15:00      -94.942       -6.112       -4.511       43.181       25.749       18.440     1864.598      663.022      340.047        0.597        0.143       95.139       22.321        0.055      336.977        8.638      860.699
10/12/2013  01:16:00     -110.855      -15.809       -6.022       29.056       19.694       15.986      844.268      387.844      255.559        0.703        0.074      111.976        9.309        0.007      337.036        8.739      860.695
10/12/2013  01:17:00      -90.725      -18.690       -2.633       31.487       22.162       20.514      991.461      491.146      420.813        0.524        0.095       92.630       19.513        0.044      336.995        8.669      860.685
10/12/2013  01:18:00     -101.471      -32.972       -4.650       33.430       21.021       16.087     1117.536      441.863      258.801        0.661        0.091      106.693       15.054        0.020      337.033        8.733      860.698
10/12/2013  01:19:00     -122.441      -41.194       -5.881       28.567       18.628       14.388      816.091      347.005      207.002        0.905        0.069      129.185       17.213        0.018      337.097        8.840      860.685
10/12/2013  01:20:00      -86.255      -30.915        7.048       39.854       26.560       20.127     1588.339      705.442      405.089        0.557        0.135       91.628       21.200        0.054      337.163        8.952      860.683
10/12/2013  01:21:00      -82.656      -52.471        2.809       31.091       23.557       16.883      966.628      554.948      285.044        0.570        0.090       97.904       16.998        0.030      337.207        9.024      860.686
10/12/2013  01:22:00      -98.489      -45.458       -2.300       30.667       19.139       17.639      940.486      366.308      311.138        0.669        0.081      108.474       13.422        0.015      337.275        9.139      860.678
10/12/2013  01:23:00     -101.213       -7.732       -7.781       38.468       18.041       17.831     1479.810      325.480      317.937        0.624        0.106      101.508       20.064        0.039      337.091        8.829      860.677
10/12/2013  01:24:00     -124.379      -15.500      -10.522       36.759       20.735       18.667     1351.208      429.943      348.452        0.897        0.106      125.341       18.841        0.023      337.037        8.740      860.685
10/12/2013  01:25:00     -134.752       -9.970      -10.424       38.354       22.896       18.219     1471.039      524.205      331.946        1.035        0.116      135.120       14.227        0.011      337.011        8.695      860.686
10/12/2013  01:26:00     -128.800       -7.509       -9.801       33.912       24.977       18.636     1150.000      623.835      347.294        0.943        0.106      129.019       14.781        0.013      336.922        8.549      860.680
10/12/2013  01:27:00     -152.323        3.863      -12.906       41.757       38.480       24.369     1743.609     1480.731      593.871        1.360        0.191      152.372       21.455        0.020      336.892        8.500      860.691
10/12/2013  01:28:00     -124.998       -3.291       -1.186       49.249       42.814       25.767     2425.490     1833.021      663.959        1.028        0.246      125.041       23.682        0.036      336.804        8.351      860.690
10/12/2013  01:29:00     -119.359       15.565       -7.168       45.603       46.292       26.787     2079.631     2142.947      717.546        0.974        0.247      120.370       25.101        0.043      336.776        8.305      860.686
10/12/2013  01:30:00     -114.184       13.104       -6.113       60.242       39.864       21.466     3629.067     1589.155      460.775        0.946        0.284      114.934       19.796        0.030      336.772        8.299      860.705
10/12/2013  01:31:00     -121.169       -3.933       -7.220       45.732       30.774       24.148     2091.399      947.027      583.133        0.918        0.181      121.233       23.889        0.039      336.748        8.259      860.712
10/12/2013  01:32:00     -124.261       -1.867       -6.655       56.776       40.827       22.941     3223.491     1666.884      526.297        1.045        0.271      124.275       22.135        0.032      336.752        8.264      860.716
10/12/2013  01:33:00     -208.202      -12.009      -16.487       42.347       44.507       28.679     1793.302     1980.906      822.508        2.418        0.230      208.548       23.941        0.013      336.944        8.582      860.724
10/12/2013  01:34:00     -187.428      -45.684      -13.781       26.804       25.228       17.627      718.456      636.475      310.707        1.954        0.083      192.916       12.926        0.004      336.926        8.553      860.732
10/12/2013  01:35:00     -180.719      -47.777      -15.074       47.226       39.878       24.985     2230.310     1590.261      624.266        1.981        0.222      186.928       26.487        0.020      336.887        8.489      860.732
10/12/2013  01:36:00     -132.319      -28.614       -8.421       42.344       29.807       20.154     1792.991      888.451      406.178        1.074        0.154      135.377       18.546        0.019      336.897        8.505      860.726
10/12/2013  01:37:00     -137.372      -44.655       -6.462       29.967       30.519       19.139      898.004      931.430      366.295        1.155        0.110      144.447        4.570        0.001      336.972        8.631      860.720
10/12/2013  01:38:00     -126.806      -22.989       -0.174       62.693       40.354       29.138     3930.415     1628.441      849.052        1.151        0.320      128.873       34.073        0.070      336.954        8.601      860.718
10/12/2013  01:39:00     -178.889      -44.984       -6.641       49.100       32.839       20.313     2410.786     1078.374      412.616        1.898        0.195      184.458       16.209        0.008      337.057        8.773      860.720
10/12/2013  01:40:00     -137.201      -58.700       -1.774       45.287       37.071       26.922     2050.940     1374.234      724.817        1.321        0.207      149.231       19.402        0.017      337.068        8.791      860.734
10/12/2013  01:41:00      -87.574      -44.589        2.804       47.568       43.227       21.700     2262.671     1868.597      470.870        0.713        0.230       98.272       17.665        0.032      336.995        8.670      860.733
10/12/2013  01:42:00     -134.794      -37.840       -3.039       47.210       42.225       24.788     2228.799     1782.972      614.441        1.212        0.231      140.005       24.230        0.030      336.956        8.605      860.737
10/12/2013  01:43:00     -168.141      -31.316      -14.025       49.407       37.176       26.041     2441.014     1382.087      678.112        1.697        0.225      171.033       25.591        0.022      336.940        8.577      860.746
10/12/2013  01:44:00     -154.217      -54.590       -9.455       60.274       29.902       27.763     3632.977      894.157      770.779        1.607        0.265      163.594       26.949        0.027      337.227        9.057      860.741
10/12/2013  01:45:00     -140.926      -57.409        0.837       39.174       36.999       23.144     1534.612     1368.923      535.643        1.330        0.172      152.170       19.546        0.016      337.118        8.875      860.746
10/12/2013  01:46:00     -153.878      -23.124      -11.606       47.955       30.526       27.138     2299.657      931.862      736.494        1.416        0.198      155.605       26.717        0.029      337.070        8.795      860.747
10/12/2013  01:47:00     -169.860       -4.140       -6.332       54.848       45.474       27.013     3008.318     2067.865      729.694        1.736        0.290      169.910       27.810        0.027      337.036        8.738      860.745
10/12/2013  01:48:00     -225.798      -19.572      -25.256       23.833       34.914       20.055      568.024     1218.977      402.198        2.710        0.109      226.645       15.806        0.005      336.986        8.651      860.752
10/12/2013  01:49:00     -155.289      -38.501      -17.773       33.332       41.193       25.149     1111.003     1696.881      632.496        1.468        0.172      159.990       19.381        0.015      336.982        8.648      860.757
10/12/2013  01:50:00     -151.539      -20.708      -12.608       60.419       49.488       31.014     3650.472     2449.021      961.866        1.531        0.353      152.947       26.357        0.030      336.888        8.491      860.760
10/12/2013  01:51:00     -168.497      -43.764      -12.802       48.930       46.365       25.585     2394.135     2149.709      654.608        1.783        0.260      174.088       23.156        0.018      336.932        8.564      860.778
10/12/2013  01:52:00     -162.672      -40.587      -13.778       36.054       39.704       29.392     1299.859     1576.428      863.901        1.602        0.187      167.659       25.098        0.022      336.891        8.496      860.786
10/12/2013  01:53:00     -123.089      -20.927       -4.274       29.823       38.276       18.941      889.425     1465.072      358.768        0.916        0.136      124.855       14.550        0.014      336.892        8.498      860.786
10/12/2013  01:54:00     -104.488       -3.844       -5.747       57.309       41.561       25.521     3284.354     1727.295      651.344        0.831        0.283      104.559       26.410        0.064      336.867        8.457      860.794
10/12/2013  01:55:00     -149.550       -8.006       -9.852       49.686       42.802       30.491     2468.658     1831.985      929.717        1.388        0.262      149.764       30.625        0.042      336.908        8.524      860.801
10/12/2013  01:56:00      -54.388      -22.104       -1.270       46.394       27.870       22.779     2152.407      776.734      518.887        0.345        0.172       58.708       20.944        0.127      337.002        8.682      860.798
10/12/2013  01:57:00      -87.557      -15.577       -0.409       48.964       33.203       21.060     2397.519     1102.451      443.510        0.593        0.197       88.931       18.690        0.044      336.822        8.382      860.801
10/12/2013  01:58:00     -108.175        1.402       -3.006       36.191       20.794       18.712     1309.773      432.398      350.150        0.690        0.105      108.185       18.898        0.031      336.769        8.294      860.814
10/12/2013  01:59:00     -106.138       -3.347      -11.684       25.843       23.915       16.265      667.873      571.934      264.552        0.646        0.075      106.191       11.276        0.011      336.783        8.316      860.828
10/12/2013  02:00:00      -85.691      -24.757      -11.706       26.866       24.470       16.034      721.765      598.787      257.075        0.483        0.079       89.196       14.346        0.026      336.745        8.254      860.844
10/12/2013  02:01:00      -37.863      -18.993       -5.945       18.342       17.429       18.162      336.418      303.775      329.843        0.140        0.049       42.360       16.012        0.143      336.795        8.337      860.863
10/12/2013  02:02:00      -86.550      -21.946       -5.578       25.001       16.244       13.310      625.054      263.855      177.157        0.453        0.053       89.289       13.149        0.022      336.835        8.404      860.863
10/12/2013  02:03:00      -52.056      -11.859       -4.075       25.677       10.731       10.437      659.314      115.156      108.928        0.188        0.044       53.390       10.887        0.042      336.854        8.435      860.872
10/12/2013  02:04:00      -40.499       -7.021       -7.272       13.104       14.336        8.735      171.718      205.518       76.299        0.110        0.023       41.103        8.302        0.041      336.949        8.593      860.885
10/12/2013  02:05:00      -66.186      -21.735       -1.787       22.338       17.644       10.144      498.996      311.313      102.898        0.288        0.046       69.663        6.735        0.009      336.947        8.590      860.891
10/12/2013  02:06:00      -71.480      -22.924       -9.796       22.175       11.588        8.380      491.721      134.282       70.220        0.321        0.035       75.066        7.445        0.010      336.777        8.308      860.894
10/12/2013  02:07:00      -84.027      -19.672      -14.837       16.846       13.790       12.234      283.798      190.166      149.662        0.415        0.031       86.299       10.598        0.015      336.780        8.312      860.903
10/12/2013  02:08:00      -73.505      -15.219      -13.415       17.710       12.503       11.229      313.628      156.318      126.096        0.321        0.030       75.064        7.721        0.011      336.814        8.369      860.927
10/12/2013  02:09:00      -92.351      -32.198       -9.093       21.285       15.578        8.079      453.054      242.661       65.266        0.520        0.038       97.803        6.153        0.004      336.783        8.317      860.930
10/12/2013  02:10:00      -91.706      -49.678       -2.487       22.233       12.785       10.885      494.319      163.447      118.473        0.583        0.039      104.297       12.040        0.013      336.762        8.282      860.923
10/12/2013  02:11:00     -102.313      -41.873       -3.932       17.979       11.463       10.653      323.240      131.406      113.486        0.640        0.028      110.550       10.837        0.010      336.800        8.345      860.916
10/12/2013  02:12:00      -97.906      -60.481       -3.239       23.242       17.225       17.976      540.170      296.712      323.154        0.721        0.058      115.081        8.249        0.005      336.794        8.336      860.916
10/12/2013  02:13:00      -44.224      -44.324        6.893       34.456       25.555       16.896     1187.217      653.058      285.477        0.305        0.106       62.613       19.369        0.096      336.793        8.333      860.900
10/12/2013  02:14:00      -78.450      -61.050        0.870       45.979       29.038       19.782     2114.065      843.195      391.323        0.661        0.167       99.406       20.331        0.042      336.864        8.452      860.870
10/12/2013  02:15:00     -116.557      -71.279       -5.456       32.865       27.410       19.710     1080.121      751.296      388.478        1.046        0.111      136.624       15.931        0.014      336.849        8.428      860.856
10/12/2013  02:16:00     -107.402      -45.754       -3.402       29.799       27.048       18.489      887.968      731.611      341.859        0.780        0.098      116.741       15.138        0.017      336.821        8.381      860.856
10/12/2013  02:17:00     -133.004      -24.062       -8.692       32.748       21.157       20.930     1072.425      447.622      438.075        1.015        0.098      135.163       20.413        0.023      336.698        8.176      860.851
10/12/2013  02:18:00     -143.100      -61.238        3.201       35.376       22.298       21.317     1251.448      497.210      454.424        1.322        0.110      155.652       21.327        0.019      336.735        8.237      860.837
10/12/2013  02:19:00     -138.025      -36.618       -4.577       26.145       29.889       24.708      683.555      893.368      610.491        1.130        0.109      142.800       16.553        0.013      336.746        8.255      860.828
10/12/2013  02:20:00     -131.868      -14.711       -8.811       38.177       26.359       18.027     1457.474      694.805      324.972        1.008        0.124      132.686       18.444        0.019      336.688        8.160      860.823
10/12/2013  02:21:00     -121.856       -7.271       -8.031       27.563       26.849       20.745      759.696      720.877      430.353        0.844        0.096      122.073       14.042        0.013      336.571        7.962      860.814
10/12/2013  02:22:00      -87.821      -26.019       -0.685       26.129       18.385       14.252      682.720      338.025      203.124        0.481        0.061       91.594       13.100        0.020      336.586        7.988      860.798
10/12/2013  02:23:00     -104.054      -49.043        5.292       46.350       29.815       19.395     2148.325      888.942      376.182        0.834        0.171      115.033       23.637        0.042      336.735        8.237      860.791
10/12/2013  02:24:00      -71.071      -42.558        1.017       22.144       20.520       16.949      490.335      421.081      287.279        0.403        0.060       82.838       14.147        0.029      336.795        8.336      860.787
10/12/2013  02:25:00      -70.051      -34.657        4.548       36.387       19.616       13.918     1324.017      384.789      193.718        0.402        0.095       78.155       15.340        0.039      336.840        8.412      860.787
10/12/2013  02:26:00      -63.562      -42.694       -0.512       31.341       25.453       16.430      982.235      647.838      269.932        0.388        0.095       76.570       11.261        0.022      336.800        8.344      860.783
10/12/2013  02:27:00      -52.244      -44.620        2.938       41.026       28.290       22.578     1683.155      800.303      509.750        0.386        0.150       68.706       19.144        0.078      336.726        8.222      860.779
10/12/2013  02:28:00      -64.078      -44.213        8.205       42.551       29.841       21.894     1810.561      890.457      479.339        0.465        0.159       77.851       22.004        0.080      336.695        8.169      860.777
10/12/2013  02:29:00      -28.243      -38.484        8.957       39.120       30.092       15.952     1530.382      905.558      254.452        0.252        0.135       47.736       11.527        0.058      336.716        8.207      860.787
10/12/2013  02:30:00      -84.181      -42.777        3.336       28.682       20.940       17.403      822.658      438.468      302.851        0.525        0.078       94.426       12.509        0.018      336.706        8.188      860.788
10/12/2013  02:31:00      -53.008      -45.954        4.836       38.028       23.305       21.110     1446.113      543.123      445.647        0.369        0.122       70.154       20.011        0.081      336.679        8.144      860.787
10/12/2013  02:32:00      -63.093      -61.164        0.113       37.978       25.208       20.033     1442.321      635.449      401.331        0.510        0.124       87.874       16.660        0.036      336.743        8.251      860.776
10/12/2013  02:33:00      -59.533      -54.292        5.374       29.725       23.650       18.647      883.584      559.309      347.703        0.416        0.090       80.572       15.996        0.039      336.646        8.088      860.770
10/12/2013  02:34:00      -56.668      -43.515        6.847       38.589       28.588       24.191     1489.100      817.264      585.187        0.402        0.145       71.448       20.353        0.081      336.622        8.047      860.780
10/12/2013  02:35:00      -46.850      -46.235        8.042       39.284       30.760       21.134     1543.209      946.158      446.665        0.367        0.147       65.823       18.689        0.081      336.570        7.961      860.763
10/12/2013  02:36:00      -58.975      -35.453        6.964       43.610       29.869       24.772     1901.860      892.187      613.644        0.409        0.170       68.811       20.974        0.093      336.534        7.901      860.749
10/12/2013  02:37:00      -73.062      -37.943        9.930       37.639       26.919       22.361     1416.710      724.652      500.027        0.476        0.132       82.327       19.081        0.054      336.573        7.967      860.728
10/12/2013  02:38:00      -77.357      -36.987        7.203       37.495       26.101       17.958     1405.845      681.271      322.490        0.491        0.120       85.745       11.780        0.019      336.606        8.021      860.709
10/12/2013  02:39:00     -109.151      -49.024       -4.169       21.545       22.457       13.603      464.206      504.312      185.040        0.774        0.058      119.654       11.392        0.009      336.613        8.034      860.697
10/12/2013  02:40:00      -96.683      -37.148       -4.164       23.740       19.192       13.137      563.589      368.317      172.580        0.592        0.055      103.574       12.129        0.014      336.562        7.948      860.684
10/12/2013  02:41:00     -132.388      -37.375       -3.873       15.597       16.739       12.037      243.262      280.183      144.899        0.980        0.033      137.563        7.146        0.003      336.544        7.918      860.677
10/12/2013  02:42:00     -129.048      -20.837       -1.687       39.821       27.984       21.015     1585.673      783.088      441.612        0.995        0.141      130.720       21.766        0.028      336.411        7.693      860.670
10/12/2013  02:43:00     -128.091      -44.975       -3.957       25.623       18.194       15.066      656.519      331.032      226.974        0.983        0.061      135.757       13.329        0.010      336.418        7.704      860.669
10/12/2013  02:44:00      -79.654      -19.147        1.056       28.052       23.036       18.207      786.912      530.653      331.495        0.418        0.082       81.922       16.710        0.042      336.370        7.626      860.669
10/12/2013  02:45:00      -70.101      -40.148       -1.107       24.217       24.882       12.640      586.472      619.096      159.775        0.395        0.068       80.783       12.049        0.022      336.478        7.807      860.647
10/12/2013  02:46:00      -57.399      -23.019       -0.395       30.962       15.296       13.417      958.636      233.972      180.017        0.260        0.069       61.843       16.376        0.070      336.594        8.001      860.630
10/12/2013  02:47:00      -41.544      -32.344        0.162       26.845       19.223       12.361      720.639      369.526      152.787        0.201        0.062       52.650       11.232        0.046      336.626        8.055      860.622
10/12/2013  02:48:00      -56.336      -31.987       -7.159       34.403       17.405       15.266     1183.593      302.929      233.063        0.298        0.086       64.784       14.284        0.049      336.633        8.067      860.625
10/12/2013  02:49:00      -30.522      -34.066        1.435       28.091       16.088       13.581      789.106      258.818      184.446        0.166        0.062       45.739       13.442        0.086      336.586        7.989      860.623
10/12/2013  02:50:00      -38.653      -54.614       -0.346       19.999       17.057       16.605      399.960      290.941      275.732        0.272        0.048       66.908        9.778        0.021      336.613        8.033      860.623
10/12/2013  02:51:00      -52.774      -43.755        1.948       37.971       27.108       20.303     1441.765      734.861      412.230        0.365        0.129       68.553       21.226        0.096      336.654        8.102      860.623
10/12/2013  02:52:00      -37.363      -45.109       -1.788       18.334       15.898       16.069      336.152      252.751      258.210        0.214        0.042       58.573       11.446        0.038      336.661        8.115      860.624
10/12/2013  02:53:00      -66.244      -42.723      -12.980       18.586       14.018        8.875      345.440      196.497       78.766        0.350        0.031       78.826        5.717        0.005      336.738        8.242      860.613
10/12/2013  02:54:00      -99.295      -36.318       -9.997       25.655       20.265       11.705      658.204      410.678      137.018        0.624        0.060      105.728       13.698        0.017      336.713        8.201      860.594
10/12/2013  02:55:00     -111.973      -45.115       -5.393       16.972       24.613       11.256      288.059      605.803      126.688        0.781        0.051      120.720        9.817        0.007      336.682        8.149      860.566
10/12/2013  02:56:00      -99.380      -42.543      -15.002       16.920       13.906        9.718      286.297      193.390       94.448        0.624        0.029      108.103        4.692        0.002      336.634        8.068      860.533
10/12/2013  02:57:00     -109.207      -52.108      -12.549       17.805       18.820       14.089      317.020      354.177      198.513        0.783        0.043      121.002        9.510        0.006      336.621        8.046      860.509
10/12/2013  02:58:00     -106.197      -60.345       -8.458       22.025       16.336       14.933      485.109      266.874      222.986        0.798        0.049      122.145        6.352        0.003      336.610        8.029      860.493
10/12/2013  02:59:00      -73.577      -51.920        1.926       29.676       20.712       19.449      880.650      428.976      378.274        0.490        0.084       90.052       15.082        0.028      336.588        7.992      860.470
10/12/2013  03:00:00      -93.171      -67.409        1.192       40.746       29.039       19.447     1660.266      843.248      378.184        0.805        0.144      114.999       19.440        0.029      336.602        8.016      860.452
10/12/2013  03:01:00     -102.024      -72.601        2.276       21.612       22.530       16.690      467.096      507.591      278.554        0.847        0.063      125.220       12.678        0.010      336.699        8.177      860.434
10/12/2013  03:02:00      -60.738      -40.224        8.780       49.178       32.762       29.549     2418.522     1073.360      873.151        0.487        0.218       72.849       26.069        0.128      336.650        8.095      860.426
10/12/2013  03:03:00     -103.706      -95.612        1.891       58.949       46.209       33.175     3474.945     2135.233     1100.557        1.330        0.336      141.056       32.923        0.054      336.611        8.029      860.427
10/12/2013  03:04:00     -129.870      -84.211       -3.649       30.072       39.252       23.945      904.319     1540.748      573.352        1.349        0.151      154.782       16.614        0.012      336.641        8.079      860.425
10/12/2013  03:05:00      -96.090      -70.953        5.760       45.439       36.096       25.986     2064.664     1302.936      675.282        0.917        0.202      119.447       17.016        0.020      336.645        8.086      860.416
10/12/2013  03:06:00     -108.171      -55.736       -0.379       43.532       28.366       17.602     1895.020      804.613      309.846        0.891        0.150      121.686       18.177        0.022      336.486        7.821      860.404
10/12/2013  03:07:00     -120.560      -36.115       -3.639       34.368       31.959       16.159     1181.153     1021.396      261.126        0.916        0.123      125.853       12.045        0.009      336.440        7.744      860.393
10/12/2013  03:08:00      -98.098      -21.947       -7.241       28.962       22.541       13.975      838.772      508.074      195.311        0.585        0.077      100.523       13.891        0.019      336.433        7.732      860.381
10/12/2013  03:09:00      -90.454      -19.231      -10.970       37.482       29.615       15.200     1404.925      877.051      231.034        0.559        0.126       92.476       15.245        0.027      336.410        7.691      860.376
10/12/2013  03:10:00     -140.186      -25.790      -12.627       23.732       22.714       12.727      563.196      515.931      161.973        1.086        0.062      142.539       10.267        0.005      336.416        7.701      860.371
10/12/2013  03:11:00     -160.373       14.419      -18.425       44.177       34.341       21.672     1951.595     1179.288      469.668        1.493        0.180      161.020       16.279        0.010      336.491        7.828      860.357
10/12/2013  03:12:00     -177.447       12.474      -13.170       31.628       31.496       19.648     1000.344      991.976      386.048        1.710        0.119      177.885       16.082        0.008      336.577        7.973      860.349
10/12/2013  03:13:00     -125.645      -11.897       -2.163       42.672       39.137       23.818     1820.888     1531.730      567.280        0.993        0.196      126.207       25.776        0.042      336.511        7.862      860.350
10/12/2013  03:14:00     -107.495      -11.832       -0.051       37.968       31.837       20.281     1441.595     1013.614      411.302        0.728        0.143      108.144       17.813        0.027      336.509        7.859      860.351
10/12/2013  03:15:00     -130.215      -18.170       -3.639       33.859       22.756       19.138     1146.419      517.854      366.253        0.966        0.102      131.476       18.510        0.020      336.568        7.958      860.333
10/12/2013  03:16:00     -124.580       -5.081       -4.228       38.098       28.326       20.533     1451.449      802.339      421.599        0.912        0.134      124.683       20.954        0.028      336.486        7.821      860.320
10/12/2013  03:17:00     -141.333        0.109      -14.246       29.819       32.550       17.752      889.162     1059.516      315.147        1.122        0.113      141.333        9.920        0.005      336.512        7.865      860.313
10/12/2013  03:18:00     -194.751       25.568      -18.711       20.731       23.428       15.084      429.774      548.892      227.534        2.007        0.060      196.422       12.872        0.004      336.582        7.981      860.317
10/12/2013  03:19:00     -158.590       20.895      -13.637       44.169       29.751       21.000     1950.869      885.131      440.996        1.452        0.164      159.961       20.368        0.016      336.477        7.806      860.329
10/12/2013  03:20:00     -155.596       20.934      -10.136       41.312       39.522       25.690     1706.706     1561.975      659.977        1.434        0.196      156.998       19.858        0.016      336.517        7.873      860.331
10/12/2013  03:21:00     -182.203       51.188      -23.521       68.110       44.457       29.733     4639.036     1976.393      884.061        2.193        0.375      189.257       23.829        0.016      336.584        7.982      860.322
10/12/2013  03:22:00     -131.648       65.889      -16.398       39.718       41.932       32.542     1577.532     1758.295     1058.991        1.317        0.220      147.216       19.165        0.017      336.482        7.814      860.310
10/12/2013  03:23:00     -144.272       46.625      -21.741       44.775       33.563       28.243     2004.756     1126.457      797.664        1.369        0.196      151.619       23.518        0.024      336.579        7.977      860.317
10/12/2013  03:24:00     -132.400       59.339      -19.875       51.741       50.131       27.306     2677.088     2513.133      745.630        1.369        0.297      145.089       27.947        0.037      336.604        8.018      860.309
10/12/2013  03:25:00     -152.527      179.251      -40.703       50.781       46.849       31.659     2578.727     2194.793     1002.286        3.141        0.289      235.362       25.590        0.012      336.812        8.361      860.291
10/12/2013  03:26:00     -149.348      185.588      -39.069       61.321       55.448       41.147     3760.249     3074.448     1693.035        3.340        0.426      238.218       35.900        0.023      336.867        8.451      860.283
10/12/2013  03:27:00     -118.696      121.730      -20.150       65.582       58.538       34.011     4300.944     3426.669     1156.776        1.910        0.444      170.020       33.066        0.038      337.006        8.688      860.268
10/12/2013  03:28:00      -87.868      193.102      -17.876       51.999       63.221       36.637     2703.888     3996.883     1342.299        2.668        0.402      212.153       36.382        0.029      337.023        8.715      860.249
10/12/2013  03:29:00      -73.764       83.737      -20.672       52.456       59.257       29.133     2751.598     3511.371      848.711        0.999        0.356      111.594       25.881        0.054      337.099        8.843      860.245
10/12/2013  03:30:00      -38.214       59.203      -12.750       35.492       43.184       21.583     1259.651     1864.872      465.823        0.436        0.180       70.465        9.711        0.019      336.990        8.661      860.250
10/12/2013  03:31:00      -27.680       23.858        5.885       24.488       38.137       21.380      599.668     1454.401      457.114        0.194        0.126       36.543       17.255        0.223      336.927        8.555      860.240
10/12/2013  03:32:00      -24.103       27.829       -1.527       19.437       20.112       11.118      377.787      404.491      123.611        0.113        0.045       36.816       11.829        0.103      336.915        8.537      860.239
10/12/2013  03:33:00        1.648       -4.046       22.720       14.472       39.810       27.004      209.430     1584.811      729.239        0.153        0.126        4.369       28.822       43.523      336.926        8.555      860.247
10/12/2013  03:34:00        1.726      -61.044      -10.572       34.917       53.715       28.807     1219.188     2885.295      829.848        0.439        0.247       61.068       32.843        0.289      336.913        8.534      860.266
10/12/2013  03:35:00       57.049     -100.782      -24.956       50.269       62.221       29.076     2526.963     3871.437      845.385        1.064        0.362      115.808       18.327        0.025      336.587        7.991      860.269
10/12/2013  03:36:00      -23.021      -59.267        4.913       60.876       44.606       38.645     3705.944     1989.733     1493.432        0.563        0.359       63.581       36.817        0.335      336.560        7.944      860.274
10/12/2013  03:37:00      -13.561      -64.460      -11.608       45.389       35.107       29.141     2060.138     1232.508      849.222        0.431        0.207       65.870       19.922        0.091      336.538        7.909      860.291
10/12/2013  03:38:00       -9.610       -3.486        3.661       16.536       18.147       15.632      273.425      329.309      244.360        0.048        0.042       10.223       12.300        1.448      336.517        7.870      860.296
10/12/2013  03:39:00      -23.648      -17.313        0.012       37.586       26.952       20.181     1412.694      726.432      407.282        0.170        0.127       29.308       17.545        0.358      336.542        7.913      860.298
10/12/2013  03:40:00      -24.968      -62.451       -1.912       31.253       26.520       19.949      976.751      703.330      397.972        0.330        0.104       67.257       15.239        0.051      336.537        7.907      860.296
10/12/2013  03:41:00      -79.603      -89.166       -9.547       60.655       37.284       32.599     3679.034     1390.086     1062.681        1.025        0.307      119.529       28.881        0.058      336.379        7.642      860.292
10/12/2013  03:42:00      -77.271      -84.669       -4.321       42.667       32.980       23.293     1820.493     1087.704      542.561        0.830        0.173      114.628       17.435        0.023      336.348        7.589      860.290
10/12/2013  03:43:00      -43.687      -70.523       -3.631       38.504       28.304       24.741     1482.578      801.090      612.131        0.489        0.145       82.958       13.856        0.028      336.369        7.626      860.285
10/12/2013  03:44:00      -24.969      -71.888       -8.210       33.526       37.430       27.964     1124.019     1401.032      781.989        0.458        0.165       76.101       16.116        0.045      336.338        7.572      860.265
10/12/2013  03:45:00      -24.347      -59.121        5.377       59.728       33.191       29.258     3567.428     1101.661      856.039        0.482        0.276       63.938       24.259        0.144      336.411        7.696      860.244
10/12/2013  03:46:00      -25.108      -49.889        2.079       47.768       35.992       23.981     2281.775     1295.419      575.085        0.364        0.208       55.851       16.103        0.083      336.339        7.573      860.238
10/12/2013  03:47:00      -11.235      -44.630        0.627       44.156       31.889       21.052     1949.725     1016.920      443.172        0.276        0.170       46.022       14.546        0.100      336.329        7.556      860.230
10/12/2013  03:48:00        0.016      -38.505       -1.122       23.196       22.973       21.452      538.051      527.744      460.209        0.150        0.076       38.505       11.533        0.090      336.329        7.558      860.208
10/12/2013  03:49:00      -12.366      -17.859        1.900       32.944       33.684       19.647     1085.323     1134.595      386.016        0.154        0.130       21.722       17.722        0.666      336.255        7.432      860.200
10/12/2013  03:50:00      -16.037      -59.750        5.977       53.357       39.044       26.866     2847.015     1524.445      721.772        0.448        0.255       61.864       26.588        0.185      336.169        7.288      860.193
10/12/2013  03:51:00      -32.602      -26.906       -0.588       45.293       33.132       27.579     2051.443     1097.754      760.617        0.285        0.195       42.270       13.227        0.098      336.031        7.058      860.175
10/12/2013  03:52:00      -50.835      -38.447        7.109       44.293       34.411       24.082     1961.841     1184.116      579.953        0.392        0.186       63.737       20.933        0.108      336.090        7.158      860.170
10/12/2013  03:53:00      -75.105      -39.425       -1.764       33.652       31.277       23.966     1132.465      978.274      574.377        0.494        0.134       84.824       21.125        0.062      336.059        7.106      860.171
10/12/2013  03:54:00      -93.867      -61.576        5.344       45.530       38.493       29.280     2072.953     1481.716      857.304        0.852        0.221      112.262       20.405        0.033      336.070        7.125      860.169
10/12/2013  03:55:00      -84.174      -65.915        4.286       59.296       39.304       30.522     3515.975     1544.765      931.613        0.872        0.300      106.911       32.102        0.090      336.061        7.109      860.170
10/12/2013  03:56:00      -79.070      -69.413        7.151       62.085       39.362       26.253     3854.547     1549.343      689.225        0.861        0.305      105.216       17.892        0.029      336.107        7.185      860.168
10/12/2013  03:57:00      -28.160      -55.600       20.488       60.233       48.203       27.506     3628.032     2323.567      756.605        0.550        0.335       62.325       31.673        0.258      336.041        7.075      860.168
10/12/2013  03:58:00     -116.134     -105.408       -1.115       68.941       54.010       33.139     4752.807     2917.126     1098.220        1.668        0.438      156.838       37.790        0.058      335.907        6.853      860.175
10/12/2013  03:59:00      -12.486      -60.125        6.238       44.647       39.941       30.485     1993.312     1595.269      929.338        0.416        0.226       61.408       14.901        0.059      335.934        6.897      860.167
10/12/2013  04:00:00      -14.927      -81.192       -0.794       27.556       57.608       20.959      759.332     3318.661      439.282        0.567        0.226       82.553        7.884        0.009      336.099        7.174      860.157
10/12/2013  04:01:00      -18.318      -16.041       -2.686       22.973       19.889       11.707      527.741      395.564      137.059        0.083        0.053       24.349        8.717        0.128      336.077        7.137      860.152
10/12/2013  04:02:00      -87.175      -28.953       -4.140       28.470       27.099       17.383      810.516      734.353      302.185        0.515        0.092       91.857       11.589        0.016      335.902        6.845      860.152
10/12/2013  04:03:00      -59.897      -45.166        4.740       44.199       32.093       23.891     1953.527     1029.956      570.769        0.460        0.178       75.018       16.386        0.048      335.881        6.811      860.159
10/12/2013  04:04:00      -66.893      -48.382       10.937       47.171       36.957       26.102     2225.139     1365.835      681.333        0.560        0.214       82.556       23.508        0.081      335.762        6.613      860.164
10/12/2013  04:05:00      -88.797      -57.968       -4.319       60.838       36.818       23.589     3701.286     1355.562      556.463        0.844        0.281      106.044       23.760        0.050      335.878        6.804      860.164
10/12/2013  04:06:00      -98.165      -62.241        1.812       61.108       34.789       25.133     3734.200     1210.252      631.648        0.954        0.279      116.234       29.006        0.062      335.807        6.687      860.165
10/12/2013  04:07:00     -111.115      -47.990       -9.939       21.462       19.004       11.894      460.597      361.157      141.455        0.786        0.048      121.036        6.171        0.003      335.804        6.681      860.156
10/12/2013  04:08:00      -68.572      -49.943       -6.929       34.802       21.601       17.214     1211.147      466.592      296.334        0.461        0.099       84.831       18.918        0.050      335.765        6.618      860.155
10/12/2013  04:09:00      -87.741      -37.454      -11.218       20.330       24.529       11.372      413.314      601.695      129.324        0.519        0.057       95.401        6.862        0.005      335.691        6.495      860.147
10/12/2013  04:10:00      -82.753      -15.717        0.234       27.870       29.018       15.986      776.732      842.062      255.548        0.448        0.094       84.232       15.383        0.033      335.575        6.301      860.141
10/12/2013  04:11:00      -51.424      -42.413        4.311       30.729       29.647       18.052      944.272      878.953      325.882        0.331        0.107       66.658       13.393        0.040      335.671        6.460      860.141
10/12/2013  04:12:00      -85.607      -31.914       -1.746       33.428       21.783       13.682     1117.426      474.508      187.201        0.506        0.089       91.362       12.506        0.019      335.618        6.372      860.133
10/12/2013  04:13:00      -84.351      -31.360       -6.748       28.819       29.770       18.572      830.548      886.266      344.906        0.510        0.103       89.992       14.509        0.026      335.576        6.301      860.134
10/12/2013  04:14:00      -79.120      -18.293        2.802       30.771       23.653       21.875      946.862      559.474      478.522        0.429        0.099       81.207       20.384        0.063      335.469        6.124      860.151
10/12/2013  04:15:00     -123.713      -22.687       -2.595       40.760       36.690       23.389     1661.351     1346.137      547.059        0.969        0.178      125.776       20.908        0.028      335.374        5.965      860.172
10/12/2013  04:16:00      -99.119      -16.113        4.213       73.721       43.836       27.105     5434.787     1921.621      734.687        0.909        0.405      100.421       34.439        0.118      335.262        5.779      860.200
10/12/2013  04:17:00     -160.882      -21.498      -19.635       40.640       30.150       21.706     1651.585      909.006      471.135        1.488        0.152      162.312       18.675        0.013      335.276        5.801      860.222
10/12/2013  04:18:00     -139.318      -33.206      -15.792       37.254       42.892       22.582     1387.878     1839.743      509.931        1.225        0.187      143.220       17.421        0.015      335.319        5.873      860.238
10/12/2013  04:19:00     -129.591       -0.847      -17.269       30.152       31.565       23.009      909.154      996.329      529.410        0.976        0.122      129.593       12.037        0.009      335.336        5.902      860.238
10/12/2013  04:20:00      -78.610      -19.256       -3.445       29.924       30.331       18.576      895.470      919.984      345.058        0.436        0.108       80.934       15.548        0.037      335.346        5.917      860.221
10/12/2013  04:21:00     -126.643      -21.460      -13.397       44.868       30.414       18.739     2013.115      925.007      351.132        0.998        0.164      128.448       16.508        0.017      335.346        5.918      860.208
10/12/2013  04:22:00     -175.861      -38.470      -17.023       70.317       39.264       28.162     4944.432     1541.624      793.090        1.999        0.364      180.020       34.746        0.037      335.256        5.765      860.194
10/12/2013  04:23:00     -129.014      -62.390       -3.931       42.214       33.993       23.563     1782.029     1155.548      555.236        1.202        0.175      143.308       19.574        0.019      335.218        5.705      860.190
10/12/2013  04:24:00      -95.940      -34.679        0.657       41.695       50.256       24.688     1738.442     2525.622      609.502        0.764        0.244      102.015       18.850        0.034      335.136        5.571      860.181
10/12/2013  04:25:00     -133.624      -16.280      -13.299       25.430       29.632       18.519      646.679      878.067      342.938        1.008        0.093      134.612       13.750        0.010      335.114        5.533      860.172
10/12/2013  04:26:00     -138.179      -17.115       -9.338       39.625       34.055       20.076     1570.126     1159.750      403.032        1.130        0.157      139.235       19.547        0.020      335.074        5.469      860.178
10/12/2013  04:27:00     -142.251       -7.822      -10.764       43.062       29.008       23.522     1854.296      841.464      553.289        1.183        0.162      142.466       25.572        0.032      334.994        5.335      860.184
10/12/2013  04:28:00     -133.958       -8.011       -8.667       40.814       29.576       25.239     1665.802      874.737      636.998        1.063        0.159      134.197       23.190        0.030      334.992        5.330      860.171
10/12/2013  04:29:00     -144.833        3.752       -8.491       49.260       26.773       25.236     2426.538      716.781      636.850        1.242        0.189      144.881       27.367        0.036      334.985        5.319      860.167
10/12/2013  04:30:00     -116.126      -15.760       -1.590       38.807       25.125       24.445     1505.982      631.249      597.566        0.823        0.137      117.191       21.809        0.035      334.972        5.298      860.171
10/12/2013  04:31:00      -95.590       -7.478       -2.561       36.792       21.996       19.314     1353.620      483.836      373.043        0.570        0.111       95.882       21.144        0.049      335.002        5.348      860.167
10/12/2013  04:32:00     -107.052      -17.443      -11.583       14.910       13.101       12.273      222.296      171.630      150.635        0.622        0.027      108.464        7.017        0.004      335.113        5.532      860.151
10/12/2013  04:33:00      -72.947      -30.883       -7.146       11.893       15.548       10.027      141.454      241.739      100.537        0.340        0.024       79.215        6.645        0.007      335.166        5.617      860.139
10/12/2013  04:34:00      -77.654      -41.132       -9.766       13.132       18.075        9.861      172.458      326.719       97.233        0.421        0.030       87.875        8.061        0.008      335.240        5.741      860.133
10/12/2013  04:35:00      -76.018      -25.166       -9.758       16.966       16.996       12.050      287.854      288.849      145.209        0.361        0.036       80.076        5.021        0.004      335.323        5.879      860.119
10/12/2013  04:36:00      -95.348      -11.861      -17.089       15.038       12.424        8.127      226.133      154.345       66.044        0.499        0.022       96.083        4.884        0.003      335.244        5.748      860.104
10/12/2013  04:37:00     -124.816      -31.339      -24.065       13.958       18.351        9.756      194.823      336.748       95.179        0.888        0.031      128.691        8.398        0.004      335.178        5.641      860.098
10/12/2013  04:38:00     -103.476      -57.323      -15.262       21.718       23.462       12.511      471.679      550.479      156.521        0.770        0.059      118.293       11.488        0.009      335.172        5.629      860.092
10/12/2013  04:39:00     -104.015      -24.463       -2.250       53.441       25.519       25.124     2855.944      651.224      631.191        0.778        0.207      106.853       26.484        0.061      335.101        5.511      860.082
10/12/2013  04:40:00      -60.982      -23.592       -4.495       33.907       25.871       17.634     1149.716      669.296      310.953        0.321        0.106       65.386       15.436        0.056      335.059        5.442      860.077
10/12/2013  04:41:00      -60.773      -30.205       -7.193       20.925       27.112       11.827      437.844      735.069      139.869        0.298        0.066       67.865        9.321        0.019      335.144        5.583      860.063
10/12/2013  04:42:00      -47.003      -18.384      -10.191       27.767       13.674       11.368      770.992      186.978      129.235        0.187        0.054       50.470        8.441        0.028      335.128        5.557      860.052
10/12/2013  04:43:00      -78.184      -23.443       -9.126       11.875       17.635       10.334      141.025      310.999      106.792        0.365        0.028       81.623        4.993        0.004      335.163        5.614      860.060
10/12/2013  04:44:00      -92.784      -48.133      -10.644       16.823       13.081        8.765      283.027      171.117       76.825        0.578        0.027      104.526        6.035        0.003      335.234        5.731      860.048
10/12/2013  04:45:00      -93.152      -30.766      -16.222       11.353        8.534        7.234      128.885       72.824       52.325        0.507        0.013       98.101        3.961        0.002      335.281        5.809      860.036
10/12/2013  04:46:00      -99.249      -34.914       -8.414       18.040       22.899        8.753      325.459      524.379       76.620        0.603        0.046      105.211        7.302        0.005      335.387        5.986      860.035
10/12/2013  04:47:00     -144.427      -50.214      -17.307       21.801       15.480       12.384      475.302      239.617      153.366        1.227        0.043      152.907       11.545        0.006      335.111        5.528      860.023
10/12/2013  04:48:00      -84.874      -41.069       -4.896       18.975       12.193        9.659      360.033      148.670       93.300        0.476        0.030       94.289       10.660        0.013      335.220        5.709      860.009
10/12/2013  04:49:00      -74.181      -36.178       -0.108       23.099       12.226       10.357      533.562      149.470      107.277        0.380        0.040       82.533        7.638        0.009      335.400        6.008      860.002
10/12/2013  04:50:00      -84.992      -18.963       -9.287       11.506       15.182        9.058      132.378      230.504       82.053        0.406        0.022       87.082        6.363        0.005      335.485        6.149      860.008
10/12/2013  04:51:00     -138.711      -22.692      -19.073       20.960       20.832       13.602      439.314      433.985      185.004        1.059        0.053      140.555       11.355        0.007      335.240        5.740      860.011
10/12/2013  04:52:00     -128.603      -16.326      -17.716       13.926       21.239       12.775      193.940      451.112      163.192        0.896        0.040      129.635       11.186        0.007      335.228        5.721      860.018
10/12/2013  04:53:00     -104.480      -13.746      -11.630       37.470       22.726       19.986     1404.010      516.472      399.453        0.678        0.116      105.380       19.881        0.036      335.113        5.533      860.018
10/12/2013  04:54:00      -59.353      -35.028        5.942       42.574       28.359       21.662     1812.558      804.229      469.256        0.393        0.154       68.918       21.606        0.098      335.066        5.455      860.018
10/12/2013  04:55:00      -55.513      -54.219       -0.803       35.281       28.758       21.771     1244.743      827.045      473.955        0.428        0.127       77.598       23.131        0.089      335.143        5.583      860.024
10/12/2013  04:56:00      -81.988      -58.208       -8.002       26.901       19.783       16.523      723.671      391.363      273.009        0.578        0.069      100.550       17.338        0.030      335.239        5.740      860.039
10/12/2013  04:57:00     -134.453      -72.110      -12.920       21.509       25.133       11.486      462.635      631.644      131.931        1.234        0.061      152.570        7.783        0.003      335.195        5.668      860.047
10/12/2013  04:58:00     -149.916      -61.507        1.884       44.860       42.396       25.431     2012.444     1797.404      646.747        1.536        0.223      162.043       21.821        0.018      335.041        5.413      860.058
10/12/2013  04:59:00     -124.633      -41.784       -0.217       52.767       24.774       20.455     2784.332      613.732      418.420        1.055        0.191      131.451       23.699        0.033      335.051        5.428      860.069
10/12/2013  05:00:00     -133.700      -11.864       -3.626       42.575       25.515       22.021     1812.601      651.039      484.914        1.049        0.147      134.226       23.316        0.030      334.954        5.267      860.081
10/12/2013  05:01:00     -124.541       -5.112       -4.170       47.008       25.438       28.356     2209.719      647.092      804.046        0.961        0.183      124.646       30.338        0.059      334.869        5.126      860.076
10/12/2013  05:02:00     -151.168       17.038       -4.760       47.806       35.688       23.005     2285.399     1273.657      529.228        1.363        0.204      152.125       15.333        0.010      334.992        5.330      860.070
10/12/2013  05:03:00     -174.260       19.576      -18.774       50.975       38.297       21.089     2598.409     1466.638      444.765        1.781        0.225      175.356       21.143        0.015      334.963        5.282      860.068
10/12/2013  05:04:00     -149.178       32.945      -16.241       43.631       34.424       22.674     1903.669     1184.983      514.094        1.360        0.180      152.773       16.871        0.012      335.078        5.474      860.066
10/12/2013  05:05:00     -151.370       30.156      -19.931       57.486       45.681       26.251     3304.627     2086.733      689.094        1.515        0.304      154.345       19.649        0.016      335.121        5.544      860.066
10/12/2013  05:06:00     -183.122       40.759      -16.806       43.781       31.305       24.392     1916.810      980.019      594.950        1.948        0.175      187.603       14.068        0.006      335.210        5.692      860.077
10/12/2013  05:07:00     -133.634       25.713      -18.193       51.217       30.908       20.884     2623.212      955.307      436.158        1.143        0.201      136.085       20.398        0.022      335.273        5.796      860.065
10/12/2013  05:08:00     -163.293       20.986       -9.358       35.696       30.488       21.713     1274.224      929.506      471.470        1.493        0.134      164.636       20.171        0.015      335.469        6.122      860.062
10/12/2013  05:09:00     -137.132       14.450      -14.136       39.476       35.030       20.960     1558.364     1227.134      439.311        1.122        0.161      137.891       15.068        0.012      335.255        5.766      860.070
10/12/2013  05:10:00     -170.827       16.349      -18.731       44.349       28.540       23.743     1966.797      814.525      563.737        1.657        0.167      171.608       17.446        0.010      335.248        5.756      860.084
10/12/2013  05:11:00     -155.938       20.131      -18.864       29.333       25.402       17.001      860.411      645.250      289.029        1.344        0.090      157.232       13.441        0.007      335.179        5.642      860.083
10/12/2013  05:12:00     -158.700       26.082      -16.208       29.373       25.330       14.653      862.788      641.593      214.706        1.392        0.086      160.829       11.711        0.005      335.224        5.716      860.100
10/12/2013  05:13:00     -109.983        7.035      -10.440       41.114       26.041       16.779     1690.385      678.120      281.527        0.745        0.133      110.207       14.976        0.018      335.289        5.824      860.108
10/12/2013  05:14:00      -89.821       14.946       -8.066       35.479       26.096       19.868     1258.724      681.027      394.730        0.534        0.117       91.056       19.574        0.046      335.302        5.845      860.102
10/12/2013  05:15:00      -96.495      -26.915       -4.129       31.563       37.656       19.711      996.205     1417.953      388.505        0.643        0.140      100.179       15.009        0.022      335.263        5.779      860.109
10/12/2013  05:16:00      -75.025      -13.358       -0.974       45.461       26.865       20.847     2066.699      721.721      434.593        0.451        0.161       76.205       19.868        0.068      335.182        5.646      860.105
10/12/2013  05:17:00      -93.780        1.524       -8.429       28.261       24.719       15.564      798.682      611.027      242.223        0.526        0.083       93.793       14.818        0.025      335.140        5.577      860.089
10/12/2013  05:18:00     -101.628       -8.238      -11.272       34.185       23.277       19.711     1168.606      541.800      388.507        0.631        0.105      101.962       17.581        0.030      335.067        5.455      860.081
10/12/2013  05:19:00      -89.867      -29.175       -4.086       27.211       21.676       16.867      740.423      469.846      284.491        0.522        0.075       94.484       16.632        0.031      335.099        5.508      860.089
10/12/2013  05:20:00      -86.299      -22.957      -10.413       18.258       17.798       10.214      333.358      316.779      104.335        0.442        0.038       89.300        6.909        0.006      335.183        5.647      860.087
10/12/2013  05:21:00      -69.431       -8.038      -13.327       20.442       14.469       12.659      417.865      209.366      160.258        0.292        0.039       69.894        5.131        0.005      335.138        5.574      860.083
10/12/2013  05:22:00      -85.661       -6.393      -11.273       12.860       11.543        9.568      165.376      133.229       91.548        0.395        0.020       85.899        6.973        0.007      335.208        5.686      860.091
10/12/2013  05:23:00      -80.826      -25.451       -9.952        9.310        8.769        9.331       86.680       76.894       87.076        0.377        0.013       84.739        4.302        0.003      335.227        5.719      860.086
10/12/2013  05:24:00      -66.989      -26.309      -10.963       16.377       16.732       11.705      268.219      279.944      137.013        0.299        0.034       71.970       10.379        0.021      335.244        5.748      860.079
10/12/2013  05:25:00      -91.913      -41.304      -12.771       23.770       13.511       10.519      565.023      182.556      110.646        0.559        0.043      100.767        9.183        0.008      335.189        5.659      860.092
10/12/2013  05:26:00      -85.838      -32.461       -7.289       21.203       19.594       14.342      449.568      383.916      205.694        0.476        0.052       91.771       10.981        0.014      335.196        5.668      860.096
10/12/2013  05:27:00     -109.527      -21.307      -13.157       23.051       15.613       13.853      531.369      243.775      191.894        0.679        0.048      111.580       12.077        0.012      335.113        5.532      860.096
10/12/2013  05:28:00      -84.322       -4.997       -4.749       46.289       27.821       19.042     2142.688      773.989      362.595        0.522        0.164       84.470       21.066        0.062      335.145        5.584      860.101
10/12/2013  05:29:00     -118.202        4.989       -9.971       42.902       28.920       22.702     1840.604      836.395      515.392        0.864        0.160      118.307       22.736        0.037      335.194        5.666      860.110
10/12/2013  05:30:00     -126.941      -15.887      -12.953       41.070       21.684       18.675     1686.734      470.179      348.741        0.952        0.125      127.932       17.831        0.019      335.204        5.681      860.126
10/12/2013  05:31:00     -112.197       10.951       -7.926       45.617       26.708       18.319     2080.883      713.307      335.588        0.795        0.156      112.730        8.254        0.005      335.207        5.687      860.131
10/12/2013  05:32:00     -149.879       31.861       -8.603       18.661       19.544       15.514      348.235      381.983      240.699        1.226        0.049      153.228       10.232        0.004      335.264        5.782      860.127
10/12/2013  05:33:00     -143.505        3.007      -12.441       24.642       21.597       11.580      607.211      466.424      134.090        1.098        0.060      143.537        5.919        0.002      335.213        5.697      860.131
10/12/2013  05:34:00      -83.692      -10.777      -12.755       36.579       21.938       16.612     1338.006      481.284      275.947        0.469        0.105       84.383       13.413        0.025      335.172        5.630      860.136
10/12/2013  05:35:00      -72.913       -3.897       -5.093       46.041       24.031       20.101     2119.777      577.491      404.055        0.423        0.155       73.017       19.764        0.073      335.128        5.557      860.139
10/12/2013  05:36:00     -142.896        3.651      -12.427       38.598       30.942       18.925     1489.780      957.402      358.168        1.170        0.140      142.943       15.240        0.011      335.134        5.567      860.146
10/12/2013  05:37:00     -145.890      -15.728       -8.447       47.892       28.822       22.847     2293.680      830.708      522.002        1.262        0.182      146.736       27.594        0.035      335.125        5.551      860.148
10/12/2013  05:38:00     -117.202      -15.891       -2.811       29.317       27.428       18.155      859.484      752.305      329.622        0.797        0.097      118.274       12.115        0.010      335.136        5.571      860.149
10/12/2013  05:39:00      -76.068      -23.099       -1.116       40.168       42.653       22.576     1613.494     1819.282      509.655        0.513        0.197       79.498       21.502        0.073      335.082        5.480      860.153
10/12/2013  05:40:00      -54.747      -15.630        1.761       42.457       25.650       21.240     1802.585      657.944      451.127        0.308        0.146       56.935       15.685        0.076      335.040        5.412      860.154
10/12/2013  05:41:00      -65.002       -6.221       -2.371       39.459       27.693       23.537     1557.024      766.881      553.968        0.357        0.144       65.299       23.367        0.128      335.053        5.432      860.150
10/12/2013  05:42:00      -90.888        0.079      -10.504       35.496       31.353       19.253     1259.950      982.997      370.682        0.549        0.131       90.888       15.127        0.028      335.033        5.401      860.151
10/12/2013  05:43:00      -61.365      -23.619        1.583       40.553       33.148       23.040     1644.530     1098.760      530.856        0.380        0.164       65.753       25.894        0.155      334.965        5.287      860.148
10/12/2013  05:44:00      -51.147      -15.119        0.956       34.988       28.897       17.390     1224.158      835.064      302.413        0.260        0.118       53.335       16.492        0.096      335.021        5.380      860.152
10/12/2013  05:45:00      -82.770      -39.710       -4.809       41.023       31.422       20.430     1682.857      987.327      417.392        0.577        0.154       91.802       19.895        0.047      335.100        5.509      860.161
10/12/2013  05:46:00     -102.196        3.816       -1.264       34.478       28.728       21.342     1188.711      825.292      455.499        0.646        0.123      102.267       19.745        0.037      334.979        5.308      860.169
10/12/2013  05:47:00     -175.241       24.261      -12.572       43.762       36.969       21.117     1915.137     1366.727      445.918        1.759        0.186      176.913       21.737        0.015      335.057        5.438      860.179
10/12/2013  05:48:00     -120.581      -24.133      -10.366       61.664       33.567       26.467     3802.414     1126.755      700.528        1.043        0.281      122.973       32.252        0.069      335.029        5.392      860.186
10/12/2013  05:49:00      -74.162      -29.214       -0.935       34.580       51.096       21.429     1195.810     2610.851      459.190        0.531        0.213       79.709       16.202        0.041      334.992        5.331      860.192
10/12/2013  05:50:00      -76.106       -3.051       -0.559       51.140       33.916       20.030     2615.271     1150.317      401.208        0.498        0.208       76.167       22.271        0.085      335.017        5.373      860.204
10/12/2013  05:51:00     -120.131       -6.639       -8.311       48.072       34.197       18.293     2310.891     1169.455      334.627        0.918        0.191      120.314       12.465        0.011      335.046        5.421      860.216
10/12/2013  05:52:00     -139.582      -11.826      -14.320       38.314       25.265       19.354     1467.979      638.306      374.588        1.115        0.124      140.082       19.254        0.019      335.047        5.424      860.234
10/12/2013  05:53:00     -121.200        4.211      -10.177       47.349       25.383       24.728     2241.969      644.305      611.450        0.915        0.175      121.274       26.612        0.048      335.052        5.431      860.239
10/12/2013  05:54:00     -157.437      -12.824      -18.456       36.975       24.301       22.280     1367.145      590.552      496.420        1.387        0.123      157.958       14.368        0.008      335.059        5.443      860.240
10/12/2013  05:55:00     -116.096        1.378       -5.543       42.624       28.201       18.962     1816.829      795.319      359.570        0.824        0.149      116.104       21.235        0.033      335.026        5.389      860.229
10/12/2013  05:56:00      -98.152       -8.790       -7.626       26.331       32.980       18.465      693.348     1087.668      340.961        0.595        0.106       98.545       15.547        0.025      335.032        5.397      860.215
10/12/2013  05:57:00      -95.710      -14.148       -6.511       33.166       28.154       19.280     1099.985      792.637      371.710        0.583        0.113       96.750       17.858        0.034      335.059        5.442      860.200
10/12/2013  05:58:00      -84.694       -8.806       -5.370       38.927       33.334       15.701     1515.335     1111.149      246.526        0.508        0.144       85.150        9.456        0.012      335.046        5.419      860.183
10/12/2013  05:59:00     -128.751       18.948      -13.633       25.178       21.638       15.457      633.925      468.219      238.929        0.923        0.067      130.138       11.526        0.008      335.188        5.654      860.167
10/12/2013  06:00:00      -94.693      -12.293       -2.580       33.717       34.979       16.989     1136.815     1223.550      288.618        0.589        0.132       95.487       16.395        0.029      335.185        5.650      860.145
10/12/2013  06:01:00      -53.838      -40.372       -0.152       32.578       24.533       12.710     1061.338      601.863      161.548        0.318        0.091       67.294       10.937        0.026      335.196        5.668      860.130
10/12/2013  06:02:00      -44.847      -54.553        5.824       34.650       25.746       19.754     1200.646      662.837      390.214        0.364        0.113       70.620       19.359        0.075      335.209        5.690      860.129
10/12/2013  06:03:00      -54.563      -25.981        2.578       39.886       20.712       13.314     1590.866      428.997      177.267        0.293        0.110       60.433       16.629        0.076      335.136        5.570      860.127
10/12/2013  06:04:00      -33.282      -26.796        4.905       29.446       19.597       13.636      867.065      384.039      185.948        0.164        0.072       42.728       16.458        0.148      335.175        5.633      860.136
10/12/2013  06:05:00      -65.670      -40.672       -2.180       43.344       20.454       14.053     1878.710      418.376      197.492        0.423        0.125       77.245       16.894        0.048      335.225        5.717      860.148
10/12/2013  06:06:00     -101.132      -17.318       -6.559       19.325       19.386       12.620      373.464      375.825      159.260        0.574        0.045      102.604       11.115        0.012      335.261        5.776      860.161
10/12/2013  06:07:00     -107.316      -12.697       -9.906       24.681       16.389       14.558      609.144      268.606      211.941        0.643        0.054      108.064        9.771        0.008      335.261        5.776      860.161
10/12/2013  06:08:00      -84.500      -52.566        1.451       46.086       25.817       20.516     2123.948      666.525      420.917        0.656        0.161       99.516       20.136        0.041      335.227        5.719      860.164
10/12/2013  06:09:00      -80.203      -58.454        1.388       34.339       31.982       22.970     1179.173     1022.867      527.627        0.629        0.136       99.244       17.216        0.030      335.109        5.524      860.162
10/12/2013  06:10:00     -138.029      -82.116       -3.489       35.144       28.635       26.102     1235.118      819.956      681.340        1.427        0.137      160.609       18.041        0.013      335.032        5.397      860.167
10/12/2013  06:11:00      -91.827      -69.325        2.724       55.241       39.674       29.874     3051.597     1573.990      892.459        0.938        0.276      115.058       31.704        0.076      334.984        5.318      860.181
10/12/2013  06:12:00     -117.978      -67.089        0.033       45.385       45.465       22.420     2059.786     2067.043      502.658        1.152        0.231      135.720       24.395        0.032      334.952        5.264      860.182
10/12/2013  06:13:00      -62.473      -31.015        0.317       40.602       31.513       15.631     1648.496      993.086      244.327        0.387        0.144       69.748       11.449        0.027      334.944        5.251      860.165
10/12/2013  06:14:00      -59.942      -33.592        4.057       48.255       24.555       19.601     2328.561      602.945      384.205        0.403        0.166       68.713       18.968        0.076      334.956        5.272      860.157
10/12/2013  06:15:00      -52.603      -54.745        3.452       33.162       32.947       18.940     1099.709     1085.522      358.716        0.416        0.127       75.921       19.238        0.064      334.969        5.291      860.152
10/12/2013  06:16:00      -87.791      -47.484       -3.412       37.804       20.036       13.119     1429.157      401.434      172.099        0.599        0.100       99.810       15.256        0.023      334.974        5.300      860.137
10/12/2013  06:17:00      -67.123      -20.813       -1.959       24.896       19.843       17.933      619.798      393.740      321.584        0.314        0.067       70.276       15.048        0.046      334.911        5.196      860.127
10/12/2013  06:18:00      -81.298      -42.371       -9.266       10.641       13.063       10.265      113.227      170.633      105.367        0.444        0.019       91.677        6.299        0.005      334.914        5.199      860.127
10/12/2013  06:19:00      -98.259      -47.613       -4.593       15.694       15.616       12.615      246.311      243.846      159.147        0.630        0.032      109.187       11.034        0.010      334.912        5.198      860.129
10/12/2013  06:20:00      -25.997      -23.950       10.442       32.912       17.280       16.932     1083.224      298.585      286.687        0.151        0.083       35.348       16.682        0.223      334.878        5.142      860.136
10/12/2013  06:21:00      -40.217      -22.279       -1.840       27.129       16.468       16.761      735.996      271.184      280.924        0.170        0.064       45.976       15.277        0.110      334.933        5.233      860.133
10/12/2013  06:22:00      -63.774      -29.393        0.633       26.528       18.302       14.557      703.742      334.953      211.908        0.309        0.063       70.222       13.594        0.037      334.937        5.239      860.119
10/12/2013  06:23:00      -88.142      -25.534       -5.969       15.156       16.998       14.304      229.707      288.930      204.617        0.459        0.036       91.766        9.294        0.010      334.907        5.189      860.100
10/12/2013  06:24:00      -87.032      -35.352       -7.077       10.924       12.667        9.957      119.325      160.460       99.142        0.463        0.019       93.938        6.635        0.005      334.815        5.037      860.094
10/12/2013  06:25:00     -118.503      -48.096      -13.749       13.833       20.024       10.383      191.350      400.972      107.811        0.862        0.035      127.892        6.041        0.002      334.777        4.972      860.099
10/12/2013  06:26:00      -59.470      -35.750        6.940       38.999       33.935       19.104     1520.890     1151.594      364.955        0.395        0.152       69.389       17.032        0.060      334.739        4.911      860.095
10/12/2013  06:27:00      -42.298      -23.700       10.004       36.459       24.570       19.423     1329.289      603.690      377.242        0.238        0.116       48.486       22.022        0.206      334.722        4.882      860.085
10/12/2013  06:28:00      -25.690      -16.737       10.706       51.596       21.711       17.533     2662.185      471.347      307.414        0.225        0.172       30.661       20.406        0.443      334.747        4.923      860.076
10/12/2013  06:29:00      -71.396      -27.465        6.278       56.620       25.343       15.212     3205.870      642.257      231.405        0.498        0.204       76.497       18.093        0.056      334.793        5.001      860.065
10/12/2013  06:30:00     -110.060      -43.742        2.568       37.419       23.193       20.121     1400.217      537.911      404.862        0.819        0.117      118.433       18.901        0.025      334.715        4.870      860.059
10/12/2013  06:31:00     -109.355      -47.047        0.465       49.438       25.821       20.444     2444.143      666.741      417.963        0.885        0.176      119.046       20.083        0.028      334.707        4.856      860.071
10/12/2013  06:32:00      -53.030      -45.526        8.240       50.038       34.098       24.296     2503.821     1162.702      590.282        0.460        0.213       69.891       23.490        0.113      334.707        4.857      860.078
10/12/2013  06:33:00     -110.903      -74.668       -1.345       40.521       34.953       22.827     1641.950     1221.682      521.085        1.063        0.169      133.697       19.624        0.022      334.728        4.891      860.092
10/12/2013  06:34:00     -102.926      -57.764       -8.538       29.700       24.246       16.401      882.099      587.849      268.985        0.787        0.087      118.027        7.474        0.004      334.675        4.805      860.106
10/12/2013  06:35:00      -45.124      -26.579        5.130       23.529       23.154       13.260      553.633      536.117      175.834        0.202        0.063       52.370       12.256        0.055      334.690        4.829      860.115
10/12/2013  06:36:00      -76.769        6.683       -6.714       25.066       14.953       15.397      628.285      223.594      237.066        0.354        0.054       77.059       13.001        0.028      334.563        4.618      860.131
10/12/2013  06:37:00     -108.332       -4.221       -6.226       39.981       24.785       21.191     1598.478      614.298      449.059        0.723        0.133      108.414       24.208        0.050      334.435        4.406      860.143
10/12/2013  06:38:00      -89.287       -8.267       -4.486       34.731       22.064       21.346     1206.258      486.838      455.635        0.510        0.107       89.669       21.504        0.058      334.332        4.236      860.159
10/12/2013  06:39:00     -110.263      -21.576       -9.873       25.531       19.194       15.774      651.847      368.403      248.828        0.699        0.063      112.354       14.156        0.016      334.395        4.341      860.176
10/12/2013  06:40:00      -94.939      -36.244      -10.937       29.269       25.916       16.998      856.665      671.639      288.929        0.613        0.091      101.622       11.202        0.012      334.483        4.486      860.190
10/12/2013  06:41:00      -68.022      -42.533       -5.839       27.640       20.720       13.690      763.959      429.328      187.406        0.393        0.069       80.225       13.465        0.028      334.547        4.591      860.198
10/12/2013  06:42:00      -11.478      -26.163        9.368       17.886       13.883       12.971      319.903      192.730      168.250        0.079        0.034       28.570        8.946        0.098      334.516        4.540      860.185
10/12/2013  06:43:00       -4.978      -19.372       -0.807       18.594       31.961        9.011      345.747     1021.516       81.202        0.092        0.072       20.002       12.597        0.397      334.613        4.701      860.165
10/12/2013  06:44:00      -13.284      -27.976        3.391       30.508       40.648       18.948      930.745     1652.262      359.026        0.196        0.147       30.970       15.698        0.257      334.624        4.720      860.166
10/12/2013  06:45:00      -40.850      -43.637       -3.374       45.744       25.006       16.563     2092.483      625.289      274.322        0.329        0.150       59.774       19.582        0.107      334.648        4.760      860.172
10/12/2013  06:46:00      -91.432      -45.646        9.485       45.731       41.281       24.317     2091.291     1704.082      591.336        0.746        0.219      102.193       20.847        0.042      334.446        4.424      860.170
10/12/2013  06:47:00      -95.186      -85.318       -8.097       30.232       19.987       18.799      913.999      399.474      353.385        0.904        0.083      127.826        9.249        0.005      334.347        4.260      860.168
10/12/2013  06:48:00     -101.564      -66.599       -8.563       18.389       22.047       16.665      338.172      486.090      277.716        0.796        0.055      121.452       12.919        0.011      334.320        4.217      860.178
10/12/2013  06:49:00      -27.672      -29.812        1.801       42.283       18.432       15.945     1787.859      339.750      254.232        0.202        0.119       40.675       10.556        0.067      334.335        4.240      860.197
10/12/2013  06:50:00      -55.543      -34.573       -1.609       25.205       20.617       17.242      635.296      425.055      297.303        0.282        0.068       65.425       13.892        0.045      334.398        4.345      860.216
10/12/2013  06:51:00      -50.009      -45.519        5.238       44.456       21.688       16.209     1976.310      470.363      262.745        0.365        0.135       67.623       13.282        0.039      334.400        4.348      860.239
10/12/2013  06:52:00      -30.873      -67.109       10.460       29.379       33.915       23.550      863.112     1150.215      554.621        0.407        0.128       73.870       20.936        0.080      334.440        4.414      860.262
10/12/2013  06:53:00      -57.084      -66.559       -7.682       22.523       30.104       15.692      507.292      906.227      246.244        0.470        0.083       87.685       10.377        0.014      334.493        4.501      860.279
10/12/2013  06:54:00      -25.240      -57.251        0.297       26.229       32.329       15.534      687.959     1045.192      241.293        0.294        0.099       62.568        9.695        0.024      334.522        4.551      860.288
10/12/2013  06:55:00      -33.167      -24.471        1.623       29.618       28.645       19.392      877.220      820.526      376.056        0.189        0.104       41.218       20.772        0.254      334.433        4.403      860.286
10/12/2013  06:56:00      -24.117      -19.238        6.211       29.621       15.826       16.966      877.382      250.447      287.854        0.120        0.071       30.850        8.107        0.069      334.422        4.386      860.279
10/12/2013  06:57:00      -47.805      -35.740        0.206       35.332       25.728       11.764     1248.341      661.945      138.394        0.281        0.102       59.688       13.610        0.052      334.465        4.458      860.282
10/12/2013  06:58:00      -65.332      -24.813       -2.556       19.582       23.742       13.360      383.472      563.669      178.481        0.301        0.056       69.885        8.509        0.015      334.424        4.386      860.280
10/12/2013  06:59:00      -66.342      -35.617       -1.732       21.120       16.910       11.533      446.055      285.942      133.005        0.327        0.043       75.298        9.576        0.016      334.412        4.369      860.287
10/12/2013  07:00:00      -58.175      -41.564      -10.603       32.914       15.672       13.962     1083.312      245.618      194.929        0.337        0.076       71.497       13.600        0.036      334.435        4.407      860.297
10/12/2013  07:01:00      -44.701      -25.047       -2.986       20.827       17.129       15.643      433.747      293.419      244.698        0.180        0.049       51.240       14.232        0.077      334.365        4.291      860.304
10/12/2013  07:02:00      -32.426      -25.349        7.942       35.690       22.759       17.338     1273.747      517.974      300.605        0.192        0.105       41.159       18.655        0.205      334.369        4.298      860.315
10/12/2013  07:03:00      -58.027      -34.969        4.488       37.376       32.604       19.434     1396.957     1063.042      377.684        0.372        0.142       67.749       17.518        0.067      334.397        4.343      860.336
10/12/2013  07:04:00      -76.463      -65.835        1.033       39.533       30.693       24.184     1562.868      942.059      584.868        0.664        0.154      100.900       16.409        0.026      334.411        4.367      860.359
10/12/2013  07:05:00      -40.267      -31.000        7.614       33.355       34.025       19.402     1112.536     1157.682      376.420        0.264        0.132       50.818       16.575        0.106      334.343        4.252      860.384
10/12/2013  07:06:00      -31.052      -22.649        6.104       27.257       18.010       17.519      742.935      324.359      306.912        0.144        0.069       38.434       17.529        0.208      334.446        4.424      860.371
10/12/2013  07:07:00       -8.116      -22.601        4.033       17.892       19.973       12.918      320.140      398.915      166.884        0.074        0.044       24.014        8.789        0.134      334.492        4.501      860.344
10/12/2013  07:08:00        1.180       -0.528        7.787       17.307       15.808       10.784      299.533      249.902      116.298        0.036        0.033        1.292       10.791       69.716      334.484        4.488      860.316
10/12/2013  07:09:00       -2.327        2.083        0.201       11.999        8.202        5.384      143.977       67.268       28.992        0.012        0.012        3.123        5.842        3.500      334.483        4.487      860.310
10/12/2013  07:10:00      -54.443      -23.662        3.235       25.202       18.640       13.998      635.144      347.446      195.955        0.236        0.059       59.362        9.986        0.028      334.495        4.506      860.329
10/12/2013  07:11:00     -107.664      -59.268        2.409       38.835       32.492       24.508     1508.179     1055.720      600.638        0.914        0.158      122.899       20.145        0.027      334.362        4.284      860.349
10/12/2013  07:12:00     -105.820      -36.535        0.650       37.550       30.972       18.491     1409.971      959.260      341.924        0.762        0.136      111.950       13.925        0.015      334.257        4.110      860.364
10/12/2013  07:13:00      -91.303      -36.296        2.799       32.663       20.888       13.177     1066.845      436.324      173.629        0.567        0.084       98.253       15.123        0.024      334.239        4.080      860.373
10/12/2013  07:14:00     -109.344      -31.667       -5.281       22.087       18.822       16.975      487.820      354.284      288.141        0.706        0.057      113.837        7.855        0.005      334.129        3.898      860.384
10/12/2013  07:15:00      -93.756      -29.902       -1.501       45.404       28.153       17.277     2061.478      792.577      298.505        0.642        0.158       98.409       22.082        0.050      334.057        3.779      860.400
10/12/2013  07:16:00      -80.402       11.266       -4.747       36.919       28.347       18.571     1363.033      803.561      344.875        0.456        0.126       81.188       17.332        0.046      334.034        3.740      860.397
10/12/2013  07:17:00      -83.258       -9.972       -3.208       30.650       26.299       19.576      939.394      691.658      383.224        0.453        0.101       83.853       18.692        0.050      334.051        3.769      860.399
10/12/2013  07:18:00     -109.699      -21.301       -1.979       33.315       23.547       17.744     1109.918      554.468      314.833        0.723        0.099      111.748       17.409        0.024      334.068        3.796      860.406
10/12/2013  07:19:00     -113.411      -23.965       -4.955       23.739       19.205       15.766      563.542      368.843      248.568        0.732        0.059      115.915       13.777        0.014      334.116        3.878      860.409
10/12/2013  07:20:00     -101.828      -11.459       -6.975       25.152       18.357       12.743      632.625      336.976      162.388        0.584        0.057      102.471        9.813        0.009      334.148        3.931      860.398
10/12/2013  07:21:00      -97.992        3.851      -14.102       21.079       16.056       13.420      444.344      257.787      180.109        0.535        0.044       98.068       10.847        0.012      334.153        3.938      860.387
10/12/2013  07:22:00      -75.791        7.887       -9.962       22.475       17.464       15.948      505.142      305.007      254.352        0.348        0.053       76.200        9.256        0.015      334.192        4.001      860.371
10/12/2013  07:23:00     -104.410        6.929       -9.447       21.410       13.196       11.286      458.380      174.129      127.378        0.590        0.038      104.640       10.548        0.010      334.336        4.242      860.379
10/12/2013  07:24:00     -105.956      -20.856      -11.612       16.830       16.230       11.968      283.250      263.423      143.232        0.624        0.034      107.989        9.071        0.007      334.400        4.348      860.399
10/12/2013  07:25:00      -87.109      -43.884      -10.386       20.262       16.092       13.069      410.534      258.958      170.809        0.523        0.042       97.538        4.261        0.002      334.357        4.277      860.413
10/12/2013  07:26:00      -63.198      -38.929       -6.264       10.487       11.085        9.009      109.971      122.876       81.169        0.293        0.016       74.226        6.462        0.008      334.408        4.363      860.425
10/12/2013  07:27:00      -59.831      -35.773       -7.924        9.766        6.271        6.943       95.371       39.330       48.202        0.255        0.009       69.710        3.591        0.003      334.447        4.427      860.436
10/12/2013  07:28:00      -59.387      -32.780       -4.046       20.459        8.233        8.943      418.555       67.785       79.971        0.259        0.028       67.833        3.493        0.003      334.427        4.392      860.445
10/12/2013  07:29:00     -101.972      -23.808       -8.964       14.627       13.485       11.544      213.956      181.845      133.268        0.579        0.026      104.714        6.428        0.004      334.354        4.272      860.458
10/12/2013  07:30:00      -54.084        4.910       -0.637       18.323       15.460       12.084      335.718      239.022      146.022        0.184        0.036       54.306        9.092        0.028      334.194        4.006      860.462
10/12/2013  07:31:00      -35.330      -12.658       -2.770       14.369       12.262        9.446      206.461      150.351       89.231        0.093        0.022       37.530        8.033        0.046      334.252        4.102      860.466
10/12/2013  07:32:00      -76.414      -22.713       -9.785       21.948       17.662        8.926      481.710      311.944       79.682        0.366        0.044       79.718        4.176        0.003      334.390        4.332      860.478
10/12/2013  07:33:00     -114.674      -19.493       -8.711       21.548       12.358       15.085      464.321      152.730      227.559        0.723        0.042      116.319       13.485        0.013      334.419        4.379      860.499
10/12/2013  07:34:00      -99.397      -15.310      -10.325       23.201       12.306       11.844      538.307      151.439      140.273        0.553        0.042      100.569        9.750        0.009      334.377        4.309      860.509
10/12/2013  07:35:00      -37.193       -3.930       -2.421       23.114       13.851       14.236      534.276      191.859      202.674        0.117        0.046       37.401       13.337        0.127      334.467        4.459      860.510
10/12/2013  07:36:00      -43.125       -5.063       -9.556       12.864       13.184        9.066      165.495      173.828       82.185        0.120        0.021       43.421        8.044        0.034      334.563        4.618      860.493
10/12/2013  07:37:00      -30.228      -31.715       -5.299       14.680       12.172        8.602      215.515      148.161       73.988        0.119        0.022       43.813        7.428        0.029      334.606        4.689      860.494
10/12/2013  07:38:00      -26.382      -11.688       -2.534       20.701       11.041        9.622      428.536      121.893       92.578        0.074        0.032       28.855        7.568        0.069      334.627        4.726      860.497
10/12/2013  07:39:00      -38.679       -3.333       -7.474       14.309        9.987       14.986      204.740       99.731      224.575        0.105        0.026       38.822        8.779        0.051      334.579        4.644      860.477
10/12/2013  07:40:00      -36.993       -7.293        1.417       18.978       16.294       19.122      360.168      265.501      365.652        0.121        0.050       37.705       15.799        0.176      334.565        4.622      860.455
10/12/2013  07:41:00      -20.679        3.210        2.280       10.791        7.529        8.020      116.450       56.689       64.319        0.034        0.012       20.927        4.683        0.050      334.657        4.776      860.447
10/12/2013  07:42:00       -4.794       18.143       -1.137        9.502       11.191        5.538       90.282      125.239       30.674        0.030        0.012       18.765        4.589        0.060      334.887        5.157      860.444
10/12/2013  07:43:00       -3.308       37.988        0.862       17.435       17.935       11.344      303.981      321.673      128.686        0.110        0.038       38.132        4.930        0.017      334.911        5.196      860.440
10/12/2013  07:44:00       16.232       81.552       -4.243       18.823       27.215       12.956      354.315      740.674      167.860        0.410        0.063       83.152       10.093        0.015      334.965        5.286      860.438
10/12/2013  07:45:00       30.160       57.776        0.024       21.534       35.070       23.025      463.713     1229.877      530.157        0.324        0.111       65.175       21.010        0.104      334.967        5.289      860.418
10/12/2013  07:46:00       42.341       28.458        5.903       26.475       18.014       19.716      700.945      324.516      388.712        0.203        0.071       51.016       11.783        0.053      334.952        5.264      860.415
10/12/2013  07:47:00       50.141       39.022        4.337       18.892       18.830       18.587      356.898      354.570      345.489        0.256        0.053       63.536       14.224        0.050      334.978        5.308      860.411
10/12/2013  07:48:00       79.424       38.016        0.874       16.269       15.808       15.099      264.679      249.908      227.980        0.425        0.037       88.054        6.581        0.006      334.957        5.272      860.427
10/12/2013  07:49:00       51.823       43.339       14.404       17.682       16.212       19.304      312.642      262.814      372.636        0.286        0.047       67.557       13.368        0.039      334.962        5.280      860.428
10/12/2013  07:50:00       26.210       38.624       32.692       20.023       18.188       14.210      400.908      330.812      201.931        0.209        0.047       46.677        6.408        0.019      335.073        5.465      860.437
10/12/2013  07:51:00       32.437       29.392       21.531       14.915       13.330       13.120      222.457      177.701      172.147        0.148        0.029       43.773        7.849        0.032      335.022        5.379      860.440
10/12/2013  07:52:00        9.294       11.579       23.998       11.688       10.768        4.996      136.621      115.958       24.958        0.054        0.014       14.848        5.621        0.143      335.275        5.799      860.449
10/12/2013  07:53:00        7.128       17.555       18.986        7.259       11.206        8.059       52.693      125.579       64.943        0.048        0.012       18.947        7.596        0.161      335.269        5.790      860.458
10/12/2013  07:54:00        8.441       15.791       14.712       12.558       16.573       14.208      157.694      274.663      201.870        0.059        0.032       17.905       13.205        0.544      335.323        5.879      860.471
10/12/2013  07:55:00        9.079       33.430       33.611       16.702       11.199        8.468      278.959      125.423       71.704        0.140        0.024       34.641        4.025        0.014      335.345        5.916      860.490
10/12/2013  07:56:00        7.687       31.661       33.980       18.872       20.236       13.092      356.151      409.499      171.408        0.158        0.047       32.581        9.919        0.093      335.459        6.105      860.502
10/12/2013  07:57:00       57.943       42.629       24.335       20.158       14.530       21.565      406.343      211.116      465.028        0.342        0.054       71.935       11.367        0.025      335.289        5.823      860.529
10/12/2013  07:58:00       74.332       48.265        7.537       16.599       18.384       13.282      275.532      337.971      176.423        0.435        0.039       88.627        8.230        0.009      335.152        5.597      860.536
10/12/2013  07:59:00       56.035       48.572       22.301       18.668       20.734       18.677      348.499      429.883      348.847        0.356        0.056       74.156        9.730        0.017      335.229        5.723      860.549
10/12/2013  08:00:00       24.406        3.413        5.812       17.278       11.649       15.071      298.538      135.707      227.122        0.065        0.033       24.644        8.442        0.117      335.287        5.818      860.564
10/12/2013  08:01:00       15.106       -1.856        5.604       14.322       12.054       13.740      205.116      145.295      188.789        0.040        0.027       15.220       10.597        0.485      335.514        6.199      860.577
10/12/2013  08:02:00       -2.051       -1.030       16.218       13.274       12.194        8.672      176.191      148.696       75.210        0.033        0.020        2.295        6.074        7.002      335.680        6.475      860.582
10/12/2013  08:03:00        9.517      -23.652       -2.702       25.447       25.930       23.780      647.556      672.365      565.483        0.127        0.094       25.495       19.306        0.573      335.593        6.330      860.586
10/12/2013  08:04:00       -9.391      -11.805       17.325       23.459       39.891       28.120      550.304     1591.263      790.745        0.173        0.147       15.084       29.037        3.706      335.738        6.571      860.582
10/12/2013  08:05:00      -45.616        3.557       -2.199       38.103       28.044       23.117     1451.831      786.444      534.379        0.243        0.139       45.755       23.050        0.254      335.518        6.203      860.559
10/12/2013  08:06:00       15.151       29.897       34.141       44.881       29.529       26.165     2014.285      871.953      684.583        0.293        0.179       33.517       13.644        0.166      335.641        6.409      860.540
10/12/2013  08:07:00       12.832       42.563       49.294       24.968       25.123       19.763      623.397      631.165      390.575        0.303        0.082       44.455       12.580        0.080      335.662        6.446      860.527
10/12/2013  08:08:00       -7.946       20.039       18.736       31.631       24.353       18.148     1000.542      593.049      329.347        0.137        0.096       21.557       14.228        0.436      335.603        6.346      860.536
10/12/2013  08:09:00      -21.392       11.634        5.171       35.093       25.802       14.718     1231.504      665.743      216.626        0.137        0.106       24.351        6.765        0.077      335.693        6.498      860.564
10/12/2013  08:10:00      -48.841      -26.166        1.059       32.383       21.423       13.628     1048.676      458.939      185.713        0.238        0.085       55.408        9.872        0.032      335.553        6.262      860.563
10/12/2013  08:11:00      -16.624       16.521        4.292       24.857       21.068       13.137      617.891      443.865      172.592        0.090        0.062       23.437        9.206        0.154      335.611        6.360      860.551
10/12/2013  08:12:00       -7.718       32.968       40.895       18.214       18.930       24.562      331.738      358.360      603.299        0.206        0.065       33.859       18.510        0.299      336.038        7.072      860.536
10/12/2013  08:13:00      -26.839       12.286       32.646       23.455       17.936       18.401      550.124      321.717      338.600        0.157        0.061       29.518       19.058        0.417      335.841        6.744      860.543
10/12/2013  08:14:00      -18.801        0.486        3.911       17.759       14.728       19.499      315.397      216.919      380.209        0.064        0.046       18.807       11.590        0.380      335.844        6.748      860.557
10/12/2013  08:15:00      -50.344      -51.182       -0.359       36.164       39.275       17.170     1307.852     1542.529      294.825        0.415        0.157       71.792       20.915        0.085      335.662        6.445      860.563
10/12/2013  08:16:00      -41.435      -25.990        6.788       41.395       27.849       16.949     1713.578      775.555      287.270        0.261        0.139       48.911       18.230        0.139      335.666        6.450      860.579
10/12/2013  08:17:00      -18.975      -21.975        0.405       16.886       16.458       14.793      285.143      270.850      218.836        0.081        0.039       29.033        6.384        0.048      335.654        6.432      860.582
10/12/2013  08:18:00       -3.107       11.792       18.434        9.725       13.726       12.359       94.574      188.414      152.747        0.046        0.022       12.195        9.143        0.562      336.103        7.181      860.579
10/12/2013  08:19:00       -9.352       16.282       29.836        8.405       17.568       14.618       70.641      308.628      213.683        0.092        0.030       18.777        3.398        0.033      336.324        7.551      860.579
10/12/2013  08:20:00        1.065       25.077       -5.261       19.225       18.387        9.254      369.598      338.077       85.633        0.073        0.040       25.100        8.435        0.113      335.973        6.963      860.604
10/12/2013  08:21:00       21.505       14.141       17.094       19.196       12.483       13.250      368.469      155.821      175.568        0.083        0.035       25.738        9.828        0.146      336.151        7.260      860.627
10/12/2013  08:22:00       49.554       31.984       31.845       26.158       20.040       16.540      684.262      401.593      273.574        0.293        0.068       58.980       10.885        0.034      336.032        7.062      860.630
10/12/2013  08:23:00       29.976       54.282       45.728       25.648       29.105       28.211      657.801      847.100      795.844        0.412        0.115       62.009       24.270        0.153      336.043        7.081      860.611
10/12/2013  08:24:00        5.347       77.664       68.561       24.635       30.128       26.530      606.897      907.709      703.856        0.649        0.111       77.848       18.414        0.056      336.042        7.078      860.577
10/12/2013  08:25:00       43.656       57.345       48.021       45.732       24.186       25.108     2091.449      584.963      630.401        0.540        0.165       72.072       24.107        0.112      336.090        7.158      860.554
10/12/2013  08:26:00       60.947       27.522       11.834       27.391       25.664       22.164      750.267      658.617      491.224        0.326        0.095       66.873       13.736        0.042      336.082        7.145      860.551
10/12/2013  08:27:00       61.294       49.909       13.822       31.184       20.053       24.276      972.456      402.105      589.312        0.420        0.098       79.043       16.378        0.043      336.136        7.235      860.552
10/12/2013  08:28:00       90.985       51.481        8.259       26.266       19.466       22.228      689.920      378.939      494.084        0.628        0.078      104.540       14.538        0.019      335.932        6.895      860.555
10/12/2013  08:29:00       90.694       54.822        3.222       44.550       24.814       25.636     1984.670      615.710      657.213        0.725        0.163      105.976       25.940        0.060      336.030        7.057      860.549
10/12/2013  08:30:00       26.622       45.661       44.631       34.740       29.096       26.547     1206.864      846.592      704.726        0.377        0.138       52.855       23.085        0.191      336.335        7.567      860.538
10/12/2013  08:31:00       37.838       52.225       48.517       35.158       33.608       24.435     1236.118     1129.504      597.085        0.474        0.148       64.491       18.642        0.084      336.400        7.678      860.535
10/12/2013  08:32:00       31.973       37.078       46.379       34.240       37.572       34.300     1172.401     1411.621     1176.517        0.415        0.188       48.960       28.507        0.339      336.368        7.623      860.543
10/12/2013  08:33:00      100.516       73.270       38.505       38.906       32.135       32.720     1513.640     1032.688     1070.571        1.029        0.181      124.387       23.568        0.036      336.010        7.026      860.541
10/12/2013  08:34:00       85.253       66.996       17.592       45.711       36.319       40.424     2089.467     1319.088     1634.065        0.855        0.252      108.428       17.304        0.025      336.168        7.289      860.521
10/12/2013  08:35:00       62.539       54.129       45.738       59.805       41.883       43.023     3576.581     1754.200     1850.986        0.806        0.359       82.711       44.231        0.286      336.246        7.419      860.501
10/12/2013  08:36:00       31.510       43.217       36.359       48.166       31.817       29.042     2319.963     1012.323      843.439        0.418        0.209       53.484       28.980        0.294      336.432        7.729      860.498
10/12/2013  08:37:00       70.160       33.806        2.119       44.657       24.481       25.047     1994.280      599.333      627.360        0.464        0.161       77.880        7.476        0.009      336.136        7.236      860.503
10/12/2013  08:38:00       27.535        8.534       20.948       24.622       28.516       21.198      606.228      813.163      449.348        0.157        0.093       28.828       20.830        0.522      336.543        7.917      860.508
10/12/2013  08:39:00       65.107       48.652        9.583       26.476       22.231       19.303      700.959      494.208      372.613        0.413        0.078       81.277       13.815        0.029      336.260        7.442      860.499
10/12/2013  08:40:00      107.064       60.793       24.265       26.057       30.604       22.752      678.949      936.589      517.653        0.894        0.107      123.120       14.964        0.015      336.144        7.247      860.484
10/12/2013  08:41:00       72.174       36.647       -1.714       28.183       37.189       18.383      794.262     1382.994      337.952        0.453        0.126       80.945       18.097        0.050      336.099        7.172      860.484
10/12/2013  08:42:00       55.856       52.319       10.441       28.387       24.429       26.324      805.797      596.768      692.948        0.403        0.105       76.533       14.297        0.035      336.249        7.423      860.502
10/12/2013  08:43:00       -0.338       21.667        4.900       49.785       15.313       13.243     2478.534      234.490      175.368        0.169        0.144       21.670       12.078        0.311      336.151        7.259      860.527
10/12/2013  08:44:00       -0.726       39.394       -0.249       21.069       28.745       18.096      443.910      826.274      327.453        0.157        0.080       39.401       13.387        0.115      336.456        7.770      860.548
10/12/2013  08:45:00        9.224       29.223        5.197       14.167       23.394       22.754      200.693      547.272      517.734        0.112        0.063       30.644       15.557        0.258      336.607        8.023      860.555
10/12/2013  08:46:00        7.800        6.030        7.486       25.562       20.110       19.725      653.408      404.423      389.087        0.080        0.072        9.859       14.864        2.273      336.567        7.955      860.570
10/12/2013  08:47:00       33.400       33.920        0.894       13.360       14.394       24.074      178.497      207.195      579.562        0.162        0.048       47.604       13.708        0.083      336.416        7.704      860.575
10/12/2013  08:48:00       -4.115       22.243      -13.073       19.718       15.547       23.915      388.814      241.710      571.923        0.094        0.060       22.621       14.270        0.398      336.569        7.959      860.581
10/12/2013  08:49:00        4.100       23.453       19.012       16.744       14.775       16.610      280.374      218.311      275.877        0.085        0.039       23.808        9.191        0.149      336.840        8.411      860.579
10/12/2013  08:50:00      -19.566        1.638       -3.197       18.851       12.709       12.130      355.354      161.525      147.127        0.053        0.033       19.635       11.987        0.373      336.701        8.181      860.579
10/12/2013  08:51:00      -36.689       -0.474       -3.329       11.637       13.299        9.828      135.423      176.868       96.585        0.088        0.020       36.692        6.795        0.034      336.466        7.788      860.580
10/12/2013  08:52:00      -16.584       -6.634        4.444        9.769        6.973        7.825       95.433       48.618       61.223        0.027        0.010       17.862        7.315        0.168      336.665        8.121      860.570
10/12/2013  08:53:00      -44.822       -4.057       -9.532       31.433       14.114       13.003      988.009      199.197      169.072        0.174        0.068       45.005       16.161        0.129      336.573        7.966      860.565
10/12/2013  08:54:00      -67.742      -32.673       -3.902       21.112       18.278       13.037      445.701      334.085      169.975        0.331        0.047       75.210        5.036        0.004      336.483        7.816      860.559
10/12/2013  08:55:00      -64.208       -5.866        1.054       18.075       21.704       15.073      326.702      471.073      227.205        0.259        0.051       64.475       11.923        0.034      336.544        7.917      860.547
10/12/2013  08:56:00      -49.780      -40.156       -5.107       29.974       21.201       14.543      898.453      449.479      211.503        0.284        0.078       63.957       12.201        0.036      336.538        7.908      860.520
10/12/2013  08:57:00      -84.816       -2.419       -2.093       31.658       24.095       12.832     1002.227      580.575      164.654        0.448        0.087       84.851       12.674        0.022      336.464        7.782      860.504
10/12/2013  08:58:00      -41.378       25.452       -4.521       26.321       27.548       18.616      692.802      758.886      346.572        0.209        0.090       48.579       15.973        0.108      336.588        7.991      860.505
10/12/2013  08:59:00      -20.336       20.595       15.202       13.415       15.242       22.403      179.969      232.322      501.911        0.099        0.046       28.943       10.074        0.121      337.030        8.730      860.502
10/12/2013  09:00:00      -33.435       14.842      -12.944        9.079        8.122        7.769       82.437       65.964       60.354        0.086        0.010       36.581        1.822        0.002      336.706        8.187      860.501
10/12/2013  09:01:00      -47.687       12.667        3.590       15.014       14.160       17.556      225.421      200.511      308.202        0.159        0.037       49.340       13.269        0.072      336.763        8.281      860.504
10/12/2013  09:02:00      -29.678      -14.687      -11.244       15.140       27.750        8.433      229.223      770.035       71.120        0.115        0.054       33.113        4.804        0.021      336.602        8.015      860.513
10/12/2013  09:03:00      -32.660      -60.320      -19.708       26.213       32.441       22.447      687.128     1052.404      503.887        0.367        0.112       68.594       14.305        0.043      336.591        7.998      860.506
10/12/2013  09:04:00      -10.695      -54.257       -4.089       12.192       16.883       11.852      148.637      285.041      140.467        0.182        0.029       55.301        5.039        0.008      336.583        7.983      860.494
10/12/2013  09:05:00       -1.964      -32.415       -2.893       13.420       12.862       10.285      180.090      165.420      105.789        0.076        0.023       32.474        2.923        0.008      336.693        8.168      860.505
10/12/2013  09:06:00      -11.814       -8.623        5.458       14.163       22.947       15.220      200.594      526.562      231.662        0.060        0.048       14.626       10.833        0.549      337.084        8.819      860.506
10/12/2013  09:07:00       -3.779       36.239        8.984       18.315       43.237       17.810      335.451     1869.428      317.197        0.196        0.126       36.436       19.014        0.272      337.274        9.137      860.502
10/12/2013  09:08:00        4.368       67.828      -11.825       20.494       23.237       23.327      419.985      539.952      544.156        0.313        0.075       67.968       13.001        0.037      336.997        8.674      860.493
10/12/2013  09:09:00        1.158       19.316        7.447       22.121       30.170       23.297      489.334      910.203      542.742        0.119        0.097       19.351       19.387        1.004      337.305        9.189      860.490
10/12/2013  09:10:00        5.055       20.366       -5.387       21.482       31.078       14.607      461.464      965.832      213.359        0.105        0.082       20.984       14.742        0.494      337.251        9.098      860.500
10/12/2013  09:11:00      -22.765       -8.374       12.283       23.568       12.470       17.390      555.460      155.494      302.397        0.088        0.051       24.256       16.221        0.447      337.337        9.244      860.507
10/12/2013  09:12:00      -49.621      -27.724       -1.907       33.269       23.631       18.679     1106.847      558.443      348.917        0.262        0.101       56.840       16.244        0.082      336.981        8.648      860.507
10/12/2013  09:13:00      -30.298      -45.197        7.790       37.193       38.689       24.202     1383.351     1496.822      585.737        0.324        0.173       54.413       20.236        0.138      337.010        8.696      860.510
10/12/2013  09:14:00      -82.626      -26.895        3.562       37.986       19.509       21.499     1442.946      380.606      462.224        0.492        0.114       86.893       19.885        0.052      336.843        8.418      860.493
10/12/2013  09:15:00      -73.326      -32.756      -14.375       23.396       17.322       14.247      547.365      300.046      202.990        0.385        0.053       80.310        9.372        0.014      336.859        8.444      860.469
10/12/2013  09:16:00      -47.110      -45.712        1.271       32.849       17.954       14.721     1079.034      322.339      216.696        0.296        0.081       65.642       14.578        0.049      336.910        8.529      860.439
10/12/2013  09:17:00      -58.826      -23.418      -10.501       10.154       26.468       10.559      103.099      700.538      111.502        0.252        0.046       63.315        7.895        0.016      336.892        8.498      860.411
10/12/2013  09:18:00      -41.795      -80.584       -6.920       25.550       28.722       15.965      652.812      824.965      254.873        0.501        0.087       90.777        9.936        0.012      336.924        8.552      860.404
10/12/2013  09:19:00      -15.157      -35.934       -8.231       20.468       14.209       14.926      418.955      201.897      222.787        0.122        0.042       38.999       10.766        0.076      337.065        8.785      860.401
10/12/2013  09:20:00      -49.896      -42.744       -2.941       15.276       13.767        8.229      233.370      189.536       67.723        0.241        0.025       65.701        4.939        0.006      337.020        8.711      860.395
10/12/2013  09:21:00      -64.347      -13.865       -3.283       12.848       11.297       12.337      165.080      127.631      152.212        0.239        0.022       65.824        9.994        0.023      337.071        8.796      860.387
10/12/2013  09:22:00      -49.721      -10.289       -8.323       17.800       14.869        9.880      316.830      221.079       97.622        0.164        0.032       50.775        8.067        0.025      337.111        8.862      860.378
10/12/2013  09:23:00      -58.728       19.419      -20.770       17.262       15.358        9.903      297.971      235.874       98.062        0.244        0.032       61.855        9.594        0.024      337.136        8.906      860.365
10/12/2013  09:24:00       -1.498        7.389       -5.985       42.308       12.355       12.450     1789.994      152.650      155.014        0.109        0.105        7.540        6.856        0.827      337.336        9.242      860.344
10/12/2013  09:25:00       63.821       39.667       19.316       35.322       25.647       28.514     1247.649      657.749      813.040        0.437        0.136       75.144       18.538        0.061      337.557        9.612      860.332
10/12/2013  09:26:00       58.185       31.479       18.896       29.640       25.487       21.630      878.502      649.587      467.874        0.336        0.100       66.155       20.521        0.096      337.410        9.366      860.333
10/12/2013  09:27:00       59.527       43.014       19.215       19.031       13.343       24.018      362.171      178.036      576.864        0.344        0.056       73.442       13.978        0.036      337.349        9.265      860.337
10/12/2013  09:28:00       -2.970       11.071       21.778       17.569       13.978       15.042      308.662      195.391      226.260        0.067        0.037       11.462       10.758        0.881      338.024       10.395      860.344
10/12/2013  09:29:00      -41.637      -22.838        8.028       22.006       21.786       13.070      484.248      474.616      170.834        0.172        0.056       47.489        5.158        0.012      337.467        9.459      860.343
10/12/2013  09:30:00      -38.909      -54.461        8.672       31.672       28.954       18.003     1003.145      838.313      324.110        0.336        0.108       66.932       15.228        0.052      337.438        9.411      860.340
10/12/2013  09:31:00      -38.565      -55.112        0.873       30.805       36.307       17.772      948.970     1318.171      315.859        0.355        0.129       67.265       19.865        0.087      337.410        9.366      860.334
10/12/2013  09:32:00      -23.713      -58.915        3.732       14.010       16.366       11.568      196.288      267.842      133.815        0.232        0.030       63.509        8.977        0.020      337.315        9.206      860.332
10/12/2013  09:33:00        0.750      -48.577        5.532       15.979       26.435       13.819      255.338      698.824      190.966        0.177        0.057       48.583       14.962        0.095      337.475        9.472      860.328
10/12/2013  09:34:00      -13.748      -13.394        0.623        9.624       10.090       12.190       92.617      101.810      148.597        0.036        0.017       19.194        8.568        0.199      337.696        9.844      860.334
10/12/2013  09:35:00      -13.995      -28.728        9.245       12.488       14.244       16.646      155.952      202.885      277.081        0.087        0.032       31.956        8.524        0.071      337.651        9.768      860.342
10/12/2013  09:36:00       -1.610       -9.414        8.405       24.264       14.212       12.408      588.757      201.982      153.958        0.055        0.047        9.551        9.286        0.945      337.884       10.161      860.345
10/12/2013  09:37:00      -33.644        5.861       -9.603       16.298       14.041       14.293      265.635      197.157      204.282        0.096        0.033       34.150       10.134        0.088      337.716        9.878      860.347
10/12/2013  09:38:00       27.050       39.579        4.997       26.561       26.014       23.858      705.467      676.740      569.184        0.214        0.098       47.940       20.629        0.185      338.073       10.477      860.339
10/12/2013  09:39:00       13.261       56.567       78.517       31.471       32.253       17.734      990.411     1040.229      314.480        0.594        0.117       58.101       15.512        0.071      338.116       10.549      860.325
10/12/2013  09:40:00       23.519       56.585       53.396       29.003       37.345       18.608      841.180     1394.648      346.269        0.459        0.129       61.278       17.403        0.081      338.196       10.683      860.313
10/12/2013  09:41:00        1.316        2.060       61.898       22.969       66.131       38.017      527.553     4373.358     1445.324        0.509        0.317        2.444       41.333      285.910      338.455       11.119      860.296
10/12/2013  09:42:00       29.881       64.505       94.778       30.912       59.082       30.339      955.540     3490.668      920.453        0.970        0.268       71.090       35.303        0.247      338.122       10.560      860.295
10/12/2013  09:43:00       55.493       64.934       44.396       27.672       23.321       36.246      765.752      543.856     1313.769        0.594        0.131       85.416       24.449        0.082      337.945       10.261      860.305
10/12/2013  09:44:00      100.010       53.745       16.788       69.679       41.076       35.503     4855.231     1687.201     1260.429        1.049        0.390      113.536       33.086        0.085      337.981       10.323      860.305
10/12/2013  09:45:00      118.451       75.902       -0.842       49.821       39.589       31.043     2482.136     1567.260      963.655        1.240        0.251      140.683       18.990        0.018      338.048       10.435      860.297
10/12/2013  09:46:00       85.907       66.493       13.094       46.483       45.824       36.594     2160.690     2099.831     1339.144        0.879        0.280      108.634       20.588        0.036      338.110       10.538      860.270
10/12/2013  09:47:00       89.962        9.984       34.027       39.939       46.707       44.421     1595.088     2181.520     1973.268        0.755        0.287       90.514       15.930        0.031      338.281       10.826      860.260
10/12/2013  09:48:00       45.624      -40.351       17.800       47.173       47.026       26.582     2225.300     2211.447      706.613        0.458        0.257       60.907       34.795        0.326      338.304       10.866      860.244
10/12/2013  09:49:00       53.317       41.691       21.853       59.237       37.702       40.093     3508.982     1421.459     1607.415        0.580        0.327       67.682       35.935        0.282      338.643       11.433      860.229
10/12/2013  09:50:00       42.099       49.268       -0.919       50.924       41.286       29.515     2593.262     1704.532      871.122        0.468        0.258       64.805       23.442        0.131      338.261       10.793      860.226
10/12/2013  09:51:00       -6.068       63.293        9.794       24.687       43.271       29.505      609.428     1872.373      870.566        0.374        0.168       63.583       25.007        0.155      338.450       11.109      860.230
10/12/2013  09:52:00        8.214       80.238        6.505       30.208       44.281       31.513      912.526     1960.765      993.079        0.521        0.193       80.658       27.720        0.118      338.331       10.910      860.228
10/12/2013  09:53:00        6.636       27.495        4.512       28.684       36.527       28.921      822.795     1334.203      836.438        0.191        0.150       28.285       24.108        0.726      338.687       11.509      860.214
10/12/2013  09:54:00      -17.003       11.097       24.642       33.721       30.526       32.682     1137.092      931.839     1068.085        0.208        0.157       20.304       24.700        1.480      338.900       11.865      860.204
10/12/2013  09:55:00       28.436       14.884       37.350       29.772       44.675       29.616      886.365     1995.844      877.098        0.309        0.188       32.096       27.025        0.709      338.487       11.172      860.198
10/12/2013  09:56:00       17.246      -12.268       14.354       22.868       54.829       31.458      522.925     3006.218      989.626        0.259        0.226       21.165       32.045        2.292      338.404       11.032      860.186
10/12/2013  09:57:00       12.432       51.023       63.279       28.718       29.574       19.390      824.748      874.620      375.954        0.442        0.104       52.515       13.698        0.068      338.660       11.462      860.163
10/12/2013  09:58:00       26.428       46.382       55.036       29.792       29.562       22.041      887.539      873.883      485.824        0.406        0.112       53.383       19.049        0.127      338.454       11.117      860.151
10/12/2013  09:59:00       21.271       11.254       34.215       28.971       24.867       18.296      839.319      618.378      334.758        0.177        0.090       24.065       18.132        0.568      338.835       11.757      860.136
10/12/2013  10:00:00       11.305      -51.662       15.146       29.389       47.314       26.661      863.704     2238.627      710.816        0.342        0.191       52.885       15.256        0.083      338.804       11.706      860.134
10/12/2013  10:01:00       48.703       10.746       40.973       64.921       48.201       36.415     4214.778     2323.367     1326.034        0.601        0.393       49.874       30.453        0.373      338.583       11.334      860.132
10/12/2013  10:02:00       57.233       78.375       74.451       48.181       35.200       33.211     2321.423     1239.037     1102.937        0.981        0.233       97.048       23.829        0.060      338.558       11.290      860.109
10/12/2013  10:03:00       38.633       58.030       66.842       43.316       45.327       36.973     1876.261     2054.513     1366.987        0.731        0.265       69.714       30.018        0.185      338.583       11.332      860.092
10/12/2013  10:04:00       47.981       86.425       74.589       60.232       40.008       39.958     3627.924     1600.679     1596.655        1.108        0.341       98.851       30.335        0.094      338.708       11.543      860.080
10/12/2013  10:05:00       72.668       70.241       69.533       66.849       42.322       35.883     4468.753     1791.138     1287.572        1.130        0.377      101.066       35.247        0.122      338.464       11.132      860.079
10/12/2013  10:06:00       61.547       93.341       80.442       43.778       33.890       24.428     1916.501     1148.564      596.734        1.132        0.183      111.805       20.281        0.033      338.374       10.982      860.086
10/12/2013  10:07:00       48.772       67.418       69.851       39.093       26.814       22.753     1528.254      718.983      517.713        0.728        0.138       83.210       11.890        0.020      338.441       11.094      860.065
10/12/2013  10:08:00       26.381       46.662       27.485       39.867       37.377       38.305     1589.366     1397.022     1467.251        0.404        0.223       53.603       15.277        0.081      338.753       11.618      860.042
10/12/2013  10:09:00       37.733      -40.962       20.212       44.109       64.527       45.031     1945.577     4163.728     2027.764        0.582        0.407       55.693       38.392        0.475      338.925       11.907      860.025
10/12/2013  10:10:00       15.312      -16.375       11.094       32.995       61.410       35.112     1088.642     3771.227     1232.840        0.336        0.305       22.419       29.000        1.673      338.938       11.932      860.013
10/12/2013  10:11:00       28.888      -32.059       30.370       45.555       45.936       45.398     2075.213     2110.083     2060.970        0.451        0.312       43.154       27.425        0.404      338.962       11.971      860.003
10/12/2013  10:12:00      -23.950      -57.632       -3.962       42.140       47.255       21.797     1775.782     2233.077      475.099        0.420        0.224       62.410       23.755        0.145      338.708       11.542      859.992
10/12/2013  10:13:00      -53.237      -33.458       -5.919       47.153       42.412       24.292     2223.432     1798.820      590.096        0.430        0.231       62.878       25.695        0.167      338.418       11.057      859.985
10/12/2013  10:14:00      -16.136       28.104        3.069       37.896       29.791       36.391     1436.134      887.521     1324.308        0.235        0.182       32.407       26.458        0.667      338.807       11.711      859.983
10/12/2013  10:15:00       28.209       -4.142       37.217       31.378       48.100       29.525      984.555     2313.613      871.735        0.318        0.208       28.512       33.937        1.417      339.106       12.213      859.970
10/12/2013  10:16:00       17.125       -5.544       36.264       29.208       46.697       35.384      853.096     2180.613     1252.029        0.296        0.214       18.000       32.315        3.223      339.086       12.180      859.943
10/12/2013  10:17:00        8.594      -35.455       38.879       29.016       60.003       33.778      841.919     3600.361     1140.985        0.421        0.279       36.482       31.399        0.741      339.173       12.325      859.943
10/12/2013  10:18:00       23.027      -49.042       12.024       40.807       57.708       37.761     1665.219     3330.256     1425.906        0.475        0.321       54.179       29.659        0.300      338.945       11.942      859.929
10/12/2013  10:19:00      103.838     -121.013      -25.881       49.182       65.566       33.767     2418.918     4298.876     1140.215        1.698        0.393      159.457       32.576        0.042      338.593       11.349      859.924
10/12/2013  10:20:00       56.764      -83.607       11.321       41.767       72.153       44.175     1744.446     5205.991     1951.437        0.962        0.445      101.056       42.994        0.181      338.642       11.433      859.909
10/12/2013  10:21:00       54.615       66.474       49.320       46.203       45.300       33.608     2134.747     2052.104     1129.497        0.757        0.266       86.032       25.899        0.091      339.006       12.045      859.891
10/12/2013  10:22:00        8.861      -45.704       30.880       40.655       83.767       40.199     1652.811     7016.904     1615.946        0.670        0.514       46.555       49.134        1.114      339.160       12.304      859.882
10/12/2013  10:23:00       46.410      -47.932       15.428       55.219      103.285       68.770     3049.147    10667.815     4729.307        1.156        0.922       66.718       75.937        1.295      339.188       12.349      859.857
10/12/2013  10:24:00       -4.219      -59.466        8.818       53.353       72.402       56.742     2846.586     5242.108     3219.647        0.747        0.565       59.615       49.424        0.687      339.213       12.393      859.856
10/12/2013  10:25:00      -57.347      -15.987        2.574       35.204       37.297       26.458     1239.308     1391.048      700.000        0.344        0.167       59.534       23.606        0.157      338.819       11.729      859.866
10/12/2013  10:26:00      -22.698      -45.141        6.621       40.744       36.976       28.483     1660.084     1367.202      811.292        0.322        0.192       50.526       20.879        0.171      338.976       11.993      859.847
10/12/2013  10:27:00      -65.249      -40.164       -3.536       59.450       29.996       30.155     3534.341      899.754      909.343        0.561        0.267       76.619       29.557        0.149      338.722       11.567      859.820
10/12/2013  10:28:00      -34.535       -9.828       14.423       51.687       38.895       24.423     2671.520     1512.844      596.483        0.314        0.239       35.906       31.199        0.755      339.306       12.549      859.785
10/12/2013  10:29:00      -34.456      -79.111       -8.500       57.363       66.565       28.768     3290.565     4430.907      827.586        0.803        0.427       86.289       31.406        0.132      339.066       12.146      859.763
10/12/2013  10:30:00        2.523      -86.284       36.640       51.329       68.307       40.421     2634.666     4665.875     1633.818        0.886        0.447       86.321       37.104        0.185      339.301       12.540      859.745
10/12/2013  10:31:00       36.587     -107.266      -18.514       36.649       25.748       25.855     1343.136      662.977      668.470        0.793        0.134      113.334       21.933        0.037      338.930       11.916      859.743
10/12/2013  10:32:00       22.007        4.343       36.860       30.376       46.575       35.445      922.684     2169.216     1256.334        0.310        0.217       22.431       23.655        1.112      339.428       12.756      859.735
10/12/2013  10:33:00      -15.878        3.104       28.884       21.549       30.232       22.530      464.345      913.994      507.597        0.149        0.094       16.179       15.427        0.909      339.457       12.803      859.733
10/12/2013  10:34:00        1.095        6.201       24.205       26.087       22.169       25.793      680.532      491.452      665.279        0.123        0.092        6.297       20.662       10.766      339.490       12.859      859.735
10/12/2013  10:35:00       -3.461        8.377       44.077       29.059       30.599       26.438      844.427      936.312      698.973        0.225        0.124        9.064       21.064        5.400      339.755       13.306      859.734
10/12/2013  10:36:00      -19.105       43.065       55.910       36.964       31.799       17.539     1366.345     1011.189      307.601        0.401        0.134       47.113       10.322        0.048      339.470       12.826      859.727
10/12/2013  10:37:00      -21.658       26.838       23.458       66.656       25.222       36.802     4442.977      636.149     1354.361        0.409        0.322       34.487       27.770        0.648      339.305       12.548      859.721
10/12/2013  10:38:00       35.842       40.171       27.477       37.670       14.989       28.394     1419.028      224.663      806.238        0.305        0.122       53.837       27.049        0.252      339.378       12.672      859.696
10/12/2013  10:39:00       68.404       44.747       11.117       30.790       20.801       24.055      948.008      432.695      578.635        0.438        0.098       81.740       13.405        0.027      339.230       12.422      859.665
10/12/2013  10:40:00       10.332       57.722       81.974       43.201       54.673       38.308     1866.339     2989.181     1467.523        0.824        0.316       58.639       30.837        0.277      339.785       13.355      859.630
10/12/2013  10:41:00       90.888       71.577       65.488       57.142       44.887       45.751     3265.238     2014.823     2093.108        1.252        0.369      115.689       35.191        0.093      339.310       12.556      859.620
10/12/2013  10:42:00       53.390       17.621       29.354       44.955       28.960       24.069     2020.952      838.686      579.318        0.373        0.172       56.222       18.898        0.113      339.242       12.441      859.604
10/12/2013  10:43:00       26.606       35.655       41.114       29.924       37.773       24.776      895.430     1426.823      613.865        0.330        0.147       44.488       11.808        0.070      339.683       13.184      859.604
10/12/2013  10:44:00       61.223       39.100       30.955       50.229       34.168       42.435     2522.961     1167.460     1800.763        0.586        0.275       72.643       19.107        0.069      339.460       12.808      859.585
10/12/2013  10:45:00       75.774       49.761       19.440       58.883       50.793       46.579     3467.166     2579.891     2169.607        0.840        0.411       90.652       27.436        0.092      339.466       12.818      859.558
10/12/2013  10:46:00       24.203       34.213       76.171       49.741       62.710       41.038     2474.153     3932.493     1684.109        0.782        0.405       41.909       43.236        1.064      339.810       13.399      859.532
10/12/2013  10:47:00       39.136       72.293       92.208       60.783       86.921       56.036     3694.594     7555.213     3140.062        1.482        0.719       82.206       61.330        0.557      339.524       12.916      859.507
10/12/2013  10:48:00      155.238      104.968       35.003       43.006       46.215       42.910     1849.494     2135.824     1841.298        2.108        0.291      187.396       28.514        0.023      339.182       12.339      859.476
10/12/2013  10:49:00      133.827       94.388       41.129       66.021       46.860       45.220     4358.740     2195.873     2044.825        1.855        0.430      163.765       17.439        0.011      339.487       12.852      859.446
10/12/2013  10:50:00       96.024       78.694       28.154       68.227       58.756       49.513     4654.863     3452.221     2451.571        1.338        0.528      124.151       36.645        0.087      339.669       13.160      859.431
10/12/2013  10:51:00      140.531      101.746        6.314       47.340       33.668       41.153     2241.096     1133.532     1693.593        1.760        0.253      173.497       19.219        0.012      339.193       12.358      859.407
10/12/2013  10:52:00       79.661       50.572       42.508       67.242       57.559       42.707     4521.465     3313.095     1823.893        1.018        0.483       94.358       39.159        0.172      339.644       13.118      859.390
10/12/2013  10:53:00       83.900       72.435       74.384       62.655       51.246       49.916     3925.689     2626.114     2491.564        1.343        0.452      110.842       39.609        0.128      339.744       13.287      859.364
10/12/2013  10:54:00       94.612       60.281       39.203       45.734       37.671       31.096     2091.640     1419.073      966.948        0.930        0.224      112.184       23.310        0.043      339.470       12.825      859.360
10/12/2013  10:55:00      138.662       89.705       39.738       77.232       39.112       45.895     5964.854     1529.769     2106.330        1.923        0.480      165.149       29.839        0.033      339.555       12.968      859.364
10/12/2013  10:56:00      132.550      101.826       41.101       50.428       45.320       54.472     2542.974     2053.926     2967.238        1.859        0.378      167.147       30.661        0.034      339.301       12.541      859.348
10/12/2013  10:57:00      105.111       46.257       29.572       80.214       51.429       40.050     6434.270     2644.989     1604.037        1.237        0.534      114.839       33.841        0.087      339.694       13.203      859.319
10/12/2013  10:58:00      159.182       87.916       34.043       82.673       61.189       44.143     6834.839     3744.063     1948.569        2.337        0.626      181.846       28.044        0.024      339.613       13.065      859.297
10/12/2013  10:59:00      177.572      120.056       48.579       80.573       44.001       52.880     6491.997     1936.052     2796.310        2.976        0.561      214.348       28.778        0.018      339.621       13.076      859.258
10/12/2013  11:00:00       99.377       80.644       63.162       90.613       77.779       58.332     8210.691     6049.513     3402.577        1.901        0.883      127.981       43.030        0.113      339.984       13.691      859.240
10/12/2013  11:01:00       94.952       91.112       78.780       92.174       64.534       39.084     8496.121     4164.579     1527.543        1.885        0.709      131.595       32.784        0.062      339.838       13.445      859.239
10/12/2013  11:02:00      119.582       31.520       42.138       50.896       41.675       40.471     2590.372     1736.813     1637.873        1.152        0.298      123.666       30.390        0.060      339.622       13.082      859.266
10/12/2013  11:03:00       18.702       50.952       82.218       42.646       65.468       44.546     1818.703     4286.040     1984.304        0.890        0.404       54.276       45.157        0.692      340.027       13.764      859.247
10/12/2013  11:04:00       87.706       62.456       59.485       71.550       63.067       60.943     5119.336     3977.422     3714.101        1.397        0.641      107.671       49.888        0.215      339.802       13.385      859.244
10/12/2013  11:05:00       19.551       42.358       75.108       54.482       78.067       56.702     2968.245     6094.392     3215.119        1.005        0.614       46.652       56.288        1.456      339.956       13.643      859.214
10/12/2013  11:06:00      134.708       87.684       56.764       65.436       64.936       60.003     4281.856     4216.623     3600.402        2.058        0.605      160.732       34.171        0.045      339.851       13.467      859.191
10/12/2013  11:07:00      143.332       65.327       75.801       67.134       61.790       62.659     4506.929     3818.057     3926.145        2.140        0.613      157.518       45.852        0.085      339.937       13.611      859.159
10/12/2013  11:08:00       61.898       72.798       79.429       65.171       84.201       61.925     4247.230     7089.837     3834.723        1.530        0.759       95.555       68.429        0.513      339.727       13.259      859.145
10/12/2013  11:09:00       42.075       55.035       71.474       56.653       53.446       41.284     3209.514     2856.425     1704.332        0.884        0.389       69.276       37.124        0.287      340.110       13.906      859.113
10/12/2013  11:10:00      117.181      115.383       65.091       71.060       53.417       60.833     5049.531     2853.379     3700.641        2.144        0.580      164.453       57.498        0.122      339.706       13.222      859.094
10/12/2013  11:11:00       74.752       54.060       62.939       39.487       53.126       42.772     1559.229     2822.399     1829.445        0.934        0.311       92.252       30.196        0.107      339.939       13.616      859.092
10/12/2013  11:12:00       53.781       54.466       41.559       32.444       38.359       19.837     1052.607     1471.450      393.502        0.525        0.146       76.544        9.628        0.016      339.840       13.449      859.084
10/12/2013  11:13:00       28.833      -12.290       44.269       47.533       83.445       56.593     2259.394     6963.120     3202.764        0.768        0.621       31.343       60.505        3.727      340.428       14.442      859.077
10/12/2013  11:14:00      -43.949     -108.639      -22.273       78.018       64.026       32.562     6086.785     4099.298     1060.283        1.274        0.562      117.192       34.051        0.084      340.052       13.806      859.082
10/12/2013  11:15:00      -26.847      -27.474       13.743       48.794       32.891       26.469     2380.874     1081.824      700.593        0.291        0.208       38.413       19.721        0.264      340.378       14.357      859.063
10/12/2013  11:16:00      -34.250      -34.603       -1.930       42.223       33.379       27.589     1782.795     1114.129      761.168        0.302        0.183       48.687       23.469        0.232      340.306       14.236      859.051
10/12/2013  11:17:00       18.719      -45.161       14.936       43.506       64.959       41.522     1892.754     4219.633     1724.067        0.522        0.392       48.887       40.838        0.698      340.569       14.680      859.019
10/12/2013  11:18:00       35.196      -59.579       25.348       83.264      113.028       61.264     6932.840    12775.417     3753.259        1.444        1.173       69.198       72.715        1.104      340.492       14.551      858.983
10/12/2013  11:19:00       85.935     -105.018       15.609      108.476      116.031       73.380    11766.967    13463.301     5384.680        2.463        1.531      135.697       90.413        0.444      340.110       13.904      858.973
10/12/2013  11:20:00       35.908      -39.501       36.157       58.552       74.616       47.623     3428.339     5567.577     2267.917        0.771        0.563       53.383       45.018        0.711      340.540       14.632      858.966
10/12/2013  11:21:00       85.203      -85.969       21.196       86.480      106.876       64.638     7478.752    11422.554     4178.041        1.908        1.154      121.038       66.023        0.298      340.410       14.409      858.944
10/12/2013  11:22:00      115.819      -59.156       29.019       78.725       97.950       57.661     6197.668     9594.236     3324.798        1.843        0.956      130.052       60.410        0.216      340.148       13.967      858.919
10/12/2013  11:23:00       51.450       11.139       44.640       79.723       53.933       39.640     6355.717     2908.723     1571.319        0.780        0.542       52.641       33.037        0.394      340.343       14.298      858.896
10/12/2013  11:24:00       82.855       91.040       74.922       92.397       62.766       43.401     8537.233     3939.515     1883.675        1.756        0.718      123.099       30.233        0.060      340.463       14.499      858.883
10/12/2013  11:25:00       79.709       30.157       72.254       79.086      101.019       54.416     6254.630    10204.893     2961.088        1.595        0.971       85.223       48.175        0.320      340.245       14.131      858.873
10/12/2013  11:26:00       79.238       67.462       48.764       64.808       42.582       35.828     4200.136     1813.261     1283.647        1.025        0.365      104.066       25.014        0.058      340.369       14.342      858.866
10/12/2013  11:27:00       54.193      -28.740       52.112       77.310      132.826       70.059     5976.880    17642.723     4908.292        1.750        1.426       61.342       88.986        2.104      340.302       14.226      858.868
10/12/2013  11:28:00       81.413     -100.121       21.031       86.898      107.825       59.333     7551.267    11626.138     3520.428        1.989        1.135      129.044       74.330        0.332      340.403       14.399      858.871
10/12/2013  11:29:00      113.484     -214.731      -31.717       68.009       52.837       40.758     4625.292     2791.718     1661.222        3.453        0.454      242.875       34.879        0.021      340.054       13.806      858.869
10/12/2013  11:30:00      103.693     -163.476      -26.076       65.875       95.669       53.996     4339.580     9152.614     2915.518        2.728        0.820      193.589       58.545        0.091      340.185       14.029      858.874
10/12/2013  11:31:00       40.540      -61.097       33.309       54.752      105.308       53.172     2997.816    11089.775     2827.211        1.170        0.846       73.324       69.888        0.908      340.568       14.677      858.862
10/12/2013  11:32:00       80.550      -70.617        9.578       76.232       75.994       50.080     5811.325     5775.013     2507.975        1.283        0.705      107.122       54.403        0.258      340.437       14.456      858.836
10/12/2013  11:33:00       24.575        4.388       41.333       35.844       44.011       36.074     1284.805     1936.996     1301.319        0.343        0.226       24.963       33.379        1.788      340.463       14.502      858.814
10/12/2013  11:34:00       -2.198      -24.448       32.657       21.370       48.241       21.849      456.668     2327.238      477.388        0.246        0.163       24.547       25.313        1.063      340.777       15.033      858.759
10/12/2013  11:35:00       13.908       34.212       64.148       29.637       43.504       27.347      878.350     1892.562      747.845        0.450        0.176       36.930       23.180        0.394      340.834       15.129      858.730
10/12/2013  11:36:00        8.703        4.638       54.344       36.961       51.105       24.151     1366.085     2611.688      583.254        0.380        0.228        9.862       15.239        2.388      340.760       15.003      858.708
10/12/2013  11:37:00       30.446      -80.285       -2.351       60.645       68.340       45.895     3677.836     4670.388     2106.372        0.891        0.523       85.864       50.495        0.346      340.631       14.786      858.688
10/12/2013  11:38:00       65.929       -3.878       34.340       79.696       75.434       53.777     6351.518     5690.262     2891.928        1.023        0.747       66.043       65.287        0.977      340.794       15.062      858.650
10/12/2013  11:39:00       43.746      -19.018       73.204       63.078      113.596       63.329     3978.843    12904.087     4010.588        1.426        1.045       47.701       66.714        1.956      340.806       15.080      858.624
10/12/2013  11:40:00       76.805      -65.758       22.789       65.921       79.267       47.262     4345.559     6283.325     2233.725        1.180        0.643      101.109       47.597        0.222      340.670       14.850      858.621
10/12/2013  11:41:00       46.959      -10.551       45.810       58.135       47.027       47.694     3379.684     2211.562     2274.670        0.614        0.393       48.130       32.882        0.467      340.775       15.028      858.608
10/12/2013  11:42:00       21.019      -28.054       68.424       66.973      100.007       74.002     4485.335    10001.322     5476.316        1.293        0.998       35.055       69.302        3.908      340.993       15.397      858.592
10/12/2013  11:43:00       36.164       62.595      107.845       56.961       49.876       48.855     3244.514     2487.648     2386.786        1.249        0.406       72.291       37.363        0.267      340.642       14.803      858.590
10/12/2013  11:44:00       49.109        9.099       74.534       69.982       98.206       73.847     4897.415     9644.441     5453.396        1.402        1.000       49.945       67.109        1.805      340.606       14.742      858.555
10/12/2013  11:45:00       95.515     -106.025       12.114       84.037      132.808       69.699     7062.208    17638.017     4857.915        2.503        1.478      142.704       92.420        0.419      340.563       14.668      858.556
10/12/2013  11:46:00       35.531      -48.230       16.496       42.013       58.707       55.963     1765.126     3446.498     3131.818        0.610        0.417       59.905       45.017        0.565      340.704       14.908      858.516
10/12/2013  11:47:00       84.454      -87.596       10.691       88.086      105.472       60.633     7759.139    11124.328     3676.311        1.874        1.128      121.678       66.610        0.300      340.750       14.986      858.499
10/12/2013  11:48:00       70.186      -97.207        0.428       81.583       81.831       43.784     6655.829     6696.288     1917.034        1.482        0.763      119.897       56.387        0.221      340.664       14.840      858.516
10/12/2013  11:49:00      -22.287     -116.254      -25.762       61.612       51.817       40.338     3796.011     2685.036     1627.148        1.139        0.405      118.371       31.401        0.070      340.838       15.134      858.506
10/12/2013  11:50:00      -23.920      -21.253       19.434       78.205       60.607       47.605     6115.979     3673.200     2266.198        0.673        0.603       31.997       47.068        2.164      341.160       15.681      858.481
10/12/2013  11:51:00        0.344       22.947       31.183       27.567       22.698       16.764      759.916      515.184      281.046        0.153        0.078       22.949        4.881        0.045      341.401       16.089      858.457
10/12/2013  11:52:00       20.238      121.030       30.577       44.372       59.232       47.085     1968.892     3508.399     2217.002        1.184        0.385      122.711       32.419        0.070      341.072       15.532      858.413
10/12/2013  11:53:00      131.953      117.141       93.365       96.664       58.903       66.995     9343.860     3469.505     4488.336        2.857        0.865      176.448       61.455        0.121      341.163       15.681      858.318
10/12/2013  11:54:00       51.717      -71.786       33.133       65.109      133.077       58.989     4239.153    17709.380     3479.697        1.717        1.271       88.475       71.130        0.646      340.971       15.358      858.285
10/12/2013  11:55:00       83.199     -102.701       13.259       78.006       93.672       52.779     6084.926     8774.360     2785.577        1.764        0.882      132.173       56.572        0.183      340.861       15.174      858.288
10/12/2013  11:56:00      105.458      -76.726       13.781       84.428       88.623       64.812     7128.118     7853.976     4200.595        1.819        0.959      130.416       66.771        0.262      341.092       15.563      858.258
10/12/2013  11:57:00      112.643     -146.264      -24.269       80.097      103.310       79.165     6415.452    10672.995     6267.058        2.901        1.168      184.612       79.188        0.184      341.107       15.587      858.267
10/12/2013  11:58:00      133.678     -126.661       13.212       82.291      137.366       72.015     6771.783    18869.302     5186.187        3.245        1.541      184.155       80.899        0.193      340.917       15.266      858.271
10/12/2013  11:59:00       62.931       50.282       80.184       69.384       74.513       66.488     4814.155     5552.248     4420.693        1.385        0.739       80.552       65.808        0.667      341.004       15.416      858.257
10/12/2013  12:00:00      117.062     -130.248       14.739       82.471      149.996       66.584     6801.470    22498.870     4433.463        3.230        1.687      175.123       88.178        0.254      340.891       15.223      858.238
10/12/2013  12:01:00       74.546      -78.527       35.646       83.394      115.260       79.244     6954.627    13284.901     6279.574        1.975        1.326      108.275       75.056        0.481      341.278       15.878      858.212
10/12/2013  12:02:00       83.276      -81.119        1.853       93.991      107.268       61.673     8834.373    11506.459     3803.561        1.883        1.207      116.254       61.101        0.276      340.918       15.268      858.207
10/12/2013  12:03:00       37.569      -60.082       50.857       58.256      131.910       71.250     3393.752    17400.205     5076.589        1.673        1.294       70.861       81.087        1.309      341.245       15.822      858.201
10/12/2013  12:04:00       60.466     -129.199      -21.843       89.143      104.173       63.979     7946.530    10852.088     4093.329        2.185        1.145      142.648       62.822        0.194      341.031       15.459      858.227
10/12/2013  12:05:00       32.755      -66.867       13.531       57.901       67.354       40.166     3352.524     4536.583     1613.341        0.761        0.475       74.458       26.434        0.126      341.150       15.663      858.251
10/12/2013  12:06:00       47.710      -51.369       28.354       49.973       77.670       46.349     2497.336     6032.618     2148.196        0.820        0.534       70.108       37.855        0.292      341.127       15.625      858.238
10/12/2013  12:07:00       21.738      -16.600       44.303       32.894       77.915       50.202     1082.032     6070.810     2520.250        0.619        0.484       27.351       49.005        3.210      341.220       15.783      858.211
10/12/2013  12:08:00      -11.525      -29.238       28.073       78.594       78.834       36.016     6177.045     6214.810     1297.184        0.773        0.684       31.427       39.033        1.543      341.120       15.612      858.192
10/12/2013  12:09:00      -73.167       -8.507       14.266       47.348       47.748       25.443     2241.846     2279.903      647.356        0.540        0.258       73.660       14.245        0.037      341.084       15.551      858.180
10/12/2013  12:10:00      -57.755       30.617       -2.216       25.061       33.902       22.251      628.037     1149.349      495.092        0.327        0.114       65.369       18.886        0.083      341.108       15.593      858.160
10/12/2013  12:11:00      -22.259       38.394       13.882       26.834       39.870       28.905      720.073     1589.646      835.518        0.265        0.157       44.379       27.479        0.383      341.684       16.567      858.138
10/12/2013  12:12:00        5.033      -44.076       -3.633       33.901       38.890       21.010     1149.265     1512.402      441.415        0.254        0.155       44.363       23.846        0.289      341.297       15.913      858.119
10/12/2013  12:13:00      -19.468      -26.979       -2.530       15.102       34.508       14.103      228.068     1190.769      198.902        0.137        0.081       33.270       12.139        0.133      341.383       16.057      858.102
10/12/2013  12:14:00       40.727       14.499        6.760       52.893       61.439       39.418     2797.706     3774.749     1553.799        0.502        0.406       43.231       43.641        1.019      341.273       15.872      858.069
10/12/2013  12:15:00       35.022       31.835       39.299       44.071       60.698       37.888     1942.246     3684.220     1435.523        0.542        0.353       47.329       40.155        0.720      341.346       15.996      858.048
10/12/2013  12:16:00       13.570      -27.923       30.132       41.008       70.795       42.536     1681.685     5011.999     1809.321        0.519        0.425       31.046       34.995        1.271      341.172       15.700      858.026
10/12/2013  12:17:00       37.399      -94.143       28.150       62.445      112.022       74.345     3899.420    12548.892     5527.173        1.651        1.099      101.300       71.111        0.493      341.697       16.589      857.994
10/12/2013  12:18:00       67.034     -130.888        0.294       59.937      112.880       54.305     3592.441    12741.897     2949.079        2.045        0.964      147.056       52.447        0.127      341.393       16.074      858.004
10/12/2013  12:19:00       17.456      -78.086       10.273       56.471       85.593       53.374     3188.984     7326.198     2848.809        0.993        0.668       80.013       51.034        0.407      341.681       16.561      857.995
10/12/2013  12:20:00       16.585       49.867      121.004       55.938      112.923       59.845     3129.020    12751.701     3581.483        1.843        0.973       52.553       66.640        1.608      341.386       16.061      857.962
10/12/2013  12:21:00       76.131      -77.300        7.091       61.495       52.483       35.414     3781.610     2754.494     1254.124        0.980        0.390      108.496       23.661        0.048      340.965       15.350      857.959
10/12/2013  12:22:00       18.642      -25.642       34.869       70.983       99.172       47.803     5038.570     9835.094     2285.145        0.969        0.858       31.703       46.458        2.148      341.366       16.029      857.924
10/12/2013  12:23:00      172.317     -183.515      -12.053      114.655      136.559       77.474    13145.741    18648.379     6002.172        5.065        1.890      251.736       93.706        0.139      341.359       16.016      857.880
10/12/2013  12:24:00       13.061      -14.314       65.980       52.317       92.604       52.054     2737.064     8575.518     2709.606        0.937        0.701       19.377       46.463        5.750      341.780       16.731      857.868
10/12/2013  12:25:00       63.211     -101.320       11.182      111.533      124.214       58.642    12439.683    15429.035     3438.897        2.284        1.565      119.421       69.392        0.338      341.639       16.490      857.815
10/12/2013  12:26:00      126.714      -76.901       49.199      108.538      108.458       77.323    11780.525    11763.121     5978.773        2.695        1.476      148.224       77.175        0.271      341.686       16.568      857.748
10/12/2013  12:27:00       73.886      -77.014       44.917       86.681      151.078       93.828     7513.553    22824.634     8803.715        2.627        1.957      106.725      102.835        0.928      341.819       16.795      857.712
10/12/2013  12:28:00        8.985       15.507       90.129       46.864      102.684       68.935     2196.189    10544.042     4752.038        1.296        0.875       17.922       62.182       12.039      341.804       16.770      857.690
10/12/2013  12:29:00       89.966     -117.717      -15.034       76.313       68.431       52.882     5823.704     4682.862     2796.493        1.774        0.665      148.160       55.222        0.139      341.358       16.013      857.694
10/12/2013  12:30:00       21.099      -96.722       -5.857       75.924       60.110       40.063     5764.497     3613.256     1605.012        1.041        0.549       98.997       33.209        0.113      341.620       16.459      857.691
10/12/2013  12:31:00       96.047     -126.299        1.878       63.862      107.015       57.625     4078.315    11452.198     3320.595        2.201        0.943      158.671       66.682        0.177      341.466       16.197      857.679
10/12/2013  12:32:00       30.599       31.245       56.745       42.264       37.732       36.353     1786.280     1423.696     1321.570        0.483        0.227       43.733       26.918        0.379      341.650       16.510      857.682
10/12/2013  12:33:00       29.020      -27.172       26.652       38.678       44.614       33.795     1495.953     1990.396     1142.119        0.346        0.231       39.756       17.121        0.185      341.557       16.352      857.670
10/12/2013  12:34:00       38.278      -27.754       20.795       44.531       39.511       29.128     1983.025     1561.112      848.422        0.353        0.220       47.281       20.769        0.193      341.627       16.471      857.638
10/12/2013  12:35:00       82.561       50.099       18.356       48.529       37.021       25.591     2355.028     1370.558      654.893        0.702        0.219       96.572       23.854        0.061      341.568       16.370      857.627
10/12/2013  12:36:00       34.474        2.038        2.188       69.836       75.144       54.535     4877.126     5646.564     2974.107        0.734        0.675       34.534       42.527        1.516      341.611       16.443      857.609
10/12/2013  12:37:00       35.675       70.133       97.434       56.678       98.133       74.426     3212.372     9630.101     5539.212        1.703        0.919       78.685       73.296        0.868      341.535       16.314      857.590
10/12/2013  12:38:00      117.720      -57.361       39.983      107.736      135.904       76.192    11607.048    18469.905     5805.290        2.731        1.794      130.952       87.084        0.442      341.462       16.190      857.570
10/12/2013  12:39:00      -21.915      -11.826       54.250       51.331       64.520       51.391     2634.889     4162.883     2641.012        0.650        0.472       24.902       39.906        2.568      341.662       16.531      857.564
10/12/2013  12:40:00       15.554        2.723        8.015       26.584       27.450       27.852      706.726      753.479      775.759        0.127        0.112       15.790        9.516        0.363      341.857       16.862      857.533
10/12/2013  12:41:00       14.502       -5.056       17.915       29.078       53.957       26.603      845.506     2911.375      707.745        0.251        0.223       15.358       25.164        2.685      341.750       16.680      857.506
10/12/2013  12:42:00       59.673      -71.172       -1.945       59.738       55.335       37.453     3568.577     3061.978     1402.722        0.833        0.402       92.878       12.582        0.018      341.722       16.631      857.485
10/12/2013  12:43:00       10.623      -26.599       17.591       19.608       40.897       26.774      384.461     1672.546      716.859        0.195        0.139       28.642       30.247        1.115      342.484       17.928      857.472
10/12/2013  12:44:00       40.043        9.504       52.679       71.261       89.401       61.704     5078.174     7992.471     3807.426        1.067        0.844       41.156       58.364        2.011      341.953       17.026      857.438
10/12/2013  12:45:00      -46.264      -82.769      -12.107       63.169       66.222       42.793     3990.348     4385.414     1831.262        0.967        0.510       94.822       38.715        0.167      341.897       16.929      857.439
10/12/2013  12:46:00      -76.070       -9.735       -9.750       53.863       28.583       18.411     2901.232      816.992      338.971        0.502        0.203       76.690       12.050        0.025      341.464       16.195      857.442
10/12/2013  12:47:00      -43.733     -100.305       -0.438       45.743       79.791       36.222     2092.445     6366.591     1312.067        1.087        0.489      109.424       29.023        0.070      341.800       16.764      857.427
10/12/2013  12:48:00      -17.748      -60.889       11.072       84.101       78.312       44.169     7072.967     6132.757     1950.944        0.965        0.758       63.423       42.840        0.456      341.742       16.667      857.418
10/12/2013  12:49:00      -87.308       33.073       -2.218       39.159       44.053       26.997     1533.452     1940.689      728.842        0.646        0.210       93.362       22.759        0.059      341.525       16.298      857.384
10/12/2013  12:50:00        4.713       23.724       13.927       28.662       25.929       28.385      821.493      672.287      805.726        0.154        0.115       24.188       18.160        0.564      341.867       16.880      857.344
10/12/2013  12:51:00      -46.621       -1.615        0.695       34.242       36.209       23.872     1172.489     1311.103      569.891        0.261        0.153       46.649       16.105        0.119      341.848       16.845      857.349
10/12/2013  12:52:00      -84.253      -95.760        7.874       97.207       79.950       42.415     9449.248     6392.064     1799.054        1.698        0.882      127.548       43.441        0.116      341.759       16.694      857.335
10/12/2013  12:53:00       36.278      -72.590        5.199       95.797       93.455       51.207     9177.085     8733.811     2622.110        1.357        1.027       81.151       57.682        0.505      341.977       17.064      857.316
10/12/2013  12:54:00       18.182      -68.374       34.864      127.323       87.042       58.658    16211.113     7576.305     3440.754        1.672        1.361       70.750       54.236        0.588      342.089       17.253      857.271
10/12/2013  12:55:00      -40.229     -124.843       -0.862       74.967       69.319       47.358     5620.055     4805.140     2242.809        1.493        0.633      131.165       27.549        0.044      342.222       17.479      857.221
10/12/2013  12:56:00      -17.228      -16.868       43.747       61.936       96.501       54.433     3836.075     9312.413     2962.942        0.930        0.806       24.111       34.448        2.041      342.296       17.605      857.185
10/12/2013  12:57:00       49.098      -46.587       -1.712       45.907       66.850       48.075     2107.446     4468.981     2311.191        0.673        0.444       67.682       45.440        0.451      342.039       17.170      857.124
10/12/2013  12:58:00       24.272       -9.209       33.905       42.608       63.906       37.444     1815.439     4083.955     1402.028        0.456        0.365       25.960       39.480        2.313      342.364       17.722      857.094
10/12/2013  12:59:00      140.088     -180.602      -24.331       67.462       78.590       47.585     4551.170     6176.402     2264.313        3.291        0.650      228.565       44.337        0.038      342.055       17.194      857.023
10/12/2013  13:00:00       67.266     -123.990       -2.328       70.325       68.257       45.541     4945.655     4659.058     2073.968        1.579        0.584      141.061       29.617        0.044      342.088       17.251      856.974
10/12/2013  13:01:00      113.305     -233.457      -14.612       84.121       94.354       48.210     7076.338     8902.600     2324.242        4.292        0.915      259.500       28.717        0.012      342.039       17.166      856.935
10/12/2013  13:02:00      172.019     -192.902      -20.541       75.034      104.992       53.800     5630.162    11023.225     2894.417        4.338        0.977      258.460       44.169        0.029      342.051       17.186      856.918
10/12/2013  13:03:00      176.528     -229.758      -51.235       88.679       81.709       52.338     7863.978     6676.351     2739.275        5.192        0.864      289.743       45.493        0.025      342.043       17.174      856.890
10/12/2013  13:04:00      167.728     -242.294      -16.629      122.796       91.512       62.016    15078.845     8374.463     3845.951        5.720        1.365      294.685       39.054        0.018      342.006       17.110      856.871
10/12/2013  13:05:00       48.230     -182.485       -7.790       91.262      118.048       81.545     8328.713    13935.337     6649.540        3.229        1.446      188.751       62.554        0.110      342.284       17.583      856.888
10/12/2013  13:06:00      -60.920     -165.057       -4.653       73.443       77.421       55.486     5393.856     5993.991     3078.685        2.272        0.723      175.941       35.122        0.040      342.299       17.610      856.920
10/12/2013  13:07:00     -116.790     -110.905        6.345       86.857       61.000       43.941     7544.132     3720.955     1930.795        1.959        0.660      161.058       38.779        0.058      342.363       17.720      856.968
10/12/2013  13:08:00     -217.047     -192.070      -14.599      100.793       94.674       55.709    10159.166     8963.147     3103.475        5.321        1.111      289.828       55.767        0.037      341.996       17.094      856.995
10/12/2013  13:09:00     -121.056     -142.964       13.994      115.910      137.799       67.719    13435.129    18988.565     4585.807        3.614        1.850      187.333       74.653        0.159      341.949       17.014      856.981
10/12/2013  13:10:00      -59.651     -117.991       -3.767       88.644      112.104       59.905     7857.836    12567.260     3588.654        2.075        1.201      132.213       51.543        0.152      342.028       17.151      856.965
10/12/2013  13:11:00       67.278     -127.682       -5.979       74.403      112.630       73.372     5535.781    12685.589     5383.507        2.223        1.180      144.323       47.198        0.107      342.042       17.174      856.912
10/12/2013  13:12:00      -28.559       -9.003       42.950       46.288       40.202       46.894     2142.582     1616.194     2199.093        0.435        0.298       29.944       28.392        0.899      342.165       17.383      856.858
10/12/2013  13:13:00        9.286       45.329      121.034       89.818      101.762       86.116     8067.189    10355.514     7416.013        2.131        1.292       46.271       66.996        2.096      342.236       17.504      856.778
10/12/2013  13:14:00     -118.980     -225.366        3.114      155.119      146.392       72.173    24061.861    21430.566     5208.957        5.782        2.535      254.845       82.771        0.105      342.289       17.592      856.823
10/12/2013  13:15:00     -332.899     -218.697      -14.467      141.188      117.248       64.713    19934.170    13747.032     4187.812        9.836        1.893      398.310       62.434        0.025      342.217       17.468      856.831
10/12/2013  13:16:00     -223.043     -138.996       15.693      160.978      121.227       76.683    25914.060    14695.867     5880.248        5.789        2.325      262.808       76.802        0.085      342.351       17.696      856.826
10/12/2013  13:17:00     -525.021     -327.196      -37.409      199.186      145.415       91.765    39674.970    21145.662     8420.742       22.666        3.462      618.631      103.380        0.028      342.086       17.245      856.767
10/12/2013  13:18:00     -305.951     -298.182        0.530      195.298      170.682       87.132    38141.263    29132.450     7591.974       12.868        3.743      427.221       97.434        0.052      342.136       17.331      856.728
10/12/2013  13:19:00     -261.829     -212.013       -9.522      164.678      174.617       76.332    27118.856    30491.262     5826.619        8.850        3.172      336.903       88.401        0.069      342.285       17.584      856.718
10/12/2013  13:20:00     -119.131     -164.966        6.917      138.498      103.012       54.446    19181.605    10611.376     2964.318        3.710        1.638      203.485       56.941        0.078      342.484       17.922      856.691
10/12/2013  13:21:00     -247.159     -209.840       21.147      241.194      151.228       94.314    58174.586    22869.854     8895.120        9.774        4.497      324.223      120.358        0.138      342.430       17.833      856.648
10/12/2013  13:22:00     -308.619     -130.687      -18.845      151.475      183.011       80.385    22944.813    33492.924     6461.781        8.778        3.145      335.149       80.123        0.057      342.316       17.638      856.628
10/12/2013  13:23:00     -136.008     -137.335       -2.417      119.516       86.846       52.222    14283.968     7542.177     2727.120        3.095        1.228      193.285       51.561        0.071      342.345       17.685      856.604
10/12/2013  13:24:00     -332.397     -265.481      -12.402      231.229      149.325       81.258    53466.969    22297.993     6602.918       13.173        4.118      425.403       81.790        0.037      342.400       17.780      856.564
10/12/2013  13:25:00     -378.604     -231.877       12.685      184.390      152.284       86.143    33999.768    23190.281     7420.693       13.093        3.231      443.968       81.293        0.034      342.485       17.926      856.566
10/12/2013  13:26:00     -401.236     -302.052       -4.373      214.230      171.534       89.288    45894.299    29424.004     7972.301       16.775        4.165      502.221      108.617        0.047      342.260       17.543      856.552
10/12/2013  13:27:00     -325.051     -225.455        6.698      205.487      147.781       93.578    42224.813    21839.273     8756.873       11.466        3.641      395.586       96.625        0.060      342.288       17.588      856.543
10/12/2013  13:28:00     -449.452     -305.558      -22.287      250.005      204.743      104.010    62502.638    41919.714    10818.090       20.553        5.762      543.483      125.777        0.054      342.326       17.655      856.504
10/12/2013  13:29:00     -256.427     -230.077        9.051      180.869      141.656       85.617    32713.607    20066.539     7330.186        8.943        3.006      344.515       92.754        0.072      342.556       18.046      856.504
10/12/2013  13:30:00     -404.635     -161.227        0.632      171.547      181.308       93.444    29428.403    32872.603     8731.766       13.036        3.552      435.573       88.972        0.042      342.394       17.769      856.505
10/12/2013  13:31:00     -324.880     -113.148       -9.110      161.051      146.216       80.976    25937.297    21379.007     6557.115        8.614        2.694      344.019       77.055        0.050      342.472       17.903      856.484
10/12/2013  13:32:00     -231.372     -354.496       -4.456      169.123      176.273       86.499    28602.730    31072.253     7482.110       12.318        3.358      423.321       88.624        0.044      342.488       17.929      856.489
10/12/2013  13:33:00     -260.716     -261.241       11.017      143.402      199.880       90.728    20564.001    39951.889     8231.589       10.253        3.437      369.079       85.398        0.054      342.237       17.501      856.478
10/12/2013  13:34:00     -424.327     -175.867       -2.241      173.701      138.937       91.186    30171.865    19303.536     8314.868       13.438        2.890      459.328       78.089        0.029      342.291       17.595      856.456
10/12/2013  13:35:00     -257.334     -129.694        2.177      131.950      131.125       59.920    17410.910    17193.640     3590.405        6.061        1.910      288.169       57.039        0.039      342.484       17.924      856.448
10/12/2013  13:36:00     -220.792     -212.102        7.860      191.578      172.484       92.344    36702.173    29750.701     8527.496        8.437        3.749      306.164       94.336        0.095      342.585       18.094      856.418
10/12/2013  13:37:00     -301.099     -262.835       -8.836      157.680      150.305       96.165    24863.011    22591.597     9247.695       10.825        2.835      399.678       99.963        0.063      342.520       17.985      856.430
10/12/2013  13:38:00     -368.585     -236.085        1.960      201.635      131.858       86.307    40656.713    17386.477     7448.873       12.853        3.275      437.711       94.333        0.046      342.340       17.677      856.439
10/12/2013  13:39:00     -300.209     -282.973       -9.811      216.412      184.925       82.054    46834.294    34197.361     6732.909       12.901        4.388      412.552      100.014        0.059      342.469       17.897      856.402
10/12/2013  13:40:00     -184.006     -127.775       21.928      249.841      172.206       91.388    62420.458    29654.954     8351.676        7.553        5.021      224.020      109.425        0.239      342.712       18.312      856.390
10/12/2013  13:41:00     -286.790     -158.479       38.127      310.945      200.527      107.823    96686.884    40211.133    11625.718       12.864        7.426      327.665      139.288        0.181      342.561       18.055      856.383
10/12/2013  13:42:00     -327.314     -198.533       10.895      238.033      217.008      106.701    56659.883    47092.412    11385.143       13.088        5.757      382.818      124.234        0.105      342.493       17.938      856.413
10/12/2013  13:43:00     -342.171     -247.141      -17.197      195.678      198.480       87.073    38289.697    39394.414     7581.708       13.184        4.263      422.090       76.726        0.033      342.440       17.849      856.413
10/12/2013  13:44:00     -344.615     -262.334      -10.529      216.330      215.031       90.346    46798.808    46238.332     8162.428       14.442        5.060      433.103      107.054        0.061      342.375       17.738      856.446
10/12/2013  13:45:00     -187.880     -130.589       14.901      123.332      124.763       69.280    15210.861    15565.794     4799.709        4.407        1.779      228.807       71.484        0.098      342.341       17.681      856.434
10/12/2013  13:46:00      -98.222      -92.287       -0.606       87.282       81.956       50.497     7618.070     6716.763     2549.938        1.752        0.844      134.776       49.991        0.138      342.287       17.589      856.384
10/12/2013  13:47:00     -304.732     -113.269        2.390      140.138      116.721       63.660    19638.653    13623.903     4052.602        7.150        1.866      325.102       71.273        0.048      342.515       17.975      856.361
10/12/2013  13:48:00     -307.143     -168.644      -14.885      180.843      182.083       90.170    32704.235    33154.089     8130.597        9.848        3.699      350.396       80.238        0.052      342.428       17.827      856.343
10/12/2013  13:49:00     -486.548     -271.403      -30.671      239.062      184.860       99.342    57150.734    34173.055     9868.820       20.624        5.060      557.125       96.050        0.030      342.222       17.477      856.351
10/12/2013  13:50:00     -219.192     -158.405        6.668      175.007      118.270       73.037    30627.390    13987.753     5334.410        6.156        2.497      270.439       82.341        0.093      342.492       17.937      856.367
10/12/2013  13:51:00     -272.746      -70.491        9.004      201.666      130.186       76.874    40669.354    16948.347     5909.639        7.147        3.176      281.708       86.873        0.095      342.603       18.125      856.311
10/12/2013  13:52:00     -184.803     -109.487       11.623      187.603      130.434       76.235    35195.029    17012.906     5811.768        5.214        2.901      214.801       56.867        0.070      342.648       18.201      856.290
10/12/2013  13:53:00     -222.675     -227.644        4.894      200.212      212.175       89.814    40084.890    45018.061     8066.475        9.728        4.658      318.443       86.227        0.073      342.616       18.147      856.277
10/12/2013  13:54:00     -291.347     -300.336      -13.653      239.753      170.006       96.460    57481.717    28901.928     9304.604       13.546        4.784      418.432      115.301        0.076      342.581       18.088      856.290
10/12/2013  13:55:00     -351.114     -316.412       -9.110      189.294      146.422       85.807    35832.072    21439.424     7362.914       14.404        3.232      472.650       88.635        0.035      342.650       18.204      856.290
10/12/2013  13:56:00     -296.976     -242.904       -4.844      190.279      133.784       88.009    36206.269    17898.188     7745.671       10.452        3.093      383.663      100.696        0.069      342.577       18.082      856.289
10/12/2013  13:57:00     -224.196     -228.333        8.404      169.103      142.517       78.170    28595.710    20311.061     6110.476        7.873        2.751      319.999       89.920        0.079      342.588       18.100      856.261
10/12/2013  13:58:00     -418.298     -184.360       -2.286      302.233      205.603       78.902    91344.606    42272.705     6225.598       17.438        6.992      457.124       97.201        0.045      342.621       18.154      856.256
10/12/2013  13:59:00     -441.953     -333.948       -5.208      243.481      178.576      109.177    59283.210    31889.291    11919.698       20.496        5.155      553.935      110.449        0.040      342.361       17.712      856.238
10/12/2013  14:00:00     -439.696     -284.851       -1.949      221.090      191.111      106.548    48880.671    36523.415    11352.495       18.560        4.838      523.901      119.367        0.052      342.342       17.680      856.257
10/12/2013  14:01:00     -349.931     -175.044      -14.286      151.878      144.465       71.179    23066.988    20870.113     5066.409       10.114        2.450      391.270       67.926        0.030      342.291       17.594      856.259
10/12/2013  14:02:00     -420.654     -308.257      -13.881      197.817      191.512       97.967    39131.502    36676.938     9597.441       17.877        4.270      521.509      104.792        0.040      342.283       17.581      856.228
10/12/2013  14:03:00     -252.785     -238.521       -5.246      143.143      144.626       75.213    20490.046    20916.812     5657.060        8.393        2.353      347.553       74.646        0.046      342.355       17.703      856.225
10/12/2013  14:04:00     -241.593     -183.880      -15.796      112.806       96.853       59.143    12725.257     9380.455     3497.874        5.901        1.280      303.610       49.569        0.027      342.569       18.066      856.212
10/12/2013  14:05:00     -234.410     -196.721       -0.340      141.023      127.206       68.606    19887.450    16181.345     4706.847        6.720        2.039      306.018       50.214        0.027      342.686       18.264      856.175
10/12/2013  14:06:00     -200.297     -284.929        7.968      179.786      253.060       99.825    32323.088    64039.358     9965.109       11.383        5.316      348.286      101.042        0.084      342.600       18.119      856.199
10/12/2013  14:07:00     -330.414     -294.284        2.655      208.912      201.171       94.706    43644.174    40469.928     8969.218       14.441        4.654      442.467      116.049        0.069      342.485       17.926      856.207
10/12/2013  14:08:00     -215.544     -252.849       -2.872      147.988      151.386       79.355    21900.338    22917.577     6297.224        8.075        2.556      332.253       75.099        0.051      342.422       17.818      856.201
10/12/2013  14:09:00     -241.714     -261.643       -0.802      185.342      125.800       77.073    34351.700    15825.684     5940.213        9.149        2.806      356.206       80.591        0.051      342.504       17.957      856.176
10/12/2013  14:10:00     -503.973     -390.221      -26.534      236.147      177.878      105.881    55765.280    31640.700    11210.699       25.277        4.931      637.386      131.719        0.043      342.257       17.537      856.165
10/12/2013  14:11:00     -303.300     -307.866        2.638      200.579      170.798       99.090    40232.098    29172.089     9818.809       13.299        3.961      432.172      116.442        0.073      342.276       17.570      856.197
10/12/2013  14:12:00     -304.937     -161.888       -1.480      212.813      135.898       78.702    45289.401    18468.210     6193.983        9.456        3.498      345.245       94.766        0.075      342.545       18.027      856.189
10/12/2013  14:13:00     -467.763     -275.788      -21.648      207.259      152.867       82.233    42956.129    23368.287     6762.266       18.419        3.654      543.012       92.901        0.029      342.242       17.511      856.193
10/12/2013  14:14:00     -378.215     -236.003        4.283      190.174      158.606       84.394    36166.114    25155.757     7122.383       13.359        3.422      445.807       98.006        0.048      342.270       17.559      856.171
10/12/2013  14:15:00     -404.870     -225.671        8.922      222.968      186.693       95.729    49714.852    34854.239     9163.986       15.431        4.687      463.515      104.749        0.051      342.389       17.762      856.172
10/12/2013  14:16:00     -404.232     -265.257        5.705      221.310      178.893      103.900    48977.953    32002.669    10795.280       16.277        4.589      483.493      109.377        0.051      342.297       17.604      856.179
10/12/2013  14:17:00     -426.326     -267.815      -25.243      150.338      117.324       65.258    22601.655    13764.990     4258.577       14.736        2.031      503.466       64.180        0.016      342.112       17.292      856.159
10/12/2013  14:18:00     -195.702     -205.457        8.436      135.407      112.286       63.659    18334.945    12608.125     4052.491        5.778        1.750      283.746       74.638        0.069      342.421       17.814      856.148
10/12/2013  14:19:00     -375.834      -88.269        3.547      208.552      136.716       85.186    43493.756    18691.202     7256.723       10.923        3.472      386.061       88.100        0.052      342.558       18.049      856.113
10/12/2013  14:20:00     -258.998     -111.335        8.129      191.994      147.356       73.633    36861.638    21713.911     5421.839        7.176        3.200      281.914       85.569        0.092      342.602       18.123      856.092
10/12/2013  14:21:00     -409.410     -248.671      -12.410      156.008      116.273       74.074    24338.429    13519.307     5486.940       13.647        2.167      479.013       73.091        0.023      342.419       17.811      856.075
10/12/2013  14:22:00     -262.386     -314.160        4.377      175.209      215.486       93.403    30698.291    46434.403     8724.136       12.669        4.293      409.320      108.704        0.071      342.481       17.918      856.083
10/12/2013  14:23:00     -314.980     -326.892        5.678      186.764      207.666       94.561    34880.873    43124.983     8941.704       14.651        4.347      453.950       99.416        0.048      342.430       17.831      856.091
10/12/2013  14:24:00     -149.972     -147.790        5.102      144.015       97.193       65.354    20740.405     9446.515     4271.159        3.940        1.723      210.555       27.885        0.018      342.651       18.207      856.094
10/12/2013  14:25:00      -53.867     -229.634       24.437      158.731      137.362       82.393    25195.565    18868.246     6788.531        5.353        2.543      235.867       73.010        0.096      342.644       18.195      856.091
10/12/2013  14:26:00     -162.127     -121.412       12.523      140.599       99.980       74.514    19767.962     9995.993     5552.392        3.824        1.766      202.548       61.504        0.092      342.576       18.080      856.116
10/12/2013  14:27:00     -163.695     -175.751        8.212      126.548      100.350       52.613    16014.391    10070.101     2768.150        4.330        1.443      240.176       55.272        0.053      342.455       17.875      856.113
10/12/2013  14:28:00      -82.034     -112.955        9.313       89.074       78.485       41.607     7934.141     6159.865     1731.163        1.770        0.791      139.601       35.036        0.063      342.425       17.826      856.094
10/12/2013  14:29:00      -65.938      -77.251        8.578      107.457       74.367       41.188    11546.963     5530.482     1696.492        1.458        0.939      101.566       38.015        0.140      342.755       18.386      856.062
10/12/2013  14:30:00      -89.205     -194.424       35.612      153.081      134.232       88.691    23433.648    18018.353     7866.102        4.816        2.466      213.911       91.172        0.182      342.826       18.505      856.078
10/12/2013  14:31:00     -372.978     -319.049       -8.397      202.681      172.244       91.185    41079.456    29667.952     8314.758       16.000        3.953      490.821       96.289        0.038      342.467       17.895      856.083
10/12/2013  14:32:00     -363.747     -278.394        9.800      209.365      169.598       92.534    43833.772    28763.593     8562.453       14.552        4.058      458.056       97.279        0.045      342.336       17.670      856.079
10/12/2013  14:33:00     -183.603     -148.615       23.801      147.489      161.014       80.534    21752.944    25925.533     6485.725        5.525        2.708      236.213       84.685        0.129      342.611       18.139      856.084
10/12/2013  14:34:00     -370.777     -233.216       -6.952      184.852      209.544       88.385    34170.365    43908.686     7811.824       13.888        4.295      438.024      106.523        0.059      342.456       17.875      856.086
10/12/2013  14:35:00     -242.508     -241.041       -4.132      160.764      153.858       89.718    25845.127    23672.395     8049.297        8.724        2.878      341.922       83.794        0.060      342.583       18.092      856.095
10/12/2013  14:36:00     -323.008     -304.939       10.974      233.009      172.349      120.012    54293.291    29704.193    14402.853       14.790        4.920      444.210      125.178        0.079      342.474       17.906      856.087
10/12/2013  14:37:00     -407.691     -267.744       -7.142      212.454      166.283       93.366    45136.501    27650.012     8717.212       15.971        4.075      487.748      112.395        0.053      342.435       17.840      856.108
10/12/2013  14:38:00     -314.985     -138.039        0.538      178.785      137.695       85.388    31964.246    18959.986     7291.106        8.823        2.911      343.904       69.450        0.041      342.418       17.813      856.113
10/12/2013  14:39:00     -100.647     -106.652       14.260      132.559      110.992       56.970    17571.916    12319.212     3245.540        2.742        1.657      146.644       49.661        0.115      342.639       18.187      856.133
10/12/2013  14:40:00     -253.640     -136.728       12.909      147.716      161.836       76.545    21820.080    26190.983     5859.137        6.852        2.694      288.146       80.867        0.079      342.541       18.019      856.142
10/12/2013  14:41:00     -155.160     -335.111        0.867      134.609      174.606       68.511    18119.624    30487.100     4693.819        9.483        2.665      369.288       65.032        0.031      342.402       17.782      856.144
10/12/2013  14:42:00     -195.051     -352.333      -20.767      130.274      149.693       69.364    16971.200    22407.950     4811.389       10.339        2.210      402.720       47.293        0.014      342.392       17.766      856.133
10/12/2013  14:43:00     -198.491     -226.532       -0.607      164.915      146.919       66.404    27197.094    21585.259     4409.479        7.194        2.660      301.190       69.456        0.053      342.514       17.974      856.167
10/12/2013  14:44:00     -254.398     -179.085       -7.952      165.213       84.714       59.913    27295.358     7176.486     3589.535        6.745        1.903      311.110       69.680        0.050      342.543       18.024      856.160
10/12/2013  14:45:00     -114.638     -160.947       13.971      139.246      135.193       63.691    19389.466    18277.269     4056.595        4.047        2.086      197.600       60.461        0.094      342.626       18.163      856.132
10/12/2013  14:46:00     -112.006      -53.642        8.084      116.474       80.693       43.371    13566.086     6511.421     1881.041        1.872        1.098      124.189       41.761        0.113      342.748       18.373      856.134
10/12/2013  14:47:00      -83.032      -50.347       14.821      102.576       73.403       47.469    10521.751     5387.985     2253.296        1.390        0.908       97.104       45.613        0.221      342.794       18.454      856.118
10/12/2013  14:48:00     -179.420     -128.619        5.026      189.265      162.503       77.409    35821.150    26407.262     5992.223        5.848        3.411      220.759      103.655        0.220      342.842       18.532      856.127
10/12/2013  14:49:00     -305.978     -117.608        4.006      208.805      144.657       75.476    43599.599    20925.536     5696.657        8.883        3.511      327.802       86.148        0.069      342.667       18.235      856.120
10/12/2013  14:50:00     -109.766     -218.984       10.100      139.227      140.456       69.580    19384.078    19728.025     4841.380        5.202        2.198      244.954       47.003        0.037      342.716       18.318      856.141
10/12/2013  14:51:00     -265.509     -128.061        7.134      184.064      138.840       76.103    33879.374    19276.476     5791.639        7.293        2.947      294.779       81.115        0.076      342.776       18.419      856.152
10/12/2013  14:52:00     -311.972      -61.897       18.928      213.621      172.229       87.239    45633.751    29662.766     7610.682        9.220        4.145      318.053      103.955        0.107      342.580       18.086      856.139
10/12/2013  14:53:00     -174.707      -27.858       26.573      113.478      102.238       69.056    12877.217    10452.604     4768.682        3.005        1.405      176.914       75.669        0.183      342.896       18.623      856.134
10/12/2013  14:54:00     -158.896       16.701       -3.929      119.828       57.219       50.195    14358.716     3273.983     2519.546        2.284        1.008      159.772       62.928        0.155      342.770       18.410      856.099
10/12/2013  14:55:00     -256.788     -197.524      -12.706      162.405      152.475       77.418    26375.376    23248.587     5993.599        8.036        2.781      323.969       59.002        0.033      342.710       18.308      856.111
10/12/2013  14:56:00     -300.262     -264.015       -4.495      220.394      160.031       96.625    48573.505    25610.075     9336.463       12.168        4.176      399.827      102.325        0.065      342.643       18.194      856.088
10/12/2013  14:57:00     -210.299     -301.105       -0.389      188.994      180.829       75.672    35718.783    32699.067     5726.262       10.450        3.707      367.273       69.861        0.036      342.595       18.112      856.136
10/12/2013  14:58:00     -377.009     -248.975      -14.021      221.559      134.222       89.458    49088.277    18015.450     8002.802       13.970        3.755      451.801       76.785        0.029      342.513       17.971      856.106
10/12/2013  14:59:00     -202.507     -132.658        6.929      165.250      121.709       62.149    27307.433    14812.997     3862.472        5.231        2.299      242.089       61.380        0.064      342.604       18.125      856.137
10/12/2013  15:00:00     -277.588     -221.664       -0.351      188.678      193.445       88.948    35599.428    37421.072     7911.701       10.354        4.047      355.232       93.492        0.069      342.638       18.186      856.165
10/12/2013  15:01:00     -325.016     -343.319       -5.814      233.996      231.663      116.467    54754.356    53667.697    13564.657       17.274        6.099      472.762      111.764        0.056      342.342       17.681      856.165
10/12/2013  15:02:00     -140.271     -262.722       -1.567      167.951      171.550       90.226    28207.529    29429.400     8140.758        7.723        3.289      297.824       95.334        0.102      342.201       17.440      856.154
10/12/2013  15:03:00     -306.150     -216.593        2.087      121.356      134.968       72.298    14727.353    18216.439     5227.022        8.940        1.909      375.021       64.982        0.030      342.386       17.757      856.121
10/12/2013  15:04:00     -180.181     -134.016       -7.772      109.521       92.550       47.659    11994.862     8565.575     2271.334        3.665        1.142      224.556       41.784        0.035      342.643       18.194      856.141
10/12/2013  15:05:00     -384.453     -119.913       13.703      266.226      157.193       74.432    70876.345    24709.617     5540.057       13.173        5.056      402.720      105.352        0.068      342.708       18.304      856.173
10/12/2013  15:06:00     -274.090     -145.738       11.927      239.315      157.481       82.573    57271.861    24800.355     6818.290        9.268        4.445      310.427      103.247        0.111      342.707       18.302      856.157
10/12/2013  15:07:00     -393.562     -315.386        8.001      248.750      223.721       92.799    61876.559    50050.869     8611.635       18.746        6.027      504.341       86.274        0.029      342.378       17.742      856.134
10/12/2013  15:08:00     -226.687     -387.410        5.143      195.496      241.739       93.810    38218.535    58437.892     8800.260       15.346        5.273      448.858       96.830        0.047      342.336       17.671      856.084
10/12/2013  15:09:00     -402.769     -328.781      -21.782      221.816      184.551      102.458    49202.536    34058.932    10497.616       18.226        4.688      519.923       77.318        0.022      342.469       17.898      856.078
10/12/2013  15:10:00     -350.616     -280.534        4.363      211.815      184.223       98.371    44865.792    33938.095     9676.817       14.505        4.424      449.033       97.889        0.048      342.456       17.876      856.070
10/12/2013  15:11:00     -414.437     -303.240      -11.653      181.495      172.495       94.437    32940.327    29754.522     8918.394       16.772        3.581      513.530      102.397        0.040      342.202       17.443      856.116
10/12/2013  15:12:00     -330.911     -263.844       -6.172      206.305      139.450       73.645    42561.772    19446.236     5423.619       12.328        3.372      423.221       72.108        0.029      342.342       17.681      856.089
10/12/2013  15:13:00     -210.833     -246.685      -10.764      189.209      196.281       95.051    35799.979    38526.055     9034.698        9.437        4.168      324.506      106.335        0.107      342.408       17.794      856.109
10/12/2013  15:14:00     -230.213     -225.808       12.073      169.888      157.409       83.582    28861.972    24777.743     6985.920        8.237        3.031      322.471       89.651        0.077      342.559       18.049      856.099
10/12/2013  15:15:00     -312.866     -212.981      -17.491      204.945      182.166       92.887    42002.543    33184.272     8627.915       11.367        4.191      378.479       99.328        0.069      342.537       18.012      856.114
10/12/2013  15:16:00     -182.846      -98.280       44.899      198.310      186.290       91.929    39326.773    34703.896     8450.959        6.378        4.124      207.585      100.984        0.237      342.688       18.271      856.128
10/12/2013  15:17:00     -423.192     -342.306      -21.925      229.202      186.646       91.357    52533.778    34836.616     8346.111       19.621        4.786      544.302       91.726        0.028      342.368       17.726      856.160
10/12/2013  15:18:00     -369.414     -229.773        1.152      221.180      186.049       89.398    48920.600    34614.228     7991.932       14.038        4.576      435.043       97.661        0.050      342.173       17.395      856.171
10/12/2013  15:19:00     -407.300     -157.575       -5.567      171.548      134.967       77.687    29428.555    18216.226     6035.230       12.221        2.684      436.718       63.139        0.021      342.343       17.682      856.125
10/12/2013  15:20:00     -228.994     -136.393      -16.082      193.244      164.901       87.971    37343.246    27192.176     7738.903        7.177        3.614      266.536       96.568        0.131      342.587       18.099      856.208
10/12/2013  15:21:00     -469.152     -117.077      -33.423      212.351      180.799       72.911    45092.862    32688.397     5316.073       15.900        4.155      483.540       65.198        0.018      342.374       17.734      856.204
10/12/2013  15:22:00     -420.182     -117.682       -6.548      231.381      116.072       81.071    53537.108    13472.778     6572.520       13.200        3.679      436.351      101.193        0.054      342.340       17.678      856.175
10/12/2013  15:23:00     -476.375     -117.208       -6.962      177.718      132.675       82.730    31583.697    17602.577     6844.276       14.836        2.802      490.582       82.380        0.028      342.321       17.646      856.197
10/12/2013  15:24:00     -190.929      -83.302       11.859      172.064      140.465       83.086    29605.996    19730.289     6903.270        4.988        2.812      208.310       98.913        0.225      342.510       17.969      856.207
10/12/2013  15:25:00     -230.526     -115.838       -3.417      169.463      133.046       86.018    28717.729    17701.143     7399.152        6.018        2.691      257.993       94.238        0.133      342.409       17.794      856.201
10/12/2013  15:26:00     -508.370       34.914      -31.561      250.411      155.832       81.311    62705.633    24283.474     6611.447       17.711        4.680      509.568      108.951        0.046      342.279       17.574      856.223
10/12/2013  15:27:00     -315.768      -61.352        1.920      199.984      178.477       91.869    39993.494    31854.085     8439.878        9.187        4.014      321.673       82.200        0.065      342.346       17.687      856.229
10/12/2013  15:28:00     -338.631     -210.152       14.274      264.921      166.536      104.736    70183.219    27734.176    10969.682       13.394        5.444      398.541      129.601        0.106      342.189       17.421      856.252
10/12/2013  15:29:00     -382.596     -231.591       -8.892      232.740      182.142      108.776    54167.892    33175.727    11832.296       14.961        4.959      447.230      122.568        0.075      342.021       17.135      856.265
10/12/2013  15:30:00     -374.111     -166.849      -10.820      258.049      160.809       91.055    66589.415    25859.599     8291.021       13.431        5.037      409.631      120.029        0.086      342.014       17.125      856.267
10/12/2013  15:31:00     -372.821     -123.430        3.543      188.144      154.836       86.627    35398.315    23974.276     7504.213       11.055        3.344      392.722       90.519        0.053      341.919       16.963      856.282
10/12/2013  15:32:00     -289.733      -91.240        7.940      205.752      179.722       89.402    42333.747    32299.854     7992.678        8.746        4.131      303.760       94.503        0.097      341.983       17.071      856.308
10/12/2013  15:33:00     -417.798     -286.972      -18.136      207.339      228.547      107.687    42989.487    52233.596    11596.533       18.201        5.341      506.861       96.154        0.036      341.903       16.934      856.289
10/12/2013  15:34:00     -333.361     -223.421       13.463      275.918      180.125      100.861    76130.477    32445.058    10172.891       13.996        5.937      401.306      115.390        0.083      341.862       16.865      856.270
10/12/2013  15:35:00     -237.748     -178.963       22.809      186.098      154.750      105.322    34632.402    23947.598    11092.697        7.936        3.484      297.577      112.822        0.144      341.924       16.971      856.284
10/12/2013  15:36:00     -239.542     -130.854        1.261      185.126      129.106       84.861    34271.567    16668.434     7201.305        6.631        2.907      272.953       89.534        0.108      341.923       16.969      856.279
10/12/2013  15:37:00     -320.567      -48.536       -5.963      159.387      164.434       77.658    25404.373    27038.580     6030.838        8.180        2.924      324.221       91.660        0.080      341.952       17.019      856.265
10/12/2013  15:38:00     -213.499        9.960       -5.064      144.745      123.969       71.786    20951.095    15368.343     5153.253        4.358        2.074      213.731       67.038        0.098      342.040       17.168      856.260
10/12/2013  15:39:00     -502.148      -70.720      -19.529      177.498      175.953       79.577    31505.510    30959.578     6332.551       16.315        3.440      507.104       82.141        0.026      341.926       16.975      856.256
10/12/2013  15:40:00     -430.774     -100.603      -27.202      167.573      140.220       68.699    28080.732    19661.694     4719.556       12.443        2.623      442.365       75.513        0.029      342.051       17.187      856.238
10/12/2013  15:41:00     -275.921       34.918      -25.660      214.198       93.614       67.239    45880.911     8763.609     4521.045        6.858        2.958      278.122       75.122        0.073      342.131       17.324      856.244
10/12/2013  15:42:00     -289.974      -69.982      -13.929      230.846      179.506       75.142    53289.941    32222.276     5646.355        9.015        4.558      298.299       82.983        0.077      342.187       17.417      856.223
10/12/2013  15:43:00     -408.483     -325.611       -1.828      232.549      203.225       96.274    54079.091    41300.408     9268.762       18.875        5.232      522.380      118.564        0.052      342.014       17.123      856.241
10/12/2013  15:44:00     -337.200     -299.168        8.481      282.295      224.418      140.502    79690.721    50363.535    19740.790       17.651        7.490      450.783      157.538        0.122      341.882       16.900      856.232
10/12/2013  15:45:00     -359.984     -268.496        1.528      212.648      144.742       99.019    45219.277    20950.282     9804.768       13.881        3.799      449.086      112.947        0.063      341.941       17.000      856.260
10/12/2013  15:46:00     -261.983     -154.516        3.597      197.909      171.380       82.676    39168.150    29371.064     6835.309        8.393        3.769      304.155       92.285        0.092      342.064       17.209      856.273
10/12/2013  15:47:00     -349.998     -251.618        1.752      270.817      223.950      109.586    73341.742    50153.405    12009.189       16.063        6.775      431.057      113.134        0.069      341.902       16.933      856.282
10/12/2013  15:48:00     -331.318     -200.174       13.852      280.480      186.840      117.102    78668.816    34909.286    13712.872       13.864        6.365      387.093      127.870        0.109      341.894       16.919      856.258
10/12/2013  15:49:00     -334.791     -235.446      -17.924      207.862      194.651      106.460    43206.692    37889.203    11333.705       13.012        4.621      409.292      119.958        0.086      341.892       16.917      856.264
10/12/2013  15:50:00     -242.700     -132.345        4.645      189.072      117.488       80.719    35748.379    13803.437     6515.505        6.624        2.803      276.439       95.951        0.120      341.969       17.047      856.260
10/12/2013  15:51:00     -326.293     -216.884       -9.371      236.178      167.562       97.661    55779.955    28076.954     9537.574       12.348        4.670      391.798      118.017        0.091      341.876       16.891      856.276
10/12/2013  15:52:00     -293.097      -91.262        0.026      226.312      199.480       97.507    51217.186    39792.111     9507.575        9.736        5.026      306.977      107.690        0.123      341.884       16.904      856.244
10/12/2013  15:53:00     -193.947     -109.525       23.626      206.291      174.410       93.642    42555.914    30418.690     8768.758        6.594        4.087      222.735       99.572        0.200      341.947       17.009      856.242
10/12/2013  15:54:00     -372.891     -102.378      -14.310      198.696      199.555       75.581    39480.250    39822.153     5712.473       11.736        4.251      386.689       81.496        0.044      341.926       16.973      856.247
10/12/2013  15:55:00     -456.865      -60.947      -25.770      212.527      146.857       81.343    45167.842    21567.077     6616.727       14.321        3.668      460.912      100.773        0.048      341.925       16.974      856.240
10/12/2013  15:56:00     -347.678      -29.625        2.944      179.547      120.457       66.980    32237.070    14509.922     4486.354        8.649        2.562      348.938       81.958        0.055      342.034       17.158      856.241
10/12/2013  15:57:00     -349.434     -115.827       -1.702      186.091      137.640       73.564    34629.810    18944.693     5411.677        9.724        2.949      368.131       85.996        0.055      341.969       17.047      856.231
10/12/2013  15:58:00     -240.832      -46.342      -12.943      190.965      118.259       67.347    36467.800    13985.163     4535.638        5.764        2.749      245.250       84.810        0.120      342.008       17.113      856.234
10/12/2013  15:59:00     -315.396     -184.670      -16.389      175.148      139.893       87.869    30676.728    19570.189     7720.951        9.590        2.898      365.483       94.280        0.067      341.849       16.844      856.192
10/12/2013  16:00:00     -395.918      -27.051      -16.691      235.455      150.528       88.897    55439.184    22658.746     7902.715       12.186        4.300      396.841       97.967        0.061      341.919       16.965      856.203
10/12/2013  16:01:00     -196.102      -92.681        2.772      199.812      158.959       91.834    39924.971    25268.103     8433.493        6.033        3.681      216.900      102.405        0.223      341.973       17.057      856.181
10/12/2013  16:02:00     -259.282     -151.345      -15.903      157.912      128.952       83.987    24936.286    16628.591     7053.813        6.949        2.431      300.221       75.957        0.064      341.931       16.982      856.196
10/12/2013  16:03:00     -287.504     -149.716      -10.843      185.420      138.310       72.458    34380.442    19129.762     5250.170        8.196        2.938      324.150       73.557        0.051      341.974       17.058      856.214
10/12/2013  16:04:00     -452.804      -29.294      -10.710      218.775      151.531       84.889    47862.668    22961.667     7206.168       14.200        3.902      453.751      100.740        0.049      342.008       17.112      856.219
10/12/2013  16:05:00     -404.804     -228.647       -2.514      254.771      183.090      117.990    64908.407    33521.923    13921.649       16.423        5.618      464.915      125.000        0.072      341.847       16.840      856.228
10/12/2013  16:06:00     -480.531     -197.747      -26.481      198.602      164.769       91.365    39442.898    27148.919     8347.533       17.281        3.747      519.629       86.424        0.028      341.677       16.553      856.209
10/12/2013  16:07:00     -348.267     -147.880      -19.218      161.719      150.553       84.214    26153.158    22666.144     7092.069        9.971        2.796      378.363       86.011        0.052      341.743       16.664      856.203
10/12/2013  16:08:00     -345.679     -148.493      -13.356      190.171      142.781       68.555    36165.162    20386.285     4699.835       10.147        3.063      376.223       74.549        0.039      341.798       16.756      856.191
10/12/2013  16:09:00     -356.879      -53.551      -27.597      143.636       95.831       64.660    20631.231     9183.652     4180.905        8.249        1.700      360.874       63.188        0.031      341.821       16.798      856.191
10/12/2013  16:10:00      -84.602      -40.901       22.564      140.609      113.597       75.299    19770.943    12904.391     5669.922        2.383        1.917       93.970       85.715        0.832      342.120       17.306      856.187
10/12/2013  16:11:00     -199.752     -152.899        1.626      187.658      120.092       87.345    35215.356    14422.152     7629.131        6.026        2.863      251.554       99.541        0.157      342.023       17.141      856.185
10/12/2013  16:12:00     -384.186     -155.683      -12.233      160.057      144.469       73.483    25618.209    20871.409     5399.719       11.193        2.594      414.531       72.905        0.031      341.896       16.923      856.165
10/12/2013  16:13:00     -319.184      -72.686       -6.917      162.632      170.934       74.396    26449.172    29218.262     5534.812        8.419        3.060      327.356       71.540        0.048      342.039       17.166      856.154
10/12/2013  16:14:00     -420.959      -91.339      -11.554      229.522      266.001      110.447    52680.420    70756.642    12198.571       16.063        6.782      430.754      123.510        0.082      341.970       17.050      856.131
10/12/2013  16:15:00     -218.217     -120.940       -6.136      230.452      164.704       92.983    53108.322    27127.463     8645.803        7.556        4.444      249.489       93.684        0.141      342.016       17.128      856.163
10/12/2013  16:16:00     -333.035     -145.187       -8.116      166.630      156.982       78.735    27765.472    24643.332     6199.180        9.532        2.930      363.306       80.831        0.050      341.966       17.042      856.143
10/12/2013  16:17:00     -545.956     -152.513      -33.386      213.500      195.355      109.733    45582.399    38163.718    12041.295       20.910        4.789      566.858      104.434        0.034      341.806       16.772      856.132
10/12/2013  16:18:00     -467.423     -107.712      -14.084      154.064      162.379       88.125    23735.595    26366.919     7766.045       14.406        2.893      479.672       87.749        0.033      341.798       16.757      856.124
10/12/2013  16:19:00     -285.164      -80.738        6.354      164.204      123.693       71.083    26963.116    15299.955     5052.723        6.759        2.366      296.373       71.635        0.058      341.872       16.883      856.136
10/12/2013  16:20:00     -282.272     -186.290       -3.153      168.968      111.767       69.751    28550.069    12491.853     4865.225        8.014        2.295      338.203       79.019        0.055      341.923       16.968      856.143
10/12/2013  16:21:00     -258.725     -209.552       -4.235      139.382      126.918       69.768    19427.306    16108.065     4867.596        7.563        2.020      332.942       78.764        0.056      341.974       17.056      856.150
10/12/2013  16:22:00     -279.892     -211.162        1.345      160.945      121.206       74.466    25903.212    14690.948     5545.172        8.453        2.307      350.612       67.967        0.038      341.981       17.068      856.151
10/12/2013  16:23:00     -245.450      -64.710        2.361      157.321      121.551       72.325    24749.832    14774.753     5230.894        5.459        2.238      253.836       68.537        0.073      342.013       17.122      856.141
10/12/2013  16:24:00     -554.907     -234.091      -16.065      233.241      174.248      102.540    54401.254    30362.302    10514.381       22.911        4.764      602.263      106.996        0.032      341.766       16.703      856.160
10/12/2013  16:25:00     -422.363     -292.950        1.890      236.342      207.426      103.597    55857.625    43025.360    10732.383       18.689        5.481      514.014      124.689        0.059      341.686       16.568      856.177
10/12/2013  16:26:00     -399.434     -219.712      -10.692      174.618      134.760       82.922    30491.503    18160.342     6876.046       13.172        2.776      455.873       85.247        0.035      341.669       16.539      856.197
10/12/2013  16:27:00     -338.496     -200.580      -15.538      160.006      183.139       74.369    25601.874    33540.038     5530.774       10.985        3.234      393.461       85.747        0.047      341.720       16.626      856.197
10/12/2013  16:28:00     -283.443      -65.518       -0.309      158.311      152.222       66.760    25062.236    23171.572     4456.837        6.865        2.635      290.917       73.849        0.064      341.789       16.742      856.205
10/12/2013  16:29:00     -433.917     -191.819      -18.826      262.907      202.494      104.702    69120.172    41003.805    10962.600       17.324        6.054      474.425      131.515        0.077      341.727       16.639      856.210
10/12/2013  16:30:00     -371.687     -285.645       -3.268      223.648      130.901       92.570    50018.223    17134.983     8569.245       14.772        3.786      468.769       94.042        0.040      341.673       16.545      856.234
10/12/2013  16:31:00     -384.702     -240.779       -9.811      241.170      188.004       89.688    58162.817    35345.451     8043.950       15.379        5.078      453.839      110.553        0.059      341.709       16.605      856.223
10/12/2013  16:32:00     -460.288     -318.776       -0.591      235.058      174.978      101.724    55252.369    30617.215    10347.756       20.483        4.811      559.896      105.677        0.036      341.594       16.411      856.223
10/12/2013  16:33:00     -317.893     -217.996       -5.567      193.292      143.608       94.932    37361.649    20623.222     9012.140       10.779        3.350      385.458       99.919        0.067      341.694       16.581      856.219
10/12/2013  16:34:00     -424.491     -192.993       -7.380      276.520      192.026      101.003    76463.233    36874.107    10201.547       17.049        6.177      466.303      121.747        0.068      341.647       16.501      856.238
10/12/2013  16:35:00     -259.828     -149.381       15.576      263.908      160.900       95.130    69647.228    25888.837     9049.722        9.731        5.229      299.709      123.531        0.170      341.721       16.629      856.232
10/12/2013  16:36:00     -454.443     -210.883      -15.703      208.901      225.844       94.697    43639.749    51005.542     8967.531       17.740        5.181      500.989       88.570        0.031      341.603       16.426      856.203
10/12/2013  16:37:00     -450.477     -150.265      -16.762      232.519      158.811       99.030    54065.307    25221.089     9806.849       15.742        4.455      474.878      121.528        0.065      341.697       16.587      856.183
10/12/2013  16:38:00     -420.830     -323.802      -10.716      248.484      183.624      109.415    61744.376    33717.754    11971.607       19.473        5.372      530.986      112.404        0.045      341.604       16.427      856.174
10/12/2013  16:39:00     -277.196     -137.057        0.724      181.413      165.669       68.554    32910.854    27446.200     4699.690        8.033        3.253      309.229       72.963        0.056      341.752       16.681      856.206
10/12/2013  16:40:00     -384.403     -251.381      -18.978      214.156      147.026       87.039    45862.846    21616.718     7575.850       14.317        3.753      459.302      103.050        0.050      341.676       16.551      856.201
10/12/2013  16:41:00     -325.301     -153.411       11.628      216.248      165.812       91.298    46762.988    27493.677     8335.330       10.602        4.130      359.661       96.282        0.072      341.700       16.591      856.179
10/12/2013  16:42:00     -452.438     -337.512      -21.690      228.347      181.980      107.279    52142.166    33116.590    11508.716       20.791        4.838      564.459      113.392        0.040      341.537       16.316      856.154
10/12/2013  16:43:00     -458.043     -207.323       -7.839      251.787      169.760       89.157    63396.918    28818.487     7948.889       17.649        5.008      502.778      101.220        0.041      341.548       16.333      856.148
10/12/2013  16:44:00     -295.024     -216.042       -7.378      250.649      186.143      102.327    62824.851    34649.052    10470.842       12.083        5.397      365.668      111.035        0.092      341.565       16.363      856.166
10/12/2013  16:45:00     -429.239     -206.341       -7.402      245.007      191.541       98.056    60028.213    36687.862     9614.967       16.658        5.317      476.259       95.186        0.040      341.533       16.308      856.132
10/12/2013  16:46:00     -376.960     -212.299      -10.313      312.273      179.411      100.834    97514.124    32188.166    10167.559       16.354        6.993      432.631      135.140        0.098      341.539       16.318      856.118
10/12/2013  16:47:00     -263.476     -201.107       22.506      224.102      195.538      116.307    50221.826    38235.271    13527.277       10.616        5.099      331.457      134.916        0.166      341.591       16.407      856.140
10/12/2013  16:48:00     -330.070     -210.427        5.802      274.876      190.077      103.174    75557.022    36129.252    10644.934       13.777        6.117      391.440      117.242        0.090      341.539       16.318      856.127
10/12/2013  16:49:00     -243.928     -207.629       24.043      252.961      179.903      123.465    63989.219    32365.150    15243.554       10.737        5.580      320.329      144.693        0.204      341.563       16.358      856.129
10/12/2013  16:50:00     -366.850     -199.188        3.212      247.588      186.059      106.597    61299.733    34617.777    11362.892       14.075        5.364      417.438      114.136        0.075      341.486       16.229      856.103
10/12/2013  16:51:00     -477.169     -344.706      -10.295      256.980      233.598      131.513    66038.905    54568.098    17295.657       24.223        6.895      588.653      136.795        0.054      341.431       16.134      856.097
10/12/2013  16:52:00     -398.713     -307.805        2.190      209.867      185.300      111.231    44044.348    34336.266    12372.280       17.222        4.538      503.703      113.060        0.050      341.450       16.168      856.111
10/12/2013  16:53:00     -248.938     -202.601       18.386      257.187      230.769      114.160    66145.263    53254.136    13032.541       11.787        6.622      320.964      131.268        0.167      341.537       16.315      856.095
10/12/2013  16:54:00     -386.670     -352.932       -1.926      249.722      214.496      121.596    62361.102    46008.684    14785.613       19.859        6.158      523.521      120.940        0.053      341.435       16.141      856.086
10/12/2013  16:55:00     -507.502     -392.292       -7.402      239.646      232.115      105.092    57430.385    53877.411    11044.245       26.690        6.118      641.445      125.225        0.038      341.414       16.106      856.084
10/12/2013  16:56:00     -359.460     -256.176       10.319      317.291      231.643      138.758   100673.319    53658.590    19253.799       18.423        8.679      441.404      162.013        0.135      341.438       16.148      856.095
10/12/2013  16:57:00     -469.448     -188.458       -2.545      292.620      227.193      130.127    85626.719    51616.785    16933.018       20.501        7.709      505.863      151.040        0.089      341.359       16.014      856.086
10/12/2013  16:58:00     -462.700     -364.186       -4.932      312.412      235.302      136.344    97601.096    55367.240    18589.658       25.912        8.578      588.832      164.661        0.078      341.336       15.976      856.109
10/12/2013  16:59:00     -414.460     -216.558        4.232      212.087      184.894       99.337    44980.923    34185.912     9867.880       15.385        4.452      467.626       99.506        0.045      341.410       16.100      856.118
10/12/2013  17:00:00     -318.371     -229.747       19.232      296.035      193.482      122.017    87636.687    37435.406    14888.048       14.721        6.998      392.611      129.554        0.109      341.348       15.996      856.107
10/12/2013  17:01:00     -453.691     -241.627       10.958      275.154      226.583      130.581    75709.918    51339.923    17051.280       20.419        7.205      514.022      142.725        0.077      341.305       15.921      856.107
10/12/2013  17:02:00     -605.890     -274.916      -28.896      284.214      219.903      119.808    80777.663    48357.244    14353.913       29.347        7.174      665.343      124.488        0.035      341.268       15.859      856.079
10/12/2013  17:03:00     -409.822     -286.123        1.867      266.533      166.967      113.121    71040.038    27878.103    12796.384       18.075        5.586      499.820      131.418        0.069      341.277       15.875      856.085
10/12/2013  17:04:00     -372.405     -140.252       -2.349      225.303      161.628       94.722    50761.510    26123.551     8972.323       12.209        4.293      397.940      105.517        0.070      341.327       15.959      856.112
10/12/2013  17:05:00     -586.286     -170.949      -29.960      212.522      191.507      104.193    45165.440    36674.885    10856.249       23.326        4.635      610.700      106.137        0.030      341.301       15.915      856.071
10/12/2013  17:06:00     -324.558     -223.367       -4.652      191.878      142.841      103.252    36817.225    20403.464    10660.935       11.155        3.394      393.993      107.498        0.074      341.354       16.005      856.102
10/12/2013  17:07:00     -297.298     -120.454       -4.454      132.763      137.279       69.835    17626.098    18845.518     4876.899        7.212        2.067      320.773       58.969        0.034      341.433       16.139      856.104
10/12/2013  17:08:00     -483.960     -374.208      -22.789      222.413      201.616      102.927    49467.672    40649.159    10593.929       23.772        5.036      611.759      109.804        0.032      341.272       15.866      856.099
10/12/2013  17:09:00     -342.662     -174.471        6.133      222.365      172.485       92.539    49446.189    29750.991     8563.436       11.781        4.388      384.522      113.854        0.088      341.331       15.966      856.106
10/12/2013  17:10:00     -353.633     -163.836       -9.821      231.760      175.399       87.622    53712.633    30764.793     7677.558       12.206        4.608      389.742       86.511        0.049      341.326       15.958      856.089
10/12/2013  17:11:00     -434.145     -236.545       -9.772      262.137      196.890      113.581    68715.919    38765.606    12900.574       18.243        6.019      494.404      117.558        0.057      341.263       15.851      856.081
10/12/2013  17:12:00     -462.778     -199.291      -29.209      278.188      188.509       92.244    77388.784    35535.689     8508.946       18.806        6.072      503.865      106.697        0.045      341.232       15.799      856.086
10/12/2013  17:13:00     -458.298      -85.017      -19.282      216.554      202.239       96.687    46895.597    40900.496     9348.362       15.737        4.857      466.117      109.266        0.055      341.249       15.827      856.062
10/12/2013  17:14:00     -384.891     -185.628       -1.284      215.710      196.008       93.750    46530.621    38418.997     8788.980       13.815        4.687      427.316      108.475        0.064      341.217       15.774      856.051
10/12/2013  17:15:00     -274.175     -207.905        7.895      203.211      162.726       93.148    41294.620    26479.738     8676.576        9.744        3.823      344.088      105.979        0.095      341.230       15.795      856.064
10/12/2013  17:16:00     -298.275     -136.217        1.518      184.532      155.505       78.264    34051.898    24181.683     6125.292        8.593        3.218      327.907       82.834        0.064      341.275       15.872      856.059
10/12/2013  17:17:00     -292.791      -88.468       15.301      278.761      187.784      106.779    77707.835    35262.765    11401.733       10.905        6.219      305.865      139.984        0.209      341.256       15.837      856.028
10/12/2013  17:18:00     -336.560     -131.951        7.908      175.370      182.419       79.413    30754.532    33276.609     6306.450       10.053        3.517      361.502       88.186        0.060      341.264       15.853      856.021
10/12/2013  17:19:00     -350.705     -186.176        8.849      208.674      216.350      110.583    43544.938    46807.150    12228.563       13.014        5.129      397.058      110.866        0.078      341.234       15.801      856.027
10/12/2013  17:20:00     -504.505     -342.066      -29.276      242.237      201.603      119.996    58678.862    40643.611    14399.100       24.303        5.686      609.536      106.529        0.031      341.141       15.644      856.022
10/12/2013  17:21:00     -431.925     -277.542      -29.621      262.312      176.131      112.327    68807.372    31022.006    12617.465       18.843        5.622      513.409      105.785        0.042      341.143       15.647      856.007
10/12/2013  17:22:00     -376.312     -154.798      -16.143      168.587      137.074       76.914    28421.450    18789.248     5915.752       10.947        2.656      406.906       74.232        0.033      341.196       15.737      856.013
10/12/2013  17:23:00     -378.101     -104.619      -19.321      179.379      190.206       97.067    32176.691    36178.388     9421.959       11.601        3.889      392.308       91.013        0.054      341.186       15.719      856.034
10/12/2013  17:24:00     -346.932     -168.854       -5.230      142.816      161.283       83.471    20396.551    26012.223     6967.432       10.113        2.669      385.842       85.428        0.049      341.223       15.784      856.031
10/12/2013  17:25:00     -329.200      -85.173      -11.388      185.860      101.940       74.746    34543.886    10391.803     5586.990        8.313        2.526      340.040       86.729        0.065      341.235       15.803      856.065
10/12/2013  17:26:00     -403.346     -190.357      -17.398      197.741      190.915       98.347    39101.367    36448.499     9672.183       14.221        4.261      446.009      104.235        0.055      341.165       15.686      856.054
10/12/2013  17:27:00     -453.383     -346.146      -23.715      230.675      182.934      105.995    53210.959    33464.999    11234.967       21.190        4.896      570.415      115.221        0.041      341.103       15.581      856.048
10/12/2013  17:28:00     -423.496     -123.835      -16.673      189.266      202.534       93.860    35821.460    41020.103     8809.654       14.029        4.283      441.230       87.039        0.039      341.111       15.593      856.026
10/12/2013  17:29:00     -449.232     -143.693      -10.642      247.334      250.681      104.641    61174.192    62841.179    10949.686       17.874        6.748      471.653      106.597        0.051      341.085       15.550      856.015
10/12/2013  17:30:00     -311.373     -120.330       -1.140      218.679      144.977       95.215    47820.467    21018.216     9065.895        9.465        3.895      333.815       99.525        0.089      341.125       15.617      856.038
10/12/2013  17:31:00     -431.131     -235.600      -12.980      191.574      158.949       94.374    36700.659    25264.925     8906.537       15.620        3.544      491.306       97.385        0.039      341.068       15.521      856.032
10/12/2013  17:32:00     -353.115     -199.332       -5.427      231.666      164.067       95.729    53669.010    26918.110     9164.064       12.708        4.488      405.492       97.049        0.057      341.089       15.556      856.016
10/12/2013  17:33:00     -234.087     -115.483        1.625      167.619      148.275       78.078    28096.016    21985.546     6096.233        6.215        2.809      261.023       93.796        0.129      341.096       15.568      856.050
10/12/2013  17:34:00     -336.027     -180.956       -5.145      162.173      170.406       86.504    26299.978    29038.286     7482.923       10.424        3.141      381.653       89.427        0.055      341.086       15.553      856.028
10/12/2013  17:35:00     -489.167     -388.891      -15.551      208.127      173.594      108.375    43316.861    30135.010    11745.094       23.796        4.260      624.917      110.897        0.031      340.999       15.405      856.010
10/12/2013  17:36:00     -421.154     -206.192       12.149      286.490      205.802      124.118    82076.787    42354.452    15405.181       17.991        6.992      468.920      126.448        0.073      340.995       15.396      855.996
10/12/2013  17:37:00     -307.891     -162.609        5.430      249.204      170.896      108.033    62102.553    29205.550    11671.047       11.210        5.149      348.193      118.876        0.117      340.999       15.403      856.018
10/12/2013  17:38:00     -396.558     -286.146        6.557      259.159      179.386      116.914    67163.570    32179.331    13668.992       17.607        5.651      489.017      123.152        0.063      340.937       15.300      856.011
10/12/2013  17:39:00     -493.310     -179.947        1.643      259.400      190.494       94.308    67288.495    36288.152     8893.969       19.408        5.624      525.105      109.458        0.043      340.947       15.316      855.989
10/12/2013  17:40:00     -366.936     -204.526       19.048      206.084      205.774      101.888    42470.657    42342.868    10381.194       13.600        4.760      420.087      108.638        0.067      340.923       15.276      855.997
10/12/2013  17:41:00     -503.225     -125.460      -18.603      330.971      189.497      103.900   109541.692    35909.222    10795.284       21.275        7.812      518.628      120.114        0.054      340.897       15.232      855.965
10/12/2013  17:42:00     -317.839      -77.123        5.374      207.782      169.968       86.975    43173.562    28889.249     7564.654        9.330        3.981      327.062       87.206        0.071      340.940       15.305      855.984
10/12/2013  17:43:00     -425.044     -230.969      -29.765      215.757      163.243       97.044    46551.165    26648.268     9417.606       15.874        4.131      483.745      104.873        0.047      340.879       15.200      855.987
10/12/2013  17:44:00     -291.846     -248.776        5.409      241.820      202.904      110.132    58476.776    41170.184    12129.140       12.941        5.589      383.489      114.839        0.090      340.887       15.214      855.966
10/12/2013  17:45:00     -437.892     -220.293       -9.258      292.474      212.346      117.477    85541.202    45090.669    13800.799       19.237        7.222      490.181      148.812        0.092      340.847       15.148      855.974
10/12/2013  17:46:00     -477.010     -110.991       10.713      283.929      185.192       92.500    80615.776    34295.974     8556.164       18.170        6.173      489.753      120.633        0.061      340.845       15.143      855.970
10/12/2013  17:47:00     -200.261     -166.396       10.345      197.765      200.975       94.322    39110.853    40391.056     8896.596        7.813        4.420      260.369      115.546        0.197      340.845       15.145      855.982
10/12/2013  17:48:00     -484.829     -317.629      -12.538      287.197      214.706      108.667    82482.342    46098.545    11808.613       23.822        7.019      579.610      123.214        0.045      340.780       15.033      855.998
10/12/2013  17:49:00     -374.592     -303.191      -12.355      221.352      184.217      106.075    48996.731    33935.834    11251.915       16.327        4.709      481.916      106.845        0.049      340.772       15.021      855.974
10/12/2013  17:50:00     -401.735     -155.720       -5.457      189.061      159.932       92.167    35744.079    25578.342     8494.728       12.773        3.491      430.859      102.241        0.056      340.777       15.030      855.983
10/12/2013  17:51:00     -652.879     -362.667      -29.003      299.552      179.799      100.382    89731.173    32327.597    10076.524       34.535        6.607      746.845      120.035        0.026      340.725       14.941      855.977
10/12/2013  17:52:00     -410.390     -291.605       10.632      302.667      197.451      120.391    91607.282    38986.980    14494.070       19.930        7.254      503.442      143.227        0.081      340.709       14.913      855.958
10/12/2013  17:53:00     -307.553     -171.288       11.680      197.325      199.525       98.147    38937.008    39810.217     9632.773       10.620        4.419      352.035      106.883        0.092      340.711       14.917      856.008
10/12/2013  17:54:00     -452.204     -298.707      -20.083      250.872      188.037      104.692    62936.684    35357.817    10960.411       20.166        5.463      541.954      128.197        0.056      340.678       14.861      855.978
10/12/2013  17:55:00     -367.447     -228.053       -6.627      220.170      165.004      112.464    48474.827    27226.256    12648.225       13.769        4.417      432.465      114.737        0.070      340.681       14.865      856.015
10/12/2013  17:56:00     -424.314     -139.734       -6.335      189.339      147.952       83.375    35849.166    21889.824     6951.427       13.214        3.235      446.731       83.344        0.035      340.672       14.851      856.049
10/12/2013  17:57:00     -330.861     -238.379        0.332      222.432      205.040       90.174    49476.112    42041.441     8131.341       13.295        4.982      407.791       99.481        0.060      340.652       14.817      856.053
10/12/2013  17:58:00     -321.661     -128.593      -13.056      132.789      143.487       78.437    17632.910    20588.625     6152.429        8.226        2.219      346.413       73.354        0.045      340.656       14.824      856.079
10/12/2013  17:59:00     -535.242     -236.060      -24.077      259.080      185.993       90.438    67122.484    34593.395     8179.048       22.632        5.495      584.986      109.932        0.035      340.613       14.750      856.037
10/12/2013  18:00:00     -335.932     -202.304       17.960      282.320      221.256      122.406    79704.742    48954.397    14983.291       14.884        7.182      392.144      154.964        0.156      340.608       14.744      856.035
10/12/2013  18:01:00     -378.799     -137.145       -3.122      202.248      190.952       92.816    40904.392    36462.574     8614.753       12.413        4.299      402.862      103.910        0.067      340.615       14.755      856.065
10/12/2013  18:02:00     -302.670     -194.417      -10.550      162.809      111.606       78.835    26506.813    12455.881     6214.961        8.734        2.259      359.732       70.940        0.039      340.596       14.720      856.068
10/12/2013  18:03:00     -301.994     -152.892       -7.513      182.632      130.178       75.699    33354.448    16946.376     5730.307        8.532        2.802      338.491       86.886        0.066      340.570       14.678      856.070
10/12/2013  18:04:00     -412.136     -292.160      -17.397      230.540      150.198       78.094    53148.581    22559.358     6098.650       16.864        4.090      505.187       82.239        0.027      340.557       14.658      856.057
10/12/2013  18:05:00     -390.233     -158.802       -2.658      224.762      189.172       79.563    50518.005    35785.888     6330.259       13.505        4.632      421.307       96.799        0.053      340.534       14.617      856.038
10/12/2013  18:06:00     -234.547     -122.695        3.040      155.540      119.989       69.285    24192.793    14397.435     4800.432        5.672        2.170      264.700       52.643        0.040      340.544       14.635      856.044
10/12/2013  18:07:00     -346.477     -150.775       -0.867      214.964      155.959       87.406    46209.468    24323.160     7639.806       11.046        3.909      377.862       89.497        0.056      340.500       14.561      856.018
10/12/2013  18:08:00     -370.778     -201.510       -4.462      240.321      127.960       80.301    57754.363    16373.750     6448.306       12.932        4.029      421.998       99.851        0.056      340.491       14.547      856.006
10/12/2013  18:09:00     -297.437     -160.927       -2.973      155.645      163.542       74.455    24225.323    26745.906     5543.586        8.543        2.826      338.180       78.759        0.054      340.490       14.543      855.999
10/12/2013  18:10:00     -257.569     -113.778      -10.827      186.921      141.783       81.017    34939.531    20102.282     6563.730        7.049        3.080      281.580       95.634        0.115      340.466       14.503      856.017
10/12/2013  18:11:00     -514.100     -198.519      -18.667      210.926      155.477       92.204    44489.705    24173.217     8501.649       19.060        3.858      551.098       96.554        0.031      340.452       14.479      855.977
10/12/2013  18:12:00     -301.520     -146.093      -13.500      178.404      124.949       71.581    31828.109    15612.235     5123.770        8.249        2.628      335.048       68.835        0.042      340.451       14.477      855.986
10/12/2013  18:13:00     -475.882     -280.416      -15.985      222.725      208.338       99.973    49606.419    43404.616     9994.552       20.416        5.150      552.355       99.207        0.032      340.422       14.429      855.981
10/12/2013  18:14:00     -459.857     -183.612       -0.998      230.859      209.769       80.314    53295.777    44003.180     6450.278       17.444        5.187      495.158       77.877        0.025      340.404       14.398      855.993
10/12/2013  18:15:00     -349.427     -217.926      -20.271      258.589      176.503       83.715    66868.023    31153.144     7008.191       13.749        5.251      411.814      105.938        0.066      340.380       14.359      855.993
10/12/2013  18:16:00     -492.504     -282.148      -29.860      230.703      195.850       97.339    53224.083    38357.034     9474.940       21.204        5.053      567.598      111.895        0.039      340.361       14.326      855.988
10/12/2013  18:17:00     -366.536     -153.715       -9.290      183.676      231.226       92.598    33736.770    53465.468     8574.413       12.690        4.789      397.464       88.569        0.050      340.358       14.322      856.000
10/12/2013  18:18:00     -268.554     -295.168       -6.948      187.935      128.255       95.879    35319.523    16449.451     9192.779       11.012        3.048      399.056      101.201        0.064      340.356       14.317      856.039
10/12/2013  18:19:00     -301.137     -195.690        5.284      202.713      170.465       90.364    41092.456    29058.240     8165.648       10.365        3.916      359.135       98.987        0.076      340.330       14.273      856.030
10/12/2013  18:20:00     -424.325     -253.304      -13.156      294.458      193.501      105.833    86705.237    37442.609    11200.607       18.984        6.767      494.180      130.115        0.069      340.309       14.237      856.022
10/12/2013  18:21:00     -283.189     -123.046       -0.627      262.883      183.736      105.524    69107.688    33758.912    11135.311       10.465        5.700      308.765      112.177        0.132      340.312       14.241      856.034
10/12/2013  18:22:00     -435.198     -295.458      -11.062      208.168      185.715      104.255    43333.889    34489.885    10869.044       18.274        4.435      526.016      108.589        0.043      340.297       14.216      856.027
10/12/2013  18:23:00     -428.176     -177.215      -41.341      202.668      240.222       88.937    41074.387    57706.658     7909.756       16.155        5.335      463.400       91.885        0.039      340.288       14.203      856.037
10/12/2013  18:24:00     -213.506      -99.429       24.131      182.324      168.894       84.112    33242.165    28525.144     7074.810        6.243        3.442      235.523       89.377        0.144      340.255       14.144      856.046
10/12/2013  18:25:00     -374.434     -231.485      -11.921      219.361      193.957       81.667    48119.296    37619.126     6669.418       14.315        4.620      440.212       94.830        0.046      340.276       14.180      856.060
10/12/2013  18:26:00     -316.566     -272.532      -23.879      190.167      193.877       92.092    36163.341    37588.208     8480.867       12.863        4.112      417.717       87.143        0.044      340.252       14.141      856.052
10/12/2013  18:27:00     -369.305     -175.984       -2.522      185.817      139.365       83.407    34527.806    19422.479     6956.655       11.412        3.045      409.092       87.541        0.046      340.239       14.119      856.083
10/12/2013  18:28:00     -400.078     -161.473      -15.596      224.959      172.117      107.986    50606.491    29624.222    11660.997       13.912        4.595      431.435      106.916        0.061      340.245       14.129      856.072
10/12/2013  18:29:00     -368.132     -150.085       -4.777      182.862      191.976       91.513    33438.611    36854.768     8374.618       11.835        3.933      397.551       89.550        0.051      340.212       14.073      856.077
10/12/2013  18:30:00     -272.732      -61.463       13.590      230.144      161.792       92.233    52966.047    26176.543     8506.893        8.298        4.382      279.572      111.558        0.159      340.209       14.069      856.089
10/12/2013  18:31:00     -286.859     -208.128       -4.197      237.104      178.823       94.052    56218.285    31977.584     8845.698       11.131        4.852      354.409      114.940        0.105      340.217       14.081      856.089
10/12/2013  18:32:00     -323.850      -90.182       11.708      245.443      171.272      116.748    60242.124    29334.260    13629.997       10.816        5.160      336.172      121.227        0.130      340.183       14.025      856.082
10/12/2013  18:33:00     -358.095     -246.661       -8.105      203.289      122.322       83.247    41326.224    14962.629     6930.055       12.617        3.161      434.826      102.592        0.056      340.199       14.052      856.122
10/12/2013  18:34:00     -347.512     -193.657      -10.608      195.960      177.131       67.912    38400.346    31375.292     4612.035       11.637        3.719      397.828       82.542        0.043      340.167       13.995      856.117
10/12/2013  18:35:00     -303.327      -60.098       -3.204      248.088      147.061       85.951    61547.803    21626.937     7387.651        9.308        4.528      309.223       94.838        0.094      340.146       13.961      856.131
10/12/2013  18:36:00     -317.956     -162.381       -3.589      161.254      159.281       73.471    26002.991    25370.341     5397.966        9.211        2.839      357.020       82.873        0.054      340.136       13.945      856.133
10/12/2013  18:37:00     -451.224     -187.355      -30.362      192.014      178.138       80.144    36869.442    31733.215     6423.030       15.731        3.751      488.574       75.347        0.024      340.137       13.947      856.155
10/12/2013  18:38:00     -402.786     -146.102       -3.186      241.954      146.563       89.934    58541.702    21480.574     8088.108       13.583        4.406      428.465       96.841        0.051      340.118       13.915      856.153
10/12/2013  18:39:00     -514.768     -264.630      -27.278      311.190      178.305      100.138    96839.320    31792.603    10027.662       23.718        6.933      578.805      129.985        0.050      340.124       13.925      856.180
10/12/2013  18:40:00     -386.724      -91.882      -13.162      205.621      165.023       84.678    42279.932    27232.665     7170.300       11.741        3.834      397.490       84.934        0.046      340.101       13.885      856.186
10/12/2013  18:41:00     -414.905     -130.292      -13.717      240.280      185.225       91.890    57734.491    34308.189     8443.847       14.488        5.024      434.882      112.192        0.067      340.101       13.886      856.199
10/12/2013  18:42:00     -394.895     -125.034       -3.144      195.733      188.821       87.790    38311.426    35653.532     7707.061       12.661        4.084      414.217       82.750        0.040      340.096       13.878      856.216
10/12/2013  18:43:00     -339.816      -98.167        6.376      233.333      169.122       97.114    54444.390    28602.107     9431.104       10.880        4.624      353.712      120.093        0.115      340.088       13.864      856.227
10/12/2013  18:44:00     -364.807      -96.896        3.570      254.621      155.559       94.297    64831.891    24198.701     8891.895       12.018        4.896      377.456      108.433        0.083      340.074       13.841      856.232
10/12/2013  18:45:00     -453.877     -211.071       -6.605      342.991      163.811       96.016   117642.967    26833.908     9219.069       20.212        7.685      500.555      135.221        0.073      340.084       13.858      856.224
10/12/2013  18:46:00     -263.441      -83.903       -0.395      213.205      137.864       84.976    45456.568    19006.367     7220.960        7.405        3.584      276.479       98.476        0.127      340.064       13.823      856.274
10/12/2013  18:47:00     -295.316      -61.885       -3.298      149.118      148.421       74.687    22236.165    22028.802     5578.086        7.044        2.492      301.730       72.006        0.057      340.056       13.808      856.286
10/12/2013  18:48:00     -359.355     -175.619       -3.140      195.092      200.033      100.502    38060.779    40013.261    10100.606       12.406        4.409      399.972      111.254        0.077      340.036       13.775      856.299
10/12/2013  18:49:00     -222.858      -62.799        8.068      180.579      155.985       64.038    32608.866    24331.396     4100.885        5.735        3.052      231.537       78.452        0.115      340.001       13.717      856.331
10/12/2013  18:50:00     -250.358      -90.275       -1.242      140.821      121.200       73.277    19830.587    14689.402     5369.493        5.535        1.994      266.137       71.401        0.072      340.020       13.748      856.352
10/12/2013  18:51:00     -288.572     -147.683      -13.884      177.604      224.571       88.922    31543.146    50432.209     7907.100        9.756        4.494      324.167       93.684        0.084      339.983       13.687      856.352
10/12/2013  18:52:00     -442.837     -155.259      -19.365      201.569      204.125      100.565    40629.999    41667.056    10113.380       15.648        4.621      469.266      111.063        0.056      339.990       13.698      856.380
10/12/2013  18:53:00     -212.006     -144.065      -12.621      135.534      151.759       66.753    18369.584    23030.689     4456.006        5.585        2.293      256.322       68.337        0.071      339.996       13.709      856.432
10/12/2013  18:54:00     -172.341      -49.801       -0.130      122.154      126.614       58.732    14921.662    16031.171     3449.437        3.329        1.720      179.392       61.161        0.116      339.989       13.695      856.454
10/12/2013  18:55:00     -119.338     -147.747       21.474      152.823      150.219       94.387    23354.980    22565.612     8908.947        4.567        2.741      189.923       94.594        0.248      339.966       13.657      856.483
10/12/2013  18:56:00     -297.426     -139.660       -4.347      222.339      195.314       92.960    49434.596    38147.428     8641.641       10.209        4.811      328.583      122.957        0.140      339.949       13.629      856.516
10/12/2013  18:57:00     -312.324     -185.044       -3.909      169.700      116.663       84.043    28798.246    13610.242     7063.289        9.063        2.474      363.026       79.001        0.047      339.955       13.639      856.527
10/12/2013  18:58:00     -385.079      -60.198       -3.968      174.599      129.601       78.520    30484.772    16796.441     6165.343       10.268        2.672      389.755       87.683        0.051      339.930       13.598      856.579
10/12/2013  18:59:00     -307.310     -161.697       10.083      219.751      126.775       71.024    48290.460    16071.880     5044.363        9.503        3.470      347.254       84.241        0.059      339.918       13.577      856.617
10/12/2013  19:00:00     -322.793     -179.045        3.237      164.745      159.943       72.243    27140.776    25581.807     5219.109        9.709        2.897      369.124       69.737        0.036      339.934       13.604      856.607
10/12/2013  19:01:00     -223.335     -181.584      -13.623      153.491      113.140       68.854    23559.443    12800.548     4740.870        6.206        2.055      287.839       80.193        0.078      339.913       13.571      856.658
10/12/2013  19:02:00     -371.942     -101.684      -19.661      145.362      171.819       70.613    21130.171    29521.819     4986.207       10.234        2.782      385.591       60.213        0.024      339.896       13.538      856.610
10/12/2013  19:03:00     -288.975       16.231      -17.860      182.932      115.862       77.118    33464.217    13423.949     5947.140        6.845        2.642      289.430       76.773        0.070      339.868       13.492      856.670
10/12/2013  19:04:00     -132.500       10.000       12.597      117.839      112.049       52.616    13886.108    12555.010     2768.493        2.351        1.460      132.877       59.190        0.198      339.815       13.404      856.677
10/12/2013  19:05:00     -333.498      -86.527      -21.977       92.125       93.006       55.130     8487.082     8650.126     3039.359        6.968        1.009      344.540       52.080        0.023      339.866       13.489      856.703
10/12/2013  19:06:00     -237.205     -125.565        5.133      139.389      176.869       91.655    19429.277    31282.761     8400.650        6.557        2.956      268.390       68.391        0.065      339.852       13.465      856.701
10/12/2013  19:07:00     -151.091     -137.090       15.476      188.241      134.850       89.600    35434.750    18184.449     8028.206        5.174        3.082      204.016      114.427        0.315      339.849       13.460      856.652
10/12/2013  19:08:00     -504.122     -116.769      -30.743      231.364      131.512       83.423    53529.093    17295.334     6959.453       17.324        3.889      517.469       97.730        0.036      339.851       13.464      856.669
10/12/2013  19:09:00     -286.881      -50.105      -11.764      148.535      139.460       65.316    22062.528    19449.100     4266.118        6.535        2.289      291.224       78.702        0.073      339.842       13.449      856.689
10/12/2013  19:10:00     -183.616      -73.966       11.672      100.225      116.131       60.256    10045.075    13486.440     3630.755        3.324        1.358      197.954       57.744        0.085      339.788       13.358      856.704
10/12/2013  19:11:00     -225.726     -131.141      -12.695      144.402      129.629       58.837    20851.848    16803.764     3461.805        5.471        2.056      261.055       50.968        0.038      339.815       13.403      856.735
10/12/2013  19:12:00     -268.314     -128.087        3.859      189.202      191.633       74.354    35797.331    36723.056     5528.511        8.322        3.902      297.319       92.433        0.097      339.806       13.389      856.751
10/12/2013  19:13:00     -186.337      -21.888      -10.304      110.192       90.654       54.495    12142.363     8218.119     2969.674        2.931        1.167      187.618       62.903        0.112      339.797       13.373      856.803
10/12/2013  19:14:00     -193.326      -13.257       -9.562      108.747       61.299       50.502    11825.912     3757.568     2550.408        2.788        0.907      193.780       51.679        0.071      339.775       13.336      856.854
10/12/2013  19:15:00      -49.464       88.390       -4.632       53.164       44.810       29.460     2826.400     2007.946      867.882        0.799        0.285      101.289       25.498        0.063      339.712       13.234      856.882
10/12/2013  19:16:00      -82.065      108.401      -22.992       49.876       41.713       29.557     2487.633     1739.992      873.635        1.206        0.255      135.961       24.461        0.032      339.765       13.323      856.935
10/12/2013  19:17:00       54.928       37.500       10.731       44.255       43.765       38.061     1958.526     1915.334     1448.626        0.493        0.266       66.508       10.953        0.027      339.682       13.181      856.941
10/12/2013  19:18:00      -74.902       75.125       -5.889      127.564       70.841       41.996    16272.572     5018.396     1763.695        1.717        1.153      106.085       52.042        0.241      339.658       13.142      856.935
10/12/2013  19:19:00     -150.259      -16.313      -18.864       54.604       59.635       27.106     2981.644     3556.381      734.748        1.523        0.364      151.142       22.709        0.023      339.710       13.231      856.989
10/12/2013  19:20:00     -206.034      -38.768       -9.277      109.031       53.217       36.706    11887.856     2832.057     1347.338        3.005        0.803      209.649       44.429        0.045      339.639       13.106      857.025
10/12/2013  19:21:00      -95.225      -57.428       -3.789       97.202       56.623       34.292     9448.313     3206.208     1175.932        1.310        0.692      111.201       40.428        0.132      339.628       13.091      857.059
10/12/2013  19:22:00       -1.669       16.709       29.623       38.220       20.569       24.236     1460.783      423.073      587.401        0.181        0.124       16.792       20.061        1.427      339.459       12.806      857.081
10/12/2013  19:23:00      -67.854       37.667      -15.760       63.144       48.882       34.206     3987.115     2389.484     1170.053        0.691        0.377       77.608       29.961        0.149      339.599       13.042      857.110
10/12/2013  19:24:00      -96.518       54.501      -15.094       60.579       73.028       36.323     3669.761     5333.027     1319.337        1.142        0.516      110.843       30.163        0.074      339.588       13.023      857.128
10/12/2013  19:25:00     -151.173      -74.216       -4.420       86.277       53.021       40.719     7443.649     2811.189     1658.053        2.014        0.596      168.408       31.613        0.035      339.591       13.028      857.152
10/12/2013  19:26:00     -121.651       35.603       -7.598       70.268       91.724       38.401     4937.621     8413.317     1474.635        1.547        0.741      126.754       33.375        0.069      339.520       12.909      857.195
10/12/2013  19:27:00     -210.484      -47.370       -8.385       61.185       56.986       31.772     3743.612     3247.436     1009.483        2.731        0.400      215.748       30.942        0.021      339.560       12.973      857.198
10/12/2013  19:28:00     -166.788       -9.500      -13.462       73.223       73.987       34.082     5361.563     5474.117     1161.610        2.004        0.600      167.059       34.530        0.043      339.543       12.947      857.205
10/12/2013  19:29:00     -124.356      -20.218      -14.839       63.578       52.595       33.741     4042.180     2766.209     1138.475        1.202        0.397      125.989       25.352        0.040      339.554       12.968      857.238
10/12/2013  19:30:00     -133.459      -10.309      -21.378       63.203       51.134       41.731     3994.635     2614.697     1741.450        1.336        0.418      133.856       37.503        0.078      339.560       12.978      857.245
10/12/2013  19:31:00     -223.615      -24.625      -25.093      123.367      103.492       55.933    15219.412    10710.508     3128.545        4.014        1.453      224.967       58.457        0.068      339.512       12.892      857.250
10/12/2013  19:32:00     -223.929      -51.881      -29.854       92.699       79.323       42.417     8593.073     6292.156     1799.219        3.520        0.834      229.860       37.523        0.027      339.500       12.872      857.264
10/12/2013  19:33:00     -156.653      -64.006       -0.685       90.226       69.354       46.603     8140.820     4810.023     2171.871        2.188        0.756      169.224       41.109        0.059      339.463       12.810      857.282
10/12/2013  19:34:00     -279.303       -0.751      -31.957       91.178       64.430       36.914     8313.454     4151.173     1362.652        4.643        0.691      279.304       37.122        0.018      339.483       12.842      857.300
10/12/2013  19:35:00     -185.809      -95.483       13.184      170.437      111.427       74.228    29048.824    12415.990     5509.760        4.539        2.349      208.907       89.797        0.185      339.459       12.802      857.294
10/12/2013  19:36:00     -247.012      -13.319      -18.493      122.856      106.140       43.215    15093.618    11265.705     1867.576        4.488        1.411      247.371       50.995        0.042      339.491       12.859      857.290
10/12/2013  19:37:00     -210.667      -50.006       -3.746       76.357       69.793       44.593     5830.456     4871.111     1988.528        2.979        0.635      216.520       35.627        0.027      339.464       12.811      857.294
10/12/2013  19:38:00     -238.158      -56.213      -15.512       61.903       58.491       41.335     3831.991     3421.153     1708.600        3.454        0.448      244.702       28.994        0.014      339.487       12.848      857.295
10/12/2013  19:39:00     -275.769      -43.717      -18.117      121.900      103.163       53.369    14859.648    10642.508     2848.245        5.331        1.418      279.213       64.514        0.053      339.462       12.809      857.282
10/12/2013  19:40:00     -215.955      -49.302      -12.966      114.166       50.052       47.798    13033.840     2505.157     2284.665        3.353        0.891      221.511       56.128        0.064      339.432       12.759      857.285
10/12/2013  19:41:00     -175.851      -61.685        1.259      103.586       77.328       50.224    10730.001     5979.687     2522.482        2.698        0.962      186.356       60.932        0.107      339.402       12.708      857.264
10/12/2013  19:42:00     -157.375      -53.572       -8.969      124.992       86.608       46.143    15623.090     7501.032     2129.154        2.648        1.263      166.244       61.129        0.135      339.408       12.717      857.275
10/12/2013  19:43:00     -169.162      -69.125       -8.642      170.409       86.146       60.679    29039.132     7421.055     3681.922        3.680        2.007      182.740       74.673        0.167      339.455       12.797      857.259
10/12/2013  19:44:00      -33.693      -16.808       21.190       88.124       48.165       50.280     7765.827     2319.822     2528.103        0.724        0.631       37.652       50.919        1.829      339.378       12.669      857.249
10/12/2013  19:45:00     -136.268      -82.936        9.034      113.344      106.816       52.383    12846.890    11409.764     2743.973        2.626        1.350      159.522       57.357        0.129      339.398       12.703      857.275
10/12/2013  19:46:00     -201.080     -160.775       -2.533      163.594      126.447       81.404    26763.108    15988.814     6626.678        5.782        2.469      257.453       79.301        0.095      339.425       12.748      857.270
10/12/2013  19:47:00     -258.964      -89.493       -5.500      119.085      104.710       64.451    14181.162    10964.285     4153.949        5.219        1.465      273.991       57.565        0.044      339.404       12.711      857.261
10/12/2013  19:48:00     -227.738     -128.567       -7.081       95.880       94.490       49.779     9193.026     8928.302     2477.960        4.452        1.030      261.522       45.825        0.031      339.426       12.747      857.270
10/12/2013  19:49:00     -213.977      -63.138       -8.949       92.841       86.046       45.302     8619.511     7403.832     2052.244        3.396        0.904      223.098       48.376        0.047      339.413       12.727      857.293
10/12/2013  19:50:00     -211.320     -109.538       -3.195      122.046      105.920       57.862    14895.178    11219.019     3348.014        4.306        1.473      238.023       50.459        0.045      339.405       12.713      857.286
10/12/2013  19:51:00     -334.864       21.446       -9.340      139.844       89.541       64.993    19556.285     8017.630     4224.071        7.223        1.590      335.550       70.428        0.044      339.383       12.677      857.291
10/12/2013  19:52:00     -279.326     -131.250       -5.254      146.069      131.292       61.776    21336.292    17237.704     3816.262        6.883        2.120      308.625       64.323        0.043      339.392       12.690      857.307
10/12/2013  19:53:00     -244.110      -83.633       -2.674      143.842      128.241       83.907    20690.645    16445.882     7040.350        5.538        2.209      258.039       61.052        0.056      339.414       12.727      857.288
10/12/2013  19:54:00     -189.664      -76.097        5.300      104.606       92.009       48.957    10942.343     8465.667     2396.745        3.179        1.090      204.360       38.771        0.036      339.341       12.604      857.296
10/12/2013  19:55:00     -249.768     -216.945        7.657      177.354      157.164      100.203    31454.540    24700.406    10040.740        8.784        3.310      330.831      107.077        0.105      339.407       12.717      857.285
10/12/2013  19:56:00     -297.966     -139.784       -5.801      151.740      114.697       60.356    23025.049    13155.329     3642.848        7.408        1.991      329.125       72.703        0.049      339.407       12.716      857.292
10/12/2013  19:57:00     -227.407      -91.900        7.571      142.978       92.117       69.537    20442.575     8485.614     4835.370        4.698        1.688      245.274       73.684        0.090      339.367       12.650      857.296
10/12/2013  19:58:00     -141.082     -135.109        6.230      134.093      112.656       79.702    17981.032    12691.461     6352.478        3.760        1.851      195.343       79.271        0.165      339.372       12.656      857.295
10/12/2013  19:59:00     -255.673     -121.084      -11.734      140.445      126.764       60.327    19724.754    16069.185     3639.348        5.979        1.972      282.896       68.735        0.059      339.352       12.624      857.308
10/12/2013  20:00:00     -204.987      -62.097        4.983      107.532       95.376       59.508    11563.186     9096.487     3541.210        3.505        1.210      214.186       58.821        0.075      339.328       12.583      857.305
10/12/2013  20:01:00     -200.341      -89.220        3.183       97.871       87.935       52.138     9578.766     7732.568     2718.349        3.406        1.001      219.309       52.671        0.058      339.303       12.541      857.305
10/12/2013  20:02:00     -155.494     -101.673       19.361      135.091      109.337       67.853    18249.509    11954.555     4604.069        3.484        1.740      185.784       71.890        0.150      339.309       12.550      857.292
10/12/2013  20:03:00     -426.354     -118.837      -28.171      152.746      119.103       64.443    23331.353    14185.473     4152.904       11.917        2.083      442.606       72.830        0.027      339.299       12.533      857.281
10/12/2013  20:04:00     -426.309      -63.107      -15.432      171.404      131.419       69.787    29379.273    17271.026     4870.238       11.873        2.576      430.955       66.220        0.024      339.302       12.539      857.261
10/12/2013  20:05:00     -329.616     -128.169      -13.594      153.360      131.154       71.269    23519.295    17201.355     5079.321        8.552        2.290      353.658       65.278        0.034      339.304       12.542      857.235
10/12/2013  20:06:00     -266.079     -134.513       -9.919      142.523      139.583       77.962    20312.925    19483.545     6078.020        6.742        2.294      298.147       76.500        0.066      339.279       12.499      857.206
10/12/2013  20:07:00     -351.317     -221.789      -10.970      143.859      121.187       73.174    20695.435    14686.352     5354.455       10.673        2.037      415.468       56.049        0.018      339.302       12.538      857.176
10/12/2013  20:08:00     -432.339     -190.020      -26.222      182.043      161.656       79.510    33139.728    26132.632     6321.870       14.464        3.280      472.255       96.289        0.042      339.297       12.529      857.165
10/12/2013  20:09:00     -237.263     -132.809       19.684      181.744      157.745       88.460    33030.725    24883.383     7825.173        7.002        3.287      271.905      105.599        0.151      339.265       12.477      857.141
10/12/2013  20:10:00     -371.522     -187.396      -23.148      161.713      130.000       78.362    26150.965    16899.899     6140.649       11.143        2.460      416.108       76.761        0.034      339.264       12.473      857.118
10/12/2013  20:11:00     -346.046     -150.780       -4.283      188.457      163.033       75.087    35515.873    26579.676     5638.082       10.510        3.387      377.468       90.799        0.058      339.240       12.435      857.107
10/12/2013  20:12:00     -291.256     -170.761      -10.715      171.109      166.196       89.672    29278.397    27621.230     8041.054        8.951        3.247      337.623       78.144        0.054      339.242       12.438      857.073
10/12/2013  20:13:00     -292.002      -88.667       -3.032      219.864      108.798       86.473    48340.193    11837.090     7477.592        8.038        3.383      305.167      103.200        0.114      339.196       12.360      857.074
10/12/2013  20:14:00     -295.129      -83.593      -17.164      183.807      169.353       76.381    33785.082    28680.426     5834.108        8.133        3.415      306.739       83.381        0.074      339.209       12.382      857.077
10/12/2013  20:15:00     -377.134     -153.534      -18.365      156.757      144.958       76.866    24572.832    21012.775     5908.437       10.881        2.575      407.189       73.854        0.033      339.191       12.353      857.061
10/12/2013  20:16:00     -302.256     -221.885      -15.181      196.914      149.601       96.975    38775.215    22380.329     9404.172       10.568        3.528      374.956      103.217        0.076      339.198       12.363      857.044
10/12/2013  20:17:00     -336.294     -146.769      -12.129      181.941      168.294       98.564    33102.377    28322.815     9714.791       10.295        3.557      366.926       85.148        0.054      339.190       12.351      857.034
10/12/2013  20:18:00     -318.677     -192.815       -5.134      204.622      140.197      100.633    41870.204    19655.225    10126.970       10.519        3.583      372.469      111.211        0.089      339.168       12.314      857.027
10/12/2013  20:19:00     -241.399      -57.224        2.390      183.688      112.830       82.250    33741.299    12730.651     6765.114        5.738        2.662      248.089       93.778        0.143      339.171       12.318      857.045
10/12/2013  20:20:00     -401.417     -130.818      -18.510      180.972      132.520       68.682    32750.949    17561.512     4717.208       11.680        2.751      422.196       82.260        0.038      339.172       12.321      857.048
10/12/2013  20:21:00     -300.962      -42.151       13.208      173.562      152.002       87.571    30123.880    23104.486     7668.725        7.670        3.045      303.900       98.677        0.105      339.145       12.275      857.063
10/12/2013  20:22:00     -431.409     -137.787      -12.352      174.170      177.011       86.191    30335.118    31333.060     7428.834       13.716        3.455      452.879       86.186        0.036      339.152       12.286      857.078
10/12/2013  20:23:00     -478.956     -191.733      -21.583      197.684      166.473       90.473    39079.089    27713.116     8185.307       17.079        3.749      515.907       93.599        0.033      339.171       12.318      857.074
10/12/2013  20:24:00     -308.445      -91.580        7.490      208.494      117.143       66.980    43469.876    13722.517     4486.366        8.262        3.084      321.753       79.163        0.061      339.158       12.297      857.101
10/12/2013  20:25:00     -290.099     -116.496       -0.711      161.900      126.647       68.170    26211.568    16039.529     4647.129        7.230        2.345      312.616       83.056        0.071      339.155       12.292      857.107
10/12/2013  20:26:00     -426.856     -172.186      -18.563      208.023      177.862       79.683    43273.722    31634.773     6349.451       14.671        4.063      460.276       93.627        0.041      339.150       12.283      857.113
10/12/2013  20:27:00     -318.097     -109.827      -15.932      141.964      142.947       73.846    20153.661    20433.805     5453.208        7.976        2.302      336.522       58.085        0.030      339.147       12.277      857.123
10/12/2013  20:28:00     -352.451      -43.426       -4.967      221.710      125.209       74.527    49155.316    15677.276     5554.228        9.825        3.519      355.116       95.825        0.073      339.119       12.232      857.151
10/12/2013  20:29:00     -256.594      -72.665        2.596      157.232      131.889       72.224    24721.756    17394.646     5216.282        5.922        2.367      266.685       80.480        0.091      339.084       12.173      857.180
10/12/2013  20:30:00     -275.371      -20.084       -7.277      172.304       88.071       73.474    29688.804     7756.456     5398.480        5.956        2.142      276.102       82.961        0.090      339.073       12.153      857.221
10/12/2013  20:31:00     -277.464      -55.327       -7.859      162.461      108.345       60.892    26393.447    11738.707     3707.824        6.097        2.092      282.926       58.802        0.043      339.059       12.131      857.247
10/12/2013  20:32:00     -418.450     -134.157       -7.540      192.391      133.332       75.062    37014.423    17777.543     5634.339       12.678        3.021      439.430       64.655        0.022      339.068       12.146      857.262
10/12/2013  20:33:00     -316.674     -101.656      -17.048      154.112       85.813       45.528    23750.599     7363.793     2072.779        7.204        1.659      332.590       51.688        0.024      339.053       12.121      857.265
10/12/2013  20:34:00     -384.996     -103.541      -24.916      103.837      108.838       53.963    10782.058    11845.705     2911.977        9.255        1.277      398.676       39.236        0.010      339.011       12.049      857.291
10/12/2013  20:35:00     -286.565      -36.006      -20.507       95.060       85.987       43.097     9036.385     7393.755     1857.360        5.106        0.914      288.819       46.315        0.026      338.954       11.955      857.298
10/12/2013  20:36:00     -292.491     -104.885       -7.428      137.430      103.570       58.867    18886.891    10726.783     3465.355        6.484        1.654      310.728       63.471        0.042      338.903       11.868      857.312
10/12/2013  20:37:00     -279.109      -28.864       -6.485      116.530       94.711       54.651    13579.307     8970.226     2986.786        5.215        1.277      280.597       50.514        0.032      338.922       11.900      857.314
10/12/2013  20:38:00     -264.205      -33.560      -12.339      125.408       72.584       49.035    15727.067     5268.389     2404.476        4.724        1.170      266.328       57.651        0.047      338.881       11.832      857.317
10/12/2013  20:39:00     -238.065      -33.168       -7.058       86.162      101.066       40.766     7423.853    10214.271     1661.887        3.856        0.965      240.364       39.718        0.027      338.852       11.782      857.331
10/12/2013  20:40:00     -309.516      -83.022      -11.951       86.033       91.624       48.862     7401.670     8394.973     2387.460        6.051        0.909      320.457       39.443        0.015      338.862       11.799      857.317
10/12/2013  20:41:00     -259.702      -85.635       -0.199      114.129       92.194       55.254    13025.350     8499.669     3052.961        4.967        1.229      273.456       60.819        0.049      338.814       11.720      857.313
10/12/2013  20:42:00     -242.290      -56.928      -18.750       82.202      103.218       50.126     6757.201    10653.975     2512.590        4.111        0.996      248.888       46.688        0.035      338.827       11.741      857.305
10/12/2013  20:43:00     -309.367      -58.661       -1.426      107.081       93.985       62.509    11466.442     8833.225     3907.331        6.167        1.210      314.879       49.490        0.025      338.814       11.719      857.302
10/12/2013  20:44:00     -283.337      -46.750      -19.149      155.187      105.184       58.898    24082.915    11063.642     3468.987        6.072        1.931      287.168       73.263        0.065      338.796       11.689      857.305
10/12/2013  20:45:00     -330.268      -29.020      -16.935      138.172       98.211       64.313    19091.492     9645.495     4136.199        7.153        1.644      331.540       66.389        0.040      338.795       11.686      857.304
10/12/2013  20:46:00     -212.184      -68.534       -3.781      112.503       96.083       55.666    12656.965     9231.897     3098.713        3.736        1.249      222.977       48.314        0.047      338.779       11.659      857.318
10/12/2013  20:47:00     -296.269      -36.155      -16.773      104.532      104.420       44.105    10926.949    10903.538     1945.250        5.657        1.189      298.467       48.448        0.026      338.754       11.617      857.319
10/12/2013  20:48:00     -326.279      -70.980      -23.522      110.055       96.800       50.540    12112.054     9370.246     2554.244        6.804        1.202      333.911       36.737        0.012      338.760       11.627      857.321
10/12/2013  20:49:00     -293.787      -80.786        0.019       87.575       64.317       49.885     7669.343     4136.650     2488.499        5.356        0.715      304.692       48.494        0.025      338.716       11.553      857.335
10/12/2013  20:50:00     -318.326     -104.112      -14.122       98.095       83.450       52.105     9622.603     6963.831     2714.919        6.583        0.965      334.919       48.195        0.021      338.705       11.535      857.349
10/12/2013  20:51:00     -232.032      -93.061       -2.656       76.796       58.342       39.706     5897.676     3403.774     1576.540        3.669        0.544      249.998       37.206        0.022      338.689       11.508      857.368
10/12/2013  20:52:00     -321.146      -86.341      -17.012      107.977       96.613       60.355    11658.978     9334.029     3642.680        6.775        1.232      332.550       48.276        0.021      338.743       11.599      857.367
10/12/2013  20:53:00     -303.075      -20.197       -8.198      144.808       85.834       64.169    20969.429     7367.450     4117.640        6.239        1.623      303.747       70.777        0.054      338.753       11.616      857.378
10/12/2013  20:54:00     -207.576      -18.992      -13.577       78.966       77.470       45.629     6235.629     6001.632     2082.031        2.897        0.716      208.443       39.962        0.037      338.725       11.569      857.402
10/12/2013  20:55:00     -240.721      -73.276       -1.296       81.940       73.065       47.274     6714.193     5338.421     2234.802        3.880        0.714      251.626       45.033        0.032      338.725       11.569      857.412
10/12/2013  20:56:00     -256.274      -44.275      -15.090      123.200       66.131       46.331    15178.205     4373.326     2146.605        4.478        1.085      260.070       58.212        0.050      338.717       11.556      857.413
10/12/2013  20:57:00     -221.328      -96.272       -9.006      133.287       92.538       51.746    17765.314     8563.278     2677.612        4.367        1.450      241.360       58.178        0.058      338.711       11.547      857.420
10/12/2013  20:58:00     -267.851      -87.032      -14.405       83.227       82.591       50.938     6926.723     6821.202     2594.665        4.793        0.817      281.636       47.160        0.028      338.685       11.501      857.425
10/12/2013  20:59:00     -241.606      -52.757       -1.036       90.545       86.077       48.105     8198.475     7409.208     2314.138        3.954        0.896      247.299       43.636        0.031      338.676       11.487      857.437
10/12/2013  21:00:00     -225.846      -84.012       -1.919       86.768       78.561       47.754     7528.710     6171.862     2280.444        3.702        0.799      240.965       48.605        0.041      338.672       11.478      857.444
10/12/2013  21:01:00     -246.937      -68.978      -10.239      110.798       75.637       52.451    12276.236     5720.949     2751.095        4.329        1.037      256.390       51.692        0.041      338.681       11.494      857.441
10/12/2013  21:02:00     -227.210      -29.629      -10.873       77.289       68.066       41.916     5973.599     4633.034     1756.969        3.249        0.618      229.133       36.163        0.025      338.679       11.491      857.430
10/12/2013  21:03:00     -185.889      -61.663       -7.166       68.677       74.085       38.311     4716.545     5488.518     1467.735        2.504        0.584      195.850       24.081        0.015      338.683       11.499      857.435
10/12/2013  21:04:00     -266.132     -105.484      -13.927       69.788       61.522       37.951     4870.345     3784.947     1440.251        4.612        0.505      286.274       30.677        0.011      338.672       11.478      857.440
10/12/2013  21:05:00     -195.033      -71.740        7.006       99.257       67.904       44.141     9851.855     4610.940     1948.431        2.982        0.821      207.809       46.904        0.051      338.604       11.366      857.432
10/12/2013  21:06:00     -193.827      -27.729       -5.567      107.785       73.535       39.473    11617.559     5407.357     1558.083        2.847        0.929      195.800       51.589        0.069      338.603       11.364      857.430
10/12/2013  21:07:00     -190.795       -5.590       -1.630       83.049       74.954       46.442     6897.172     5618.148     2156.895        2.555        0.734      190.877       43.223        0.051      338.594       11.351      857.415
10/12/2013  21:08:00     -202.102      -71.170       -5.101       77.503       69.403       44.034     6006.768     4816.714     1939.028        2.935        0.638      214.267       43.602        0.041      338.587       11.336      857.410
10/12/2013  21:09:00     -238.159      -57.399      -12.427       57.265       53.551       44.047     3279.248     2867.735     1940.105        3.413        0.404      244.979       32.818        0.018      338.583       11.330      857.404
10/12/2013  21:10:00     -272.095      -33.817       -6.415      152.230       87.241       63.454    23174.074     7610.964     4026.362        5.501        1.741      274.189       80.307        0.086      338.587       11.338      857.400
10/12/2013  21:11:00     -269.119      -16.208       -7.573       89.653       60.767       43.117     8037.724     3692.614     1859.103        4.316        0.679      269.606       39.460        0.021      338.588       11.337      857.389
10/12/2013  21:12:00     -305.886      -50.713      -18.837      103.359       79.502       47.652    10683.010     6320.614     2270.689        5.788        0.964      310.062       47.207        0.023      338.581       11.328      857.385
10/12/2013  21:13:00     -239.007      -21.136       -9.077      119.104       70.265       53.144    14185.865     4937.202     2824.298        3.980        1.097      239.940       56.394        0.055      338.565       11.301      857.370
10/12/2013  21:14:00     -325.323      -47.874       -6.521      150.632      113.780       61.057    22690.056    12945.988     3727.956        7.376        1.968      328.827       62.060        0.036      338.630       11.408      857.375
10/12/2013  21:15:00     -406.365     -129.243      -13.002      163.984      138.440       69.085    26890.901    19165.508     4772.791       11.641        2.541      426.423       64.983        0.023      338.689       11.508      857.379
10/12/2013  21:16:00     -297.719      -74.435       -7.245      142.808      100.399       60.817    20393.982    10079.920     3698.734        6.419        1.709      306.883       65.256        0.045      338.719       11.559      857.373
10/12/2013  21:17:00     -276.728      -82.939       -8.127      127.010       99.982       58.539    16131.505     9996.469     3426.778        5.653        1.478      288.890       62.245        0.046      338.669       11.475      857.395
10/12/2013  21:18:00     -190.907     -101.268       -3.130      128.779      102.896       53.838    16583.991    10587.489     2898.546        3.838        1.504      216.104       49.277        0.052      338.611       11.379      857.418
10/12/2013  21:19:00     -255.227      -96.994      -10.968      101.513       82.986       49.678    10304.846     6886.701     2467.918        4.716        0.983      273.036       48.531        0.032      338.646       11.435      857.444
10/12/2013  21:20:00     -283.461      -64.974      -16.200      137.476       84.888       52.741    18899.761     7205.975     2781.606        5.685        1.444      290.812       61.165        0.044      338.669       11.474      857.448
10/12/2013  21:21:00     -305.033      -76.042      -17.817      129.306      106.839       56.304    16720.029    11414.564     3170.180        6.522        1.565      314.368       64.257        0.042      338.712       11.545      857.449
10/12/2013  21:22:00     -329.072       22.239      -26.287       95.061       97.146       45.513     9036.504     9437.343     2071.431        6.501        1.027      329.823       44.157        0.018      338.713       11.548      857.460
10/12/2013  21:23:00     -401.831      -17.298      -20.603      108.780      109.176       40.737    11832.980    11919.471     1659.469        9.380        1.271      402.203       47.840        0.014      338.679       11.491      857.463
10/12/2013  21:24:00     -331.397      -89.032       -6.239      125.611       93.796       55.874    15778.212     8797.651     3121.954        7.274        1.385      343.148       47.961        0.020      338.649       11.441      857.484
10/12/2013  21:25:00     -446.773     -104.784      -29.135      118.551      112.112       57.957    14054.422    12569.047     3359.040       12.070        1.499      458.897       49.084        0.011      338.778       11.658      857.475
10/12/2013  21:26:00     -228.772      -73.711       -6.600      128.301       96.110       55.490    16461.077     9237.190     3079.127        4.329        1.439      240.354       63.663        0.070      338.669       11.475      857.484
10/12/2013  21:27:00     -248.300      -92.126       -4.571       73.747       54.544       40.792     5438.671     2975.009     1663.990        4.012        0.504      264.840       27.464        0.011      338.637       11.419      857.504
10/12/2013  21:28:00     -207.906      -85.316      -19.164      123.894       68.398       38.772    15349.846     4678.268     1503.298        3.620        1.077      224.730       27.658        0.015      338.633       11.413      857.517
10/12/2013  21:29:00     -343.425      -67.447      -21.713      110.873       91.015       51.180    12292.763     8283.729     2619.428        7.307        1.160      349.985       47.864        0.019      338.623       11.396      857.526
10/12/2013  21:30:00     -224.722      -58.721      -32.419       98.244       80.577       53.984     9651.968     6492.688     2914.249        3.703        0.953      232.267       59.077        0.065      338.621       11.393      857.531
10/12/2013  21:31:00     -152.043      -75.648       -5.860      128.333       67.590       53.413    16469.310     4568.408     2852.993        2.638        1.195      169.823       44.039        0.067      338.565       11.300      857.527
10/12/2013  21:32:00     -281.546      -59.894      -13.736       77.012       72.743       47.985     5930.875     5291.595     2302.601        4.828        0.676      287.846       37.097        0.017      338.533       11.246      857.562
10/12/2013  21:33:00     -239.739      -31.762      -35.569       70.884       73.253       49.160     5024.539     5366.072     2416.709        3.628        0.640      241.834       37.937        0.025      338.522       11.227      857.568
10/12/2013  21:34:00     -325.850       54.520      -42.690      105.129      113.700       42.745    11052.066    12927.663     1827.121        6.838        1.290      330.380       42.994        0.017      338.613       11.380      857.589
10/12/2013  21:35:00     -327.741        0.486      -39.530      115.116      116.472       59.172    13251.587    13565.623     3501.318        6.964        1.516      327.742       54.862        0.028      338.601       11.359      857.593
10/12/2013  21:36:00     -155.780       19.947      -10.757       61.518       98.735       49.943     3784.462     9748.628     2494.262        2.040        0.801      157.052       34.794        0.049      338.520       11.226      857.605
10/12/2013  21:37:00     -228.975      -34.172      -15.794      135.708       70.471       53.840    18416.767     4966.154     2898.721        4.006        1.314      231.510       48.901        0.045      338.553       11.281      857.606
10/12/2013  21:38:00     -173.153       -7.982      -13.984       68.855       64.233       36.244     4741.039     4125.840     1313.613        2.021        0.509      173.337       31.904        0.034      338.509       11.209      857.624
10/12/2013  21:39:00     -119.656       10.460      -13.381       62.751       63.078       41.905     3937.633     3978.868     1755.995        1.214        0.484      120.112       30.052        0.063      338.479       11.157      857.639
10/12/2013  21:40:00     -135.485       74.107      -19.767       79.121      120.215       45.370     6260.144    14451.599     2058.474        2.350        1.139      154.428       41.724        0.073      338.551       11.278      857.652
10/12/2013  21:41:00     -140.984      171.386      -24.643       72.286      125.281       57.550     5225.220    15695.440     3311.953        3.704        1.212      221.923       51.065        0.053      338.600       11.359      857.683
10/12/2013  21:42:00     -111.170       56.977      -26.162       56.823       75.506       33.406     3228.858     5701.155     1115.928        1.317        0.502      124.920       27.639        0.049      338.589       11.342      857.680
10/12/2013  21:43:00     -155.090       72.631      -15.795       59.821       53.440       43.352     3578.533     2855.848     1879.405        1.894        0.416      171.255       31.578        0.034      338.553       11.283      857.682
10/12/2013  21:44:00     -163.601       75.458      -11.882       64.605      106.229       47.552     4173.841    11284.585     2261.194        2.516        0.886      180.164       47.112        0.068      338.500       11.191      857.692
10/12/2013  21:45:00     -135.361      135.253      -31.824       61.249       67.150       46.472     3751.403     4509.132     2159.659        2.402        0.521      191.353       46.874        0.060      338.313       10.877      857.708
10/12/2013  21:46:00     -214.422       97.539      -25.307      105.412       61.834       43.941    11111.760     3823.392     1930.850        3.650        0.843      235.565       50.374        0.046      338.212       10.706      857.728
10/12/2013  21:47:00     -178.445       94.198      -37.809       72.513      119.288       47.358     5258.130    14229.685     2242.776        3.193        1.087      201.781       48.296        0.057      338.140       10.587      857.740
10/12/2013  21:48:00     -144.919      144.537      -24.903       80.785       85.573       44.443     6526.188     7322.690     1975.157        2.917        0.791      204.676       41.332        0.041      338.062       10.455      857.731
10/12/2013  21:49:00     -132.107      172.338      -28.539       62.063       59.948       46.503     3851.793     3593.809     2162.543        2.879        0.480      217.147       38.462        0.031      338.000       10.353      857.740
10/12/2013  21:50:00     -136.075      126.066      -19.275      114.682      139.821       62.158    13151.909    19550.043     3863.614        3.567        1.828      185.496       53.915        0.084      337.943       10.256      857.716
10/12/2013  21:51:00     -209.522      -76.734       -4.032      149.691      111.199       59.758    22407.256    12365.321     3571.004        4.407        1.917      223.131       75.221        0.114      337.834       10.072      857.654
10/12/2013  21:52:00     -102.292       31.793      -10.474      101.055       87.681       45.823    10212.115     7688.015     2099.719        1.579        1.000      107.119       50.407        0.221      337.830       10.067      857.674
10/12/2013  21:53:00      -53.168      380.282      -43.765       81.948      225.098       66.396     6715.472    50668.904     4408.475       10.556        3.090      383.981       87.192        0.052      337.711        9.867      857.651
10/12/2013  21:54:00      -74.018      518.435      -55.514      107.182      134.498       64.599    11488.051    18089.778     4173.084       15.554        1.688      523.692       45.107        0.007      337.615        9.707      857.613
10/12/2013  21:55:00      -94.538      320.303      -29.178       92.158      163.290       72.597     8493.142    26663.786     5270.388        7.640        2.021      333.963       79.780        0.057      337.650        9.765      857.642
10/12/2013  21:56:00     -163.949      282.606      -56.987      102.990      135.094       63.065    10606.891    18250.457     3977.249        7.141        1.642      326.719       64.090        0.038      337.664        9.789      857.719
10/12/2013  21:57:00     -112.605      174.761      -19.549       53.851       73.455       42.997     2899.921     5395.675     1848.738        2.687        0.507      207.897       28.985        0.019      337.623        9.719      857.741
10/12/2013  21:58:00      -73.642      116.659      -19.788       78.976       95.740       39.955     6237.207     9166.172     1596.364        1.821        0.850      137.958       38.081        0.076      337.641        9.750      857.736
10/12/2013  21:59:00     -132.653      152.412      -27.324       61.857      102.609       43.172     3826.245    10528.626     1863.852        2.889        0.811      202.055       31.464        0.024      337.610        9.698      857.768
10/12/2013  22:00:00     -108.894      209.530      -21.600       72.985       95.603       47.489     5326.748     9139.944     2255.234        3.647        0.836      236.137       34.552        0.021      337.601        9.682      857.785
10/12/2013  22:01:00     -112.569      267.853      -27.631       76.861       91.752       62.524     5907.654     8418.384     3909.210        5.170        0.912      290.546       38.685        0.018      337.564        9.619      857.783
10/12/2013  22:02:00      -81.981      194.499      -16.635       51.689       79.349       42.661     2671.790     6296.253     1819.939        2.781        0.539      211.070       29.004        0.019      337.602        9.684      857.784
10/12/2013  22:03:00     -150.068      264.420      -42.425       88.876      123.085       56.422     7898.867    15149.831     3183.496        6.023        1.312      304.037       55.429        0.033      337.540        9.578      857.803
10/12/2013  22:04:00     -113.496      204.546      -16.242       70.939       99.291       46.178     5032.331     9858.766     2132.420        3.600        0.851      233.924       43.855        0.035      337.511        9.531      857.808
10/12/2013  22:05:00     -138.070      244.866      -30.295      101.240      131.015       54.790    10249.551    17164.933     3001.954        5.517        1.521      281.110       58.559        0.043      337.492        9.498      857.816
10/12/2013  22:06:00     -130.365      330.316      -40.387       96.737       82.981       49.621     9358.118     6885.851     2462.290        7.322        0.935      355.111       43.262        0.015      337.499        9.511      857.813
10/12/2013  22:07:00     -193.483      324.936      -56.879       91.799      124.333       58.001     8427.040    15458.682     3364.058        8.675        1.362      378.179       64.336        0.029      337.494        9.500      857.827
10/12/2013  22:08:00     -122.699      283.932      -23.089      122.359      141.942       67.118    14971.693    20147.535     4504.839        6.791        1.981      309.309       68.069        0.048      337.481        9.481      857.839
10/12/2013  22:09:00     -136.101      307.739      -39.360       89.105      130.067       55.003     7939.625    16917.525     3025.349        7.132        1.394      336.492       54.642        0.026      337.468        9.458      857.857
10/12/2013  22:10:00     -126.312      245.074      -46.562      106.495      102.591       51.496    11341.094    10524.888     2651.888        5.135        1.226      275.710       48.268        0.031      337.498        9.509      857.854
10/12/2013  22:11:00      -95.084      444.913      -41.805       88.822      120.208       57.509     7889.267    14449.992     3307.305       11.719        1.282      454.960       53.481        0.014      337.415        9.370      857.865
10/12/2013  22:12:00      -52.203      325.855      -37.688       57.992      110.571       51.081     3363.119    12226.001     2609.237        6.426        0.910      330.010       52.173        0.025      337.411        9.363      857.869
10/12/2013  22:13:00     -124.724      477.683      -55.057      114.593      140.375       67.569    13131.656    19705.142     4565.503       14.208        1.870      493.697       63.943        0.017      337.364        9.285      857.881
10/12/2013  22:14:00     -132.983      367.486      -44.809       95.632      128.061       63.159     9145.436    16399.700     3989.039        9.213        1.477      390.808       64.812        0.028      337.356        9.272      857.888
10/12/2013  22:15:00      -93.565      375.388      -30.356       88.584      152.052       60.272     7847.087    23119.900     3632.725        9.259        1.730      386.873       68.145        0.031      337.305        9.187      857.904
10/12/2013  22:16:00     -131.161      409.615      -39.986      115.297      151.847       75.896    13293.355    23057.629     5760.129       11.434        2.106      430.102       82.747        0.037      337.288        9.158      857.898
10/12/2013  22:17:00     -132.998      520.674      -58.654      107.171      139.910       56.432    11485.561    19574.819     3184.536       16.323        1.712      537.392       54.546        0.010      337.280        9.147      857.899
10/12/2013  22:18:00     -142.256      328.595      -36.673      102.974      122.737       66.179    10603.670    15064.402     4379.715        7.980        1.502      358.066       81.167        0.051      337.270        9.128      857.892
10/12/2013  22:19:00      -93.895      313.310      -41.084       97.147      167.902       64.586     9437.585    28191.026     4171.386        7.523        2.090      327.077       55.955        0.029      337.266        9.121      857.883
10/12/2013  22:20:00      -91.667      260.145      -17.019       84.930      134.916       72.641     7213.045    18202.371     5276.714        5.352        1.535      275.823       72.995        0.070      337.229        9.061      857.884
10/12/2013  22:21:00     -120.000      264.340      -19.501      118.119      189.766       79.855    13952.150    36011.166     6376.795        7.049        2.817      290.303      101.308        0.122      337.215        9.038      857.866
10/12/2013  22:22:00     -103.886      363.089      -47.560      136.370      183.426       74.949    18596.775    33645.215     5617.322       10.136        2.893      377.658       79.249        0.044      337.177        8.972      857.896
10/12/2013  22:23:00     -106.374      316.671      -19.799      109.872      145.695       75.202    12071.770    21227.131     5655.404        7.546        1.948      334.059       69.409        0.043      337.175        8.969      857.898
10/12/2013  22:24:00     -165.361      502.518      -69.288       97.997      128.464       61.113     9603.366    16503.076     3734.851       15.725        1.492      529.026       52.384        0.010      337.133        8.898      857.908
10/12/2013  22:25:00     -152.180      283.759      -41.324      117.170      120.626       59.451    13728.918    14550.747     3534.431        6.859        1.591      321.991       64.209        0.040      337.133        8.897      857.923
10/12/2013  22:26:00     -128.461      363.325      -38.895       85.789      134.412       59.967     7359.692    18066.458     3596.003        8.952        1.451      385.366       48.177        0.016      337.143        8.915      857.926
10/12/2013  22:27:00     -112.769      306.133      -27.287       86.259      189.212       57.060     7440.546    35801.316     3255.894        7.683        2.325      326.243       68.592        0.044      337.140        8.911      857.918
10/12/2013  22:28:00     -153.927      204.800      -18.787      114.206      108.904       67.982    13043.006    11860.163     4621.506        4.775        1.476      256.196       63.775        0.062      337.133        8.899      857.931
10/12/2013  22:29:00     -185.566      292.767      -43.804       95.108      106.155       67.579     9045.463    11268.870     4566.899        7.347        1.244      346.622       59.526        0.029      337.112        8.862      857.937
10/12/2013  22:30:00     -151.724      231.967      -32.937       93.941      116.889       58.867     8824.819    13662.968     3465.287        5.193        1.298      277.181       54.240        0.038      337.096        8.835      857.937
10/12/2013  22:31:00     -159.623      251.349      -40.332       99.868       90.868       66.934     9973.571     8257.007     4480.209        5.649        1.136      297.752       67.835        0.052      337.082        8.812      857.940
10/12/2013  22:32:00     -135.008      345.327      -38.298       98.869      160.889       74.799     9775.095    25885.153     5594.929        9.009        2.063      370.780       82.369        0.049      337.068        8.789      857.950
10/12/2013  22:33:00     -127.233      385.728      -43.270       80.140      159.009       62.197     6422.361    25283.721     3868.410       10.120        1.779      406.170       59.873        0.022      337.077        8.803      857.949
10/12/2013  22:34:00     -181.522      288.642      -59.010      142.062      169.078       79.397    20181.567    28587.212     6303.900        8.740        2.754      340.976       97.578        0.082      337.062        8.779      857.966
10/12/2013  22:35:00     -169.417      326.528      -37.735      135.207      169.335       68.907    18280.951    28674.258     4748.123        9.421        2.585      367.862       71.385        0.038      337.035        8.734      857.978
10/12/2013  22:36:00     -132.256      284.037      -33.105      120.550      126.801       63.243    14532.282    16078.482     3999.727        6.693        1.731      313.319       61.376        0.038      337.034        8.732      857.979
10/12/2013  22:37:00     -201.649      304.798      -61.229      146.565      200.823       81.677    21481.339    40329.976     6671.151       10.288        3.424      365.464       85.279        0.054      337.027        8.720      857.990
10/12/2013  22:38:00     -197.009      325.126      -51.154      156.677      154.483       93.200    24547.733    23864.993     8686.246       10.211        2.855      380.158      106.718        0.079      336.979        8.640      857.979
10/12/2013  22:39:00     -190.804      370.393      -53.830      126.652      132.044       68.747    16040.732    17435.610     4726.128       10.734        1.910      416.650       64.286        0.024      336.976        8.635      857.969
10/12/2013  22:40:00     -112.740      360.738      -23.862       97.496      212.944       82.220     9505.459    45345.311     6760.202       10.250        3.081      377.945       74.224        0.039      336.958        8.605      857.966
10/12/2013  22:41:00     -136.491      221.044      -19.264       98.749      135.781       66.610     9751.315    18436.398     4436.891        5.024        1.631      259.789       61.552        0.056      336.956        8.601      857.973
10/12/2013  22:42:00     -182.395      415.426      -52.773      123.607      143.119       82.017    15278.689    20482.964     6726.762       12.555        2.124      453.703       83.599        0.034      336.914        8.531      857.955
10/12/2013  22:43:00     -156.929      260.403      -52.271       89.120      124.637       70.759     7942.349    15534.473     5006.778        6.182        1.424      304.034       73.938        0.059      336.942        8.576      857.935
10/12/2013  22:44:00     -114.232      163.579      -25.215       81.330      121.785       51.665     6614.538    14831.494     2669.289        3.227        1.206      199.517       30.715        0.024      336.923        8.548      857.922
10/12/2013  22:45:00     -132.347      177.071      -27.375       99.909      101.604       65.259     9981.736    10323.472     4258.678        3.709        1.228      221.066       54.837        0.062      336.919        8.540      857.925
10/12/2013  22:46:00     -185.726      231.654      -35.047      108.918      145.563       78.733    11863.121    21188.446     6198.829        6.431        1.963      296.914       63.782        0.046      336.879        8.473      857.922
10/12/2013  22:47:00     -173.869      203.461      -26.045      118.583      123.293       73.035    14061.933    15201.259     5334.097        5.344        1.730      267.632       71.508        0.071      336.865        8.450      857.922
10/12/2013  22:48:00     -202.677      216.349      -43.119      137.528      162.596       74.040    18913.907    26437.610     5481.940        7.028        2.542      296.454       73.709        0.062      336.862        8.444      857.911
10/12/2013  22:49:00     -210.278      230.939      -39.601      137.274      108.243       69.178    18844.193    11716.558     4785.611        6.723        1.767      312.330       65.284        0.044      336.852        8.428      857.914
10/12/2013  22:50:00     -187.045      313.712      -40.651       85.391      108.059       72.728     7291.629    11676.829     5289.337        7.965        1.213      365.241       65.861        0.033      336.831        8.393      857.919
10/12/2013  22:51:00     -247.320      268.156      -70.605      126.873      161.307       79.014    16096.828    26019.966     6243.218        9.320        2.418      364.794       95.005        0.068      336.828        8.388      857.937
10/12/2013  22:52:00     -198.404      281.716      -36.838      137.629      126.444       74.615    18941.651    15987.991     5567.384        8.028        2.025      344.569       73.782        0.046      336.800        8.341      857.937
10/12/2013  22:53:00     -247.519      222.253      -57.298      121.916      161.454       80.154    14863.559    26067.246     6424.610        8.064        2.368      332.659       76.645        0.053      336.793        8.329      857.962
10/12/2013  22:54:00     -260.369      242.419      -50.632      124.148      137.722       79.633    15412.834    18967.447     6341.347        8.491        2.036      355.751       71.033        0.040      336.759        8.274      857.969
10/12/2013  22:55:00     -122.365      233.520      -23.375      104.313      118.556       63.513    10881.112    14055.534     4033.936        4.951        1.449      263.638       58.354        0.049      336.757        8.270      857.987
10/12/2013  22:56:00     -151.555      181.373      -39.724       92.761       91.259       46.857     8604.562     8328.125     2195.574        3.828        0.956      236.358       55.193        0.055      336.743        8.247      857.985
10/12/2013  22:57:00     -123.983      248.639       -3.654      109.460      157.111       72.502    11981.444    24683.837     5256.492        5.956        2.096      277.836       63.318        0.052      336.722        8.211      857.996
10/12/2013  22:58:00     -148.866      287.035      -32.557      100.584      129.785       59.985    10117.239    16844.245     3598.168        6.808        1.528      323.342       55.209        0.029      336.703        8.180      858.002
10/12/2013  22:59:00     -179.980      220.294      -40.301       93.867      100.732       49.646     8810.944    10147.014     2464.719        5.198        1.071      284.469       44.974        0.025      336.675        8.134      858.026
10/12/2013  23:00:00     -153.964      227.716      -45.299      103.257      145.842       57.394    10662.014    21269.924     3294.024        5.641        1.761      274.881       48.549        0.031      336.681        8.143      858.024
10/12/2013  23:01:00     -117.417      330.746      -38.150       77.686      167.409       51.466     6035.141    28025.934     2648.770        8.067        1.835      350.970       43.483        0.015      336.632        8.062      858.026
10/12/2013  23:02:00     -146.783      266.257      -38.152      109.101      137.349       78.001    11902.960    18864.627     6084.210        6.537        1.843      304.036       69.971        0.053      336.606        8.019      858.037
10/12/2013  23:03:00     -147.315      277.961      -31.863      105.297      162.120       66.732    11087.555    26282.963     4453.223        7.089        2.091      314.585       75.289        0.057      336.583        7.980      858.048
10/12/2013  23:04:00     -207.196      360.951      -55.756      152.698      134.034       72.557    23316.779    17965.056     5264.585       11.143        2.327      416.192       80.034        0.037      336.538        7.905      858.041
10/12/2013  23:05:00     -238.440      282.904      -67.756      117.042      153.994       65.507    13698.738    23714.165     4291.175        9.158        2.085      369.984       75.906        0.042      336.511        7.858      858.049
10/12/2013  23:06:00     -125.229      353.058      -38.985       94.633      144.793       66.725     8955.473    20964.940     4452.275        8.811        1.719      374.610       67.370        0.032      336.495        7.832      858.031
10/12/2013  23:07:00     -133.368      172.520      -19.986       98.943      146.950       62.594     9789.622    21594.448     3917.993        4.162        1.765      218.060       63.864        0.086      336.509        7.857      858.043
10/12/2013  23:08:00     -175.258      346.347      -47.710      104.711      135.093       77.061    10964.489    18250.215     5938.379        9.404        1.758      388.164       54.805        0.020      336.440        7.739      858.038
10/12/2013  23:09:00     -215.871      234.641      -56.790      151.340      131.474       74.627    22903.921    17285.314     5569.210        7.531        2.288      318.836      101.950        0.102      336.430        7.722      858.048
10/12/2013  23:10:00     -197.846      327.389      -62.296      122.160      137.517       67.626    14923.161    18910.806     4573.249        9.430        1.920      382.527       71.217        0.035      336.420        7.704      858.062
10/12/2013  23:11:00     -154.485      195.333      -29.261       96.293      125.561       59.315     9272.410    15765.443     3518.219        4.571        1.428      249.039       55.729        0.050      336.403        7.677      858.066
10/12/2013  23:12:00     -174.310      260.881      -37.864      112.367      137.233       64.282    12626.271    18832.987     4132.128        6.773        1.780      313.756       44.622        0.020      336.404        7.678      858.069
10/12/2013  23:13:00     -213.555      286.707      -42.427      163.995      170.067       84.796    26894.380    28922.710     7190.424        9.629        3.150      357.500       84.608        0.056      336.377        7.633      858.071
10/12/2013  23:14:00     -154.931      451.432      -54.684      161.202      212.779       87.729    25986.205    45274.865     7696.355       15.486        3.948      477.278       93.447        0.038      336.364        7.612      858.076
10/12/2013  23:15:00     -177.942      358.150      -45.544      114.788      182.427       75.451    13176.180    33279.500     5692.830       10.707        2.607      399.919       81.928        0.042      336.351        7.591      858.062
10/12/2013  23:16:00     -114.317      285.190      -46.986      121.054      207.214       76.730    14654.073    42937.593     5887.429        8.003        3.174      307.249       86.536        0.079      336.350        7.589      858.064
10/12/2013  23:17:00     -149.293      303.619      -35.835      114.212      111.316       77.391    13044.353    12391.178     5989.421        7.358        1.571      338.339       60.483        0.032      336.338        7.570      858.054
10/12/2013  23:18:00      -97.502      332.288      -28.295       92.757      159.670       62.094     8603.771    25494.493     3855.689        7.933        1.898      346.297       60.878        0.031      336.312        7.524      858.051
10/12/2013  23:19:00     -158.930      326.377      -32.374      131.135      152.285       89.685    17196.451    23190.589     8043.457        9.062        2.422      363.016       85.523        0.056      336.278        7.469      858.056
10/12/2013  23:20:00     -175.573      301.936      -39.563      131.028      158.993       85.334    17168.465    25278.654     7281.951        8.663        2.486      349.272       81.915        0.055      336.284        7.478      858.070
10/12/2013  23:21:00     -199.967      382.894      -52.954      114.874      153.506       85.933    13196.117    23564.013     7384.421       11.676        2.207      431.965       80.178        0.034      336.270        7.456      858.067
10/12/2013  23:22:00     -151.178      335.186      -42.049      100.564      162.563       75.152    10113.082    26426.720     5647.791        8.957        2.109      367.702       82.042        0.050      336.257        7.433      858.092
10/12/2013  23:23:00     -206.952      372.388      -58.577      118.519      159.446       79.729    14046.820    25422.926     6356.707       11.537        2.291      426.031       86.817        0.042      336.225        7.380      858.091
10/12/2013  23:24:00     -181.087      302.854      -31.351      129.879      156.809       77.622    16868.583    24589.176     6025.181        8.648        2.374      352.864       84.199        0.057      336.217        7.368      858.099
10/12/2013  23:25:00     -180.672      305.001      -45.223      106.514      119.271       67.474    11345.242    14225.600     4552.730        7.891        1.506      354.496       47.104        0.018      336.228        7.387      858.095
10/12/2013  23:26:00     -221.921      473.567      -71.580      110.354      148.882       87.953    12178.067    22165.954     7735.669       16.035        2.104      522.986       79.261        0.023      336.178        7.303      858.115
10/12/2013  23:27:00     -161.081      272.008      -32.842      113.311      153.495       70.862    12839.413    23560.599     5021.469        7.121        2.071      316.125       71.699        0.051      336.200        7.339      858.109
10/12/2013  23:28:00     -153.051      271.949      -39.574      131.385      145.490       76.278    17261.964    21167.225     5818.354        7.159        2.212      312.060       72.886        0.055      336.200        7.338      858.125
10/12/2013  23:29:00     -166.826      365.431      -42.710      135.749      173.569       76.383    18427.887    30126.135     5834.296       10.878        2.719      401.710       83.124        0.043      336.182        7.308      858.117
10/12/2013  23:30:00     -139.201      372.087      -50.206       93.507      193.654       70.137     8743.540    37501.989     4919.136       10.574        2.558      397.272       77.702        0.038      336.185        7.314      858.125
10/12/2013  23:31:00     -142.976      281.800      -14.223      125.128      176.796       85.666    15656.985    31256.883     7338.590        7.714        2.713      315.995       94.274        0.089      336.190        7.321      858.128
10/12/2013  23:32:00     -161.561      257.557      -28.802      102.340      126.252       66.668    10473.546    15939.524     4444.611        6.206        1.543      304.036       65.155        0.046      336.196        7.333      858.151
10/12/2013  23:33:00     -182.510      168.739      -24.022      119.368      130.040       73.161    14248.638    16910.286     5352.600        4.943        1.826      248.561       73.192        0.087      336.197        7.335      858.169
10/12/2013  23:34:00     -212.595      263.691      -42.609      109.514      131.170       61.089    11993.355    17205.551     3731.860        7.473        1.647      338.717       63.050        0.035      336.188        7.318      858.182
10/12/2013  23:35:00     -182.222      178.938      -25.175      132.299      116.899       65.513    17502.995    13665.478     4291.956        5.065        1.773      255.389       58.275        0.052      336.197        7.333      858.175
10/12/2013  23:36:00     -122.524      240.584      -42.722      105.727      132.406       74.623    11178.096    17531.440     5568.657        5.449        1.714      269.987       69.848        0.067      336.213        7.361      858.184
10/12/2013  23:37:00     -177.474      401.648      -41.686      119.109      134.886       86.636    14186.894    18194.348     7505.845       11.721        1.994      439.111       74.589        0.029      336.174        7.295      858.206
10/12/2013  23:38:00     -189.221      178.160      -23.189      136.628      127.323       64.839    18667.261    16211.154     4204.056        5.357        1.954      259.895       77.730        0.089      336.212        7.358      858.216
10/12/2013  23:39:00     -244.664      273.646      -39.112      145.564      180.331       83.161    21188.883    32519.190     6915.695        9.844        3.031      367.073       91.407        0.062      336.168        7.283      858.231
10/12/2013  23:40:00     -131.273      220.601      -15.707      118.289      130.630       64.924    13992.228    17064.067     4215.089        5.070        1.764      256.705       63.667        0.062      336.222        7.376      858.225
10/12/2013  23:41:00     -124.600      261.632      -20.937       99.214      166.720       64.500     9843.332    27795.464     4160.271        6.310        2.090      289.787       70.571        0.059      336.219        7.370      858.221
10/12/2013  23:42:00     -211.574      246.275      -42.305       95.328      137.786       65.090     9087.506    18985.066     4236.733        6.975        1.615      324.677       63.962        0.039      336.209        7.354      858.239
10/12/2013  23:43:00     -182.060      233.816      -24.792      120.778      132.469       68.012    14587.242    17547.925     4625.625        6.259        1.838      296.337       74.838        0.064      336.216        7.365      858.266
10/12/2013  23:44:00     -204.826      284.794      -49.625       99.070      134.353       70.156     9814.818    18050.720     4921.859        7.915        1.639      350.801       69.714        0.039      336.214        7.361      858.294
10/12/2013  23:45:00     -160.942      239.090      -32.524      132.579      126.882       60.083    17577.195    16098.939     3609.955        6.070        1.864      288.213       66.832        0.054      336.214        7.362      858.299
10/12/2013  23:46:00     -141.614      158.260      -17.698      115.316      109.526       65.054    13297.837    11995.839     4231.999        3.746        1.476      212.369       70.961        0.112      336.198        7.337      858.307
10/12/2013  23:47:00     -115.337      246.519      -32.702      107.097      198.818       60.060    11469.750    39528.602     3607.262        6.486        2.730      272.166       59.088        0.047      336.209        7.355      858.318
10/12/2013  23:48:00     -152.710      359.663      -40.366       78.673       98.901       55.881     6189.408     9781.332     3122.654        8.670        0.955      390.741       50.945        0.017      336.162        7.275      858.323
10/12/2013  23:49:00     -172.171      319.934      -38.674      137.869      134.609       74.365    19007.760    18119.673     5530.085        8.807        2.133      363.319       72.235        0.040      336.167        7.284      858.363
10/12/2013  23:50:00     -115.200      120.349      -17.331      100.613       79.404       49.227    10122.951     6304.957     2423.259        2.345        0.943      166.598       54.706        0.108      336.176        7.299      858.385
10/12/2013  23:51:00      -25.202      155.301       -2.894      103.635       98.347       69.507    10740.263     9672.133     4831.289        2.500        1.262      157.333       78.156        0.247      336.189        7.322      858.404
10/12/2013  23:52:00      -20.641      211.845      -14.641       96.118      158.668       69.426     9238.698    25175.494     4820.013        4.237        1.962      212.848       74.889        0.124      336.169        7.290      858.440
10/12/2013  23:53:00      -43.033      235.989      -14.922       62.323       97.107       48.932     3884.188     9429.748     2394.297        3.673        0.785      239.881       48.190        0.040      336.170        7.287      858.466
10/12/2013  23:54:00       -0.075       45.183       21.109       82.023       87.123       52.129     6727.790     7590.440     2717.478        0.976        0.852       45.183       46.722        1.069      336.236        7.401      858.482
10/12/2013  23:55:00       46.621      123.470        9.136       52.410       89.139       57.250     2746.818     7945.740     3277.579        1.573        0.699      131.979       49.188        0.139      336.138        7.237      858.525
10/12/2013  23:56:00       36.848       71.090       61.967       64.988       66.136       55.631     4223.429     4373.910     3094.799        1.097        0.585       80.073       43.016        0.289      336.154        7.265      858.532
10/12/2013  23:57:00      129.130       94.897       21.745       85.345       66.711       52.241     7283.801     4450.424     2729.115        2.031        0.723      160.250       33.697        0.044      336.116        7.199      858.543
10/12/2013  23:58:00       70.256       52.733       13.229       50.638       40.546       30.396     2564.223     1643.989      923.939        0.651        0.257       87.844       22.810        0.067      336.095        7.167      858.564
10/12/2013  23:59:00       46.531       89.893       30.601       87.793       50.208       73.063     7707.669     2520.859     5338.212        1.337        0.778      101.222       50.859        0.252      336.112        7.195      858.560
